[[{"header":{"parameterUnit":"m.s-1","parameterCategory":1,"la1":30.6,"la2":28.766,"lo1":-90.7593,"lo2":-88.6598,"dx":0.0162,"dy":0.0183,"nx":116,"ny":114,"refTime":"2023-01-24T18:00:00:Z","depth":0,"parameterNumber":2,"parameterNumberName":"U-component_of_WINDS"},"data":[0.0,0.0,0.0,0.0,0.0,0.0,0.0,0.0,0.0,0.0,0.0,0.0,0.0,0.0,0.0,0.0,0.0,0.0,0.0,0.0,0.0,0.0,0.0,0.0,0.0,0.0,0.0,0.0,0.0,0.0,0.0,0.0,0.0,0.0,0.0,0.0,0.0,0.0,0.0,0.0,0.0,0.0,0.0,0.0,0.0,0.0,0.0,0.0,0.0,0.0,0.0,0.0,0.0,0.0,0.0,0.0,0.0,0.0,0.0,0.0,0.0,0.0,0.0,0.0,0.0,0.0,0.0,0.0,0.0,0.0,0.0,0.0,0.0,0.0,0.0,0.0,0.0,0.0,0.0,0.0,0.0,0.0,0.0,0.0,0.0,0.0,0.0,0.0,0.0,0.0,0.0,0.0,0.0,0.0,0.0,0.0,0.0,0.0,0.0,0.0,0.0,0.0,0.0,0.0,0.0,0.0,0.0,0.0,0.0,0.0,0.0,0.0,0.0,0.0,0.0,0.0,0.0,0.0,0.0,0.0,0.0,0.0,0.0,0.0,0.0,0.0,0.0,0.0,0.0,0.0,0.0,0.0,0.0,0.0,0.0,0.0,0.0,0.0,0.0,0.0,0.0,0.0,0.0,0.0,0.0,0.0,0.0,0.0,0.0,0.0,0.0,0.0,0.0,0.0,0.0,0.0,0.0,0.0,0.0,0.0,0.0,0.0,0.0,0.0,0.0,0.0,0.0,0.0,0.0,0.0,0.0,0.0,0.0,0.0,0.0,0.0,0.0,0.0,0.0,0.0,0.0,0.0,0.0,0.0,0.0,0.0,0.0,0.0,0.0,0.0,0.0,0.0,0.0,0.0,0.0,0.0,0.0,0.0,0.0,0.0,0.0,0.0,0.0,0.0,0.0,0.0,0.0,0.0,0.0,0.0,0.0,0.0,0.0,0.0,0.0,0.0,0.0,0.0,0.0,0.0,0.0,0.0,0.0,0.0,0.0,0.0,0.0,0.0,0.0,0.0,0.0,0.0,0.0,0.0,0.0,0.0,0.0,0.0,0.0,0.0,0.0,0.0,0.0,0.0,0.0,0.0,0.0,0.0,0.0,0.0,0.0,0.0,0.0,0.0,0.0,0.0,0.0,0.0,0.0,0.0,0.0,0.0,0.0,0.0,0.0,0.0,0.0,0.0,0.0,0.0,0.0,0.0,0.0,0.0,0.0,0.0,0.0,0.0,0.0,0.0,0.0,0.0,0.0,0.0,0.0,0.0,0.0,0.0,0.0,0.0,0.0,0.0,0.0,0.0,0.0,0.0,0.0,0.0,0.0,0.0,0.0,0.0,0.0,0.0,0.0,0.0,0.0,0.0,0.0,0.0,0.0,0.0,0.0,0.0,0.0,0.0,0.0,0.0,0.0,0.0,0.0,0.0,0.0,0.0,0.0,0.0,0.0,0.0,0.0,0.0,0.0,0.0,0.0,0.0,0.0,0.0,0.0,0.0,0.0,0.0,0.0,0.0,0.0,0.0,0.0,0.0,0.0,0.0,0.0,0.0,0.0,0.0,0.0,0.0,0.0,0.0,0.0,0.0,0.0,0.0,0.0,0.0,0.0,0.0,0.0,0.0,0.0,0.0,0.0,0.0,0.0,0.0,0.0,0.0,0.0,0.0,0.0,0.0,0.0,0.0,0.0,0.0,0.0,0.0,0.0,0.0,0.0,0.0,0.0,0.0,0.0,0.0,0.0,0.0,0.0,0.0,0.0,0.0,0.0,0.0,0.0,0.0,0.0,0.0,0.0,0.0,0.0,0.0,0.0,0.0,0.0,0.0,0.0,0.0,0.0,0.0,0.0,0.0,0.0,0.0,0.0,0.0,0.0,0.0,0.0,0.0,0.0,0.0,0.0,0.0,0.0,0.0,0.0,0.0,0.0,0.0,0.0,0.0,0.0,0.0,0.0,0.0,0.0,0.0,0.0,0.0,0.0,0.0,0.0,0.0,0.0,0.0,0.0,0.0,0.0,0.0,0.0,0.0,0.0,0.0,0.0,0.0,0.0,0.0,0.0,0.0,0.0,0.0,0.0,0.0,0.0,0.0,0.0,0.0,0.0,0.0,0.0,0.0,0.0,0.0,0.0,0.0,0.0,0.0,0.0,0.0,0.0,0.0,0.0,0.0,0.0,0.0,0.0,0.0,0.0,0.0,0.0,0.0,0.0,0.0,0.0,0.0,0.0,0.0,0.0,0.0,0.0,0.0,0.0,0.0,0.0,0.0,0.0,0.0,0.0,0.0,0.0,0.0,0.0,0.0,0.0,0.0,0.0,0.0,0.0,0.0,0.0,0.0,0.0,0.0,0.0,0.0,0.0,0.0,0.0,0.0,0.0,0.0,0.0,0.0,0.0,0.0,0.0,0.0,0.0,0.0,0.0,0.0,0.0,0.0,0.0,0.0,0.0,0.0,0.0,0.0,0.0,0.0,0.0,0.0,0.0,0.0,0.0,0.0,0.0,0.0,0.0,0.0,0.0,0.0,0.0,0.0,0.0,0.0,0.0,0.0,0.0,0.0,0.0,0.0,0.0,0.0,0.0,0.0,0.0,0.0,0.0,0.0,0.0,0.0,0.0,0.0,0.0,0.0,0.0,0.0,0.0,0.0,0.0,0.0,0.0,0.0,0.0,0.0,0.0,0.0,0.0,0.0,0.0,0.0,0.0,0.0,0.0,0.0,0.0,0.0,0.0,0.0,0.0,0.0,0.0,0.0,0.0,0.0,0.0,0.0,0.0,0.0,0.0,0.0,0.0,0.0,0.0,0.0,0.0,0.0,0.0,0.0,0.0,0.0,0.0,0.0,0.0,0.0,0.0,0.0,0.0,0.0,0.0,0.0,0.0,0.0,0.0,0.0,0.0,0.0,0.0,0.0,0.0,0.0,0.0,0.0,0.0,0.0,0.0,0.0,0.0,0.0,0.0,0.0,0.0,0.0,0.0,0.0,0.0,0.0,0.0,0.0,0.0,0.0,0.0,0.0,0.0,0.0,0.0,0.0,0.0,0.0,0.0,0.0,0.0,0.0,0.0,0.0,0.0,0.0,0.0,0.0,0.0,0.0,0.0,0.0,0.0,0.0,0.0,0.0,0.0,0.0,0.0,0.0,0.0,0.0,0.0,0.0,0.0,0.0,0.0,0.0,0.0,0.0,0.0,0.0,0.0,0.0,0.0,0.0,0.0,0.0,0.0,0.0,0.0,0.0,0.0,0.0,0.0,0.0,0.0,0.0,0.0,0.0,0.0,0.0,0.0,0.0,0.0,0.0,0.0,0.0,0.0,0.0,0.0,0.0,0.0,0.0,0.0,0.0,0.0,0.0,0.0,0.0,0.0,0.0,0.0,0.0,0.0,0.0,0.0,0.0,0.0,0.0,0.0,0.0,0.0,0.0,0.0,0.0,0.0,0.0,0.0,0.0,0.0,0.0,0.0,0.0,0.0,0.0,0.0,0.0,0.0,0.0,0.0,0.0,0.0,0.0,0.0,0.0,0.0,0.0,0.0,0.0,0.0,0.0,0.0,0.0,0.0,0.0,0.0,0.0,0.0,0.0,0.0,0.0,0.0,0.0,0.0,0.0,0.0,0.0,0.0,0.0,0.0,0.0,0.0,0.0,0.0,0.0,0.0,0.0,0.0,0.0,0.0,0.0,0.0,0.0,0.0,0.0,0.0,0.0,0.0,0.0,0.0,0.0,0.0,0.0,0.0,0.0,0.0,0.0,0.0,0.0,0.0,0.0,0.0,0.0,0.0,0.0,0.0,0.0,0.0,0.0,0.0,0.0,0.0,0.0,0.0,0.0,0.0,0.0,0.0,0.0,0.0,0.0,0.0,0.0,0.0,0.0,0.0,0.0,0.0,0.0,0.0,0.0,0.0,0.0,0.0,0.0,0.0,0.0,0.0,0.0,0.0,0.0,0.0,0.0,0.0,0.0,0.0,0.0,0.0,0.0,0.0,0.0,0.0,0.0,0.0,0.0,0.0,0.0,0.0,0.0,0.0,0.0,0.0,0.0,0.0,0.0,0.0,0.0,0.0,0.0,0.0,0.0,0.0,0.0,0.0,0.0,0.0,0.0,0.0,0.0,0.0,0.0,0.0,0.0,0.0,0.0,0.0,0.0,0.0,0.0,0.0,0.0,0.0,0.0,0.0,0.0,0.0,0.0,0.0,0.0,0.0,0.0,0.0,0.0,0.0,0.0,0.0,0.0,0.0,0.0,0.0,0.0,0.0,0.0,0.0,0.0,0.0,0.0,0.0,0.0,0.0,0.0,0.0,0.0,0.0,0.0,0.0,0.0,0.0,0.0,0.0,0.0,0.0,0.0,0.0,0.0,0.0,0.0,0.0,0.0,0.0,0.0,0.0,0.0,0.0,0.0,0.0,0.0,0.0,0.0,0.0,0.0,0.0,0.0,0.0,0.0,0.0,0.0,0.0,0.0,0.0,0.0,0.0,0.0,0.0,0.0,0.0,0.0,0.0,0.0,0.0,0.0,0.0,0.0,0.0,0.0,0.0,0.0,0.0,0.0,0.0,0.0,0.0,0.0,0.0,0.0,0.0,0.0,0.0,0.0,0.0,0.0,0.0,0.0,0.0,0.0,0.0,0.0,0.0,0.0,0.0,0.0,0.0,0.0,0.0,0.0,0.0,0.0,0.0,0.0,0.0,0.0,0.0,0.0,0.0,0.0,0.0,0.0,0.0,0.0,0.0,0.0,0.0,0.0,0.0,0.0,0.0,0.0,0.0,0.0,0.0,0.0,0.0,0.0,0.0,0.0,0.0,0.0,0.0,0.0,0.0,0.0,0.0,0.0,0.0,0.0,0.0,0.0,0.0,0.0,0.0,0.0,0.0,0.0,0.0,0.0,0.0,0.0,0.0,0.0,0.0,0.0,0.0,0.0,0.0,0.0,0.0,0.0,0.0,0.0,0.0,0.0,0.0,0.0,0.0,0.0,0.0,0.0,0.0,0.0,0.0,0.0,0.0,0.0,0.0,0.0,0.0,0.0,0.0,0.0,0.0,0.0,0.0,0.0,0.0,0.0,0.0,0.0,0.0,0.0,0.0,0.0,0.0,0.0,0.0,0.0,0.0,0.0,0.0,0.0,0.0,0.0,0.0,0.0,0.0,0.0,0.0,0.0,0.0,0.0,0.0,0.0,0.0,0.0,0.0,0.0,0.0,0.0,0.0,0.0,0.0,0.0,0.0,0.0,0.0,0.0,0.0,0.0,0.0,0.0,0.0,0.0,0.0,0.0,0.0,0.0,0.0,0.0,0.0,0.0,0.0,0.0,0.0,0.0,0.0,0.0,0.0,0.0,0.0,0.0,0.0,0.0,0.0,0.0,0.0,0.0,0.0,0.0,0.0,0.0,0.0,0.0,0.0,0.0,0.0,0.0,0.0,0.0,0.0,0.0,0.0,0.0,0.0,0.0,0.0,0.0,0.0,0.0,0.0,0.0,0.0,0.0,0.0,0.0,0.0,0.0,0.0,0.0,0.0,0.0,0.0,0.0,0.0,0.0,0.0,0.0,0.0,0.0,0.0,0.0,0.0,0.0,0.0,0.0,0.0,0.0,0.0,0.0,0.0,0.0,0.0,0.0,0.0,0.0,0.0,0.0,0.0,0.0,0.0,0.0,0.0,0.0,0.0,0.0,0.0,0.0,0.0,0.0,0.0,0.0,0.0,0.0,0.0,0.0,0.0,0.0,0.0,0.0,0.0,0.0,0.0,0.0,0.0,0.0,0.0,0.0,0.0,0.0,0.0,0.0,0.0,0.0,0.0,0.0,0.0,0.0,0.0,0.0,0.0,0.0,0.0,0.0,0.0,0.0,0.0,0.0,0.0,0.0,0.0,0.0,0.0,0.0,0.0,0.0,0.0,0.0,0.0,0.0,0.0,0.0,0.0,0.0,0.0,0.0,0.0,0.0,0.0,0.0,0.0,0.0,0.0,0.0,0.0,0.0,0.0,0.0,0.0,0.0,0.0,0.0,0.0,0.0,0.0,0.0,0.0,0.0,0.0,0.0,0.0,0.0,0.0,0.0,0.0,0.0,0.0,0.0,0.0,0.0,0.0,0.0,-13.3422,-13.1121,0.0,0.0,0.0,0.0,0.0,0.0,0.0,0.0,0.0,0.0,0.0,0.0,0.0,0.0,0.0,0.0,0.0,0.0,0.0,0.0,0.0,0.0,0.0,0.0,0.0,0.0,0.0,0.0,0.0,0.0,0.0,0.0,0.0,0.0,0.0,0.0,0.0,-15.0568,-15.4876,-15.8261,-16.08,-16.1877,-16.157,-16.0185,0.0,0.0,0.0,0.0,0.0,0.0,0.0,0.0,0.0,0.0,0.0,0.0,0.0,0.0,0.0,0.0,0.0,0.0,0.0,0.0,0.0,0.0,0.0,0.0,0.0,0.0,0.0,0.0,0.0,0.0,0.0,0.0,0.0,0.0,0.0,0.0,0.0,0.0,0.0,0.0,0.0,0.0,0.0,0.0,0.0,0.0,0.0,0.0,0.0,0.0,0.0,0.0,0.0,0.0,0.0,0.0,0.0,0.0,0.0,0.0,0.0,0.0,0.0,0.0,0.0,0.0,0.0,0.0,0.0,0.0,-13.6128,-13.3286,0.0,0.0,0.0,0.0,0.0,0.0,0.0,0.0,0.0,0.0,0.0,0.0,0.0,0.0,0.0,0.0,0.0,0.0,0.0,0.0,0.0,0.0,0.0,-15.6562,-15.7734,-15.5234,-15.5415,-15.5008,0.0,0.0,0.0,0.0,0.0,0.0,-14.8874,-15.1714,-15.377,-15.503,-15.8107,-16.1877,-16.6263,-16.8879,-16.8417,-16.5417,-16.5801,0.0,0.0,0.0,0.0,0.0,0.0,0.0,0.0,0.0,0.0,0.0,0.0,0.0,0.0,0.0,0.0,0.0,0.0,0.0,0.0,0.0,0.0,0.0,0.0,0.0,0.0,0.0,0.0,0.0,0.0,0.0,0.0,0.0,0.0,0.0,0.0,0.0,0.0,0.0,0.0,0.0,0.0,0.0,0.0,0.0,0.0,0.0,0.0,0.0,0.0,0.0,0.0,0.0,0.0,0.0,0.0,0.0,0.0,0.0,0.0,0.0,0.0,0.0,-14.3503,-14.3706,-14.4721,-14.4179,-14.3909,-14.357,-14.0526,-13.7211,-13.4098,-13.4707,0.0,0.0,0.0,0.0,0.0,0.0,0.0,0.0,0.0,0.0,0.0,0.0,0.0,0.0,0.0,0.0,0.0,0.0,0.0,0.0,0.0,-15.8437,-15.9687,-15.7812,-15.807,-15.7584,-15.5867,0.0,0.0,0.0,0.0,0.0,-15.2027,-15.6184,-15.7882,-15.6799,-16.2185,-16.7494,-17.2264,-17.211,-17.2418,-17.3187,-17.1879,-16.9879,-16.7494,0.0,0.0,0.0,0.0,0.0,0.0,0.0,0.0,0.0,0.0,0.0,0.0,0.0,0.0,0.0,0.0,0.0,0.0,0.0,0.0,0.0,0.0,0.0,0.0,0.0,0.0,0.0,0.0,0.0,0.0,0.0,0.0,0.0,0.0,0.0,0.0,0.0,0.0,0.0,0.0,0.0,-14.6753,-14.7047,0.0,0.0,0.0,0.0,0.0,0.0,0.0,0.0,0.0,0.0,0.0,0.0,0.0,-14.127,-14.357,-14.6209,-14.8104,-14.9389,-14.993,-14.9592,-14.8577,-14.9118,-14.8983,-14.8307,-14.7833,0.0,-14.012,-13.7008,0.0,0.0,0.0,0.0,0.0,0.0,0.0,0.0,0.0,0.0,0.0,0.0,0.0,0.0,0.0,0.0,0.0,0.0,0.0,0.0,0.0,-16.0996,-16.2132,-16.0804,-16.1415,-16.138,-16.0663,-16.1577,0.0,0.0,0.0,-16.0436,-15.9037,-16.0286,-16.1063,-16.1416,-16.6801,-17.011,-17.1418,-17.2495,-17.388,-17.5495,-17.5188,-17.4034,-17.1769,-16.7991,0.0,0.0,0.0,0.0,0.0,0.0,0.0,0.0,0.0,0.0,0.0,0.0,0.0,0.0,0.0,0.0,0.0,0.0,0.0,0.0,0.0,0.0,0.0,0.0,0.0,0.0,0.0,0.0,0.0,0.0,0.0,0.0,0.0,0.0,0.0,0.0,0.0,0.0,0.0,-14.9176,-15.1819,-15.0938,-15.0902,-14.8796,0.0,0.0,0.0,0.0,0.0,0.0,0.0,0.0,0.0,-14.0391,-14.3097,-14.5465,-14.7292,-14.8577,-15.0472,-15.2907,-15.3178,-15.3516,-15.3651,-15.399,-15.3922,-15.3584,-15.311,-15.1419,-14.8577,-14.4044,-14.0796,-13.8496,0.0,0.0,0.0,0.0,-12.4603,-12.0333,0.0,0.0,0.0,0.0,0.0,0.0,0.0,0.0,0.0,0.0,0.0,0.0,-16.1394,-16.3701,-16.4812,-16.3866,-16.4736,-16.5554,-16.6173,-16.7694,-16.8593,-16.8909,-16.829,-16.722,-16.5691,-16.452,-16.4656,-16.6263,-17.011,-17.1418,-17.0417,-17.2495,-17.4418,-17.6111,-17.6099,-17.5408,-17.3923,-17.0107,-16.6616,-16.3108,0.0,0.0,0.0,0.0,0.0,0.0,0.0,0.0,0.0,0.0,0.0,0.0,0.0,0.0,0.0,0.0,0.0,0.0,0.0,0.0,0.0,0.0,0.0,0.0,0.0,0.0,0.0,0.0,0.0,0.0,0.0,0.0,0.0,0.0,0.0,0.0,0.0,-15.2259,-15.5783,-15.4021,-15.4352,-15.2819,0.0,0.0,0.0,0.0,0.0,0.0,-14.0255,-14.2894,-14.5355,-14.728,-14.9187,-15.1258,-15.3267,-15.3102,-15.4432,-15.7061,-15.6449,-15.6831,-15.7914,-15.7914,-15.7779,-15.7576,-15.7034,-15.6223,-15.5005,-14.9727,-14.5397,-14.2014,-14.1202,-13.6986,-13.1188,-13.0672,-12.6898,-12.2365,0.0,0.0,0.0,0.0,0.0,0.0,0.0,0.0,0.0,0.0,0.0,-16.101,-16.3601,-16.6468,-16.7874,-16.7002,-16.811,-16.9915,-17.2316,-17.2168,-17.211,-17.2099,-17.2833,-17.2167,-17.0142,-16.9221,-16.9427,-17.0725,-17.0879,-17.1418,-17.2187,-17.311,-17.4418,-17.6,-17.3896,-17.2788,-17.2418,-17.1308,-16.8,-16.3493,-16.4109,0.0,0.0,0.0,0.0,0.0,0.0,0.0,0.0,0.0,0.0,0.0,0.0,0.0,0.0,0.0,0.0,0.0,0.0,0.0,0.0,0.0,0.0,0.0,0.0,0.0,0.0,0.0,0.0,0.0,0.0,0.0,0.0,0.0,0.0,0.0,0.0,0.0,0.0,-15.4902,-15.6054,0.0,0.0,0.0,0.0,-14.215,-14.2826,-14.4247,-14.6412,-14.8104,-15.0733,-15.4413,-15.7325,-16.0615,-16.4397,-16.3526,-16.3311,-16.3449,-16.1237,-16.0214,-16.0214,-16.0214,-15.9808,-15.9199,-15.9132,-15.832,-15.6493,-15.1216,-14.9389,-14.9321,-14.4382,-14.1566,-13.9981,-13.7841,-13.2755,-12.706,0.0,0.0,0.0,0.0,0.0,0.0,0.0,0.0,-15.2173,-15.8091,-16.1007,-16.4202,-16.8494,-16.8403,-16.8998,-17.1537,-17.1797,-17.2785,-17.479,-17.6432,-17.7188,-17.7188,-17.6999,-17.4935,-17.0904,-16.9103,-16.8368,-16.8571,-17.0187,-17.1187,-17.1495,-17.3418,-17.4726,-17.5188,-17.438,-17.311,-17.1462,-17.1368,-17.0481,-16.9033,-16.7725,-16.3724,0.0,0.0,0.0,0.0,0.0,0.0,0.0,0.0,0.0,0.0,0.0,0.0,0.0,0.0,0.0,0.0,0.0,0.0,0.0,0.0,0.0,0.0,0.0,0.0,0.0,0.0,0.0,0.0,0.0,0.0,0.0,0.0,0.0,0.0,0.0,0.0,0.0,-16.1583,-16.2907,0.0,-15.9501,-15.3111,-14.9132,-14.9132,-14.8438,-14.8983,-15.1216,-15.4748,-15.7827,-16.0584,-16.3731,-16.585,-16.7185,-16.7048,-16.5812,-16.3819,-16.2948,-16.1834,-16.0417,-16.0417,-16.0011,-15.9335,-15.9808,-15.9402,-15.832,-15.6493,-15.4193,-15.1419,-14.763,-14.4446,-14.1926,-13.9814,-13.6313,-13.2474,0.0,0.0,0.0,0.0,0.0,0.0,0.0,0.0,-15.2907,-15.9137,-16.2238,-16.5628,-17.0474,-16.9725,-17.0274,-17.3674,-17.3741,-17.4495,-17.6803,-17.8804,-18.0035,-18.0266,-17.9248,-17.637,-17.1518,-16.9845,-16.8524,-16.7571,-16.9879,-17.1264,-17.1879,-17.4495,-17.5572,-17.5572,-17.5572,-17.4572,-17.2692,-17.2287,-17.2208,-17.2187,-17.0494,-16.6878,-16.2416,0.0,0.0,0.0,0.0,0.0,0.0,0.0,0.0,0.0,0.0,0.0,0.0,0.0,0.0,0.0,0.0,0.0,0.0,0.0,0.0,0.0,0.0,0.0,0.0,0.0,0.0,0.0,0.0,0.0,0.0,0.0,0.0,0.0,0.0,-15.938,-16.4593,-16.6208,-16.82,-16.8405,-16.6018,-16.0202,-15.6643,-15.6488,-15.585,-15.638,-15.8653,-16.1871,-16.48,-16.7332,-16.9453,-17.0895,-17.1914,-17.0323,-16.8658,-16.6893,-16.4858,-16.3043,-16.151,-16.0481,-15.9808,-15.9335,-15.9808,-15.9808,-15.9335,-15.8996,-15.7034,-15.3787,-15.1283,-14.8507,-14.565,-14.3653,-14.0545,-13.7005,0.0,0.0,0.0,0.0,0.0,0.0,0.0,-14.8212,-15.1259,-15.9682,-16.2326,-16.5008,-16.9414,-17.0589,-17.1758,-17.3528,-17.3605,-17.499,-17.8265,-17.9265,-18.0223,-18.1138,-17.9403,-17.6604,-17.2374,-17.1486,-17.0205,-16.8494,-17.0187,-17.1879,-17.3572,-17.6111,-17.7342,-17.7342,-17.7342,-17.6803,-17.588,-17.4187,-17.311,-17.2418,-17.2418,-16.9802,-16.6109,0.0,0.0,0.0,0.0,0.0,0.0,0.0,0.0,0.0,0.0,0.0,0.0,0.0,0.0,0.0,0.0,0.0,0.0,0.0,0.0,0.0,0.0,0.0,0.0,0.0,0.0,0.0,0.0,0.0,0.0,0.0,0.0,0.0,-15.4829,-16.2464,-16.8117,-16.8263,-17.1402,-17.2024,-16.819,-16.5844,-16.4482,-16.4399,-16.5026,-16.6291,-16.8545,-16.9411,-17.1206,-17.4093,-17.4322,-17.5755,-17.8835,-17.4233,-17.2294,-17.2866,-16.6822,-16.3912,-16.3726,-16.0662,-15.9335,-15.9335,-15.9335,-15.9335,-15.9199,-15.8523,-15.7711,-15.6831,-15.5343,-15.3381,-15.1283,-14.9727,-14.5584,-14.0413,0.0,0.0,0.0,0.0,0.0,0.0,0.0,-15.0094,-15.3363,-16.0286,-16.3531,-16.7125,-17.1999,-17.2966,-17.4221,-17.6618,-17.569,-17.5231,-17.576,-17.7804,-17.9589,-18.1071,-17.8433,-17.566,-17.3324,-17.1237,-16.964,-16.8494,-17.0802,-17.2803,-17.4495,-17.6419,-17.7573,-17.8188,-17.7573,-17.6496,-17.5111,-17.4034,-17.4111,-17.4957,-17.4418,-17.2264,-16.9494,0.0,0.0,0.0,0.0,0.0,0.0,0.0,0.0,0.0,0.0,0.0,0.0,0.0,0.0,0.0,0.0,0.0,0.0,0.0,0.0,0.0,0.0,0.0,0.0,0.0,0.0,0.0,0.0,0.0,0.0,0.0,-15.6517,-15.9233,-16.0702,-16.5988,-17.1053,-17.4577,-17.6867,-17.7968,-17.7456,-17.3842,-17.1364,-17.1436,-17.0611,-17.0176,-17.0089,-17.2968,-17.4473,-17.4237,-17.5914,-17.6942,-17.7073,-17.5185,-17.3512,-17.2072,-16.809,-16.5412,-16.3726,-16.0662,-15.9335,-15.9335,-15.9335,-15.9335,-15.9199,-15.8523,-15.7711,-15.6696,-15.3584,-15.1689,-15.0472,-14.8374,-14.6556,-14.4957,0.0,0.0,0.0,0.0,0.0,0.0,0.0,-14.8979,-15.2327,-15.8733,-16.2012,-16.5912,-17.1392,-17.2759,-17.4097,-17.5696,-17.4664,-17.3912,-17.3792,-17.6496,-17.8338,-17.8796,-17.7382,-17.5778,-17.3936,-17.1471,-17.0472,-17.111,-17.2572,-17.4418,-17.6419,-17.7804,-17.8496,-17.8573,-17.7727,-17.6419,-17.4726,-17.388,-17.4264,-17.5495,-17.4572,-17.3418,-17.1879,-17.0571,-16.7109,-16.2878,-16.2416,-16.2416,-16.2416,-16.1108,0.0,0.0,0.0,0.0,0.0,0.0,0.0,0.0,0.0,0.0,0.0,0.0,0.0,0.0,0.0,0.0,0.0,0.0,0.0,0.0,0.0,0.0,0.0,0.0,-16.1362,-16.518,-16.7896,-17.0906,-17.4577,-17.9202,-18.1111,-18.2212,-18.2285,-17.9499,-17.7437,-17.7146,-17.5991,-17.5273,-17.5057,-17.7039,-17.7509,-17.62,-17.7236,-17.7293,-17.6412,-17.5311,-17.4162,-17.3145,-16.9098,-16.6555,-16.5053,-16.074,-15.8996,-15.9335,-15.8996,-15.8996,-15.9199,-15.8523,-15.7508,-15.6223,0.0,0.0,0.0,0.0,-14.6818,-14.6412,0.0,0.0,0.0,0.0,0.0,0.0,0.0,-14.6259,-14.9464,-15.5874,-15.9017,-16.2923,-16.9135,-17.1326,-17.2623,-17.3183,-17.2312,-17.1901,-17.2407,-17.5342,-17.6734,-17.6008,-17.6993,-17.6584,-17.4467,-17.252,-17.249,-17.4803,-17.488,-17.6188,-17.8573,-17.9496,-17.9419,-17.8573,-17.788,-17.6573,-17.4803,-17.4111,-17.4111,-17.4572,-17.388,-17.3572,-17.3418,-17.2726,-16.9879,-16.634,-16.634,-16.5493,-16.4186,-16.3185,0.0,0.0,0.0,0.0,0.0,0.0,0.0,0.0,0.0,0.0,0.0,0.0,0.0,0.0,0.0,0.0,0.0,0.0,0.0,0.0,0.0,0.0,0.0,0.0,-16.6501,-17.1126,-17.5311,-17.6632,-17.8394,-18.2065,-18.3827,-18.4488,-18.3827,-18.3019,-18.2212,-18.1478,-18.0817,-18.0597,-18.1331,-18.0523,0.0,0.0,0.0,-17.7,-17.6265,-17.4797,-17.443,-17.5095,-16.9816,-16.7242,-16.7,-16.1028,-15.8591,-15.9402,-15.8591,-15.8591,-15.9199,-15.832,-15.6899,-15.5072,-15.2975,-15.1419,-14.9863,-14.7901,-14.6683,-14.6006,0.0,0.0,0.0,0.0,0.0,0.0,0.0,-14.5716,-14.7927,-15.4599,-15.7679,-16.1978,-16.8964,-17.1593,-17.3543,-17.5264,-17.3188,-17.2056,-17.3177,-17.4495,-17.6271,-17.8485,-17.8392,-17.7676,-17.6199,-17.478,-17.4274,-17.4803,-17.5495,-17.6803,-17.8573,-17.9496,-17.9419,-17.8573,-17.9188,-17.7727,-17.4803,-17.5418,-17.488,-17.3803,-17.4264,-17.4111,-17.3495,-17.3264,-17.1495,-16.9033,-16.9033,-16.9725,-17.0187,-16.8032,-16.8186,-16.9187,-16.8725,-16.8032,0.0,0.0,0.0,0.0,0.0,0.0,0.0,0.0,0.0,0.0,0.0,0.0,0.0,0.0,0.0,0.0,0.0,0.0,0.0,-16.54,-16.9365,-17.399,-17.9422,-18.0817,-18.1625,-18.2359,-18.3313,-18.39,-18.368,-18.3019,-18.2432,-18.2285,-18.2065,-18.1771,-18.1331,-18.0523,-17.9422,-17.8027,-17.6486,-17.5605,-17.5384,-17.4503,-17.443,-17.5095,-16.9816,0.0,-16.7,-16.1028,-15.8861,-16.0079,-15.8793,-15.8591,-15.9132,-15.717,-15.4396,-15.1351,-15.0336,-14.9321,-14.8509,-14.8036,-14.7427,-14.6683,0.0,0.0,0.0,0.0,0.0,0.0,0.0,-14.3799,-14.6015,-15.1574,-15.5812,-16.047,-16.6291,-16.9864,-17.2096,-17.2582,-17.0692,-17.0192,-17.2066,-17.4264,-17.6579,-17.9234,-17.9713,-17.9471,-17.869,-17.6494,-17.5904,-17.6726,-17.7111,-17.8188,-17.9881,-17.9881,-17.9419,-17.8573,-17.7727,-17.6419,-17.4803,-17.4803,-17.4803,-17.4803,-17.5265,-17.5188,-17.4726,-17.3418,-17.2418,-17.1495,-17.111,-17.211,-17.3418,-17.2572,-17.311,-17.4187,-17.4187,-17.388,-17.3163,0.0,0.0,0.0,0.0,0.0,0.0,0.0,0.0,0.0,0.0,0.0,0.0,0.0,0.0,-15.9307,-16.0482,0.0,-16.7603,-17.0025,-17.3476,-17.7073,-18.0817,-18.1992,-18.2799,-18.3607,-18.4121,-18.4121,-18.368,-18.3019,-18.2726,-18.3093,-18.2726,-18.2285,-18.1918,-18.0377,-17.8908,-17.7734,-17.5678,-17.4577,-17.4577,-17.3769,-17.3769,-17.465,-17.0696,-16.8331,-16.7,-16.2549,-16.0419,-16.0282,-15.9199,-15.8793,-15.8523,-15.5884,-15.3516,-15.1283,-14.9795,-14.8712,-14.8104,-14.8104,-14.7427,-14.6277,0.0,0.0,0.0,0.0,0.0,0.0,0.0,-14.172,-14.4182,-14.8721,-15.335,-15.8097,-16.2627,-16.6501,-16.8519,-16.7803,-16.7279,-16.8109,-17.0802,-17.3957,-17.6996,-17.9725,-18.0977,-18.148,-18.0996,-17.8406,-17.7523,-17.8533,-17.8598,-17.9188,-18.0419,-17.9881,-17.9111,-17.8034,-17.6265,-17.5418,-17.4957,-17.4495,-17.5034,-17.6265,-17.6265,-17.6265,-17.6111,-17.4111,-17.3572,-17.388,-17.311,-17.3264,-17.4264,-17.5572,-17.6265,-17.6803,-17.8188,-17.8804,-17.8511,-17.5199,-17.4622,0.0,0.0,0.0,0.0,0.0,0.0,0.0,0.0,-16.0288,-15.8279,-16.1069,-16.2831,-16.4372,-16.6428,-16.9365,-17.2228,-17.421,-17.7,-17.9496,-18.1331,-18.2065,-18.3019,-18.4267,-18.4561,-18.4414,-18.3533,-18.3019,-18.3019,-18.368,-18.3093,-18.2579,-18.2285,-18.0083,-17.8468,-17.7513,-17.5091,-17.3769,-17.399,-17.3182,-17.3182,-17.399,-17.1686,-16.9386,-16.7086,-16.4105,-16.1948,-16.0282,-15.9199,-15.8185,-15.7305,-15.4463,-15.2772,-15.196,-14.9795,-14.8509,-14.7901,-14.7901,-14.6953,-14.56,0.0,0.0,0.0,0.0,0.0,0.0,0.0,0.0,-14.272,-14.7721,-15.0192,-15.3528,-15.9041,-16.0379,-16.1427,-16.2801,-16.4787,-16.7494,-17.0802,-17.3495,-17.6919,-18.1326,-18.2764,-18.3107,-18.2265,-18.1169,-17.9811,-17.8097,-17.8398,-17.8265,-17.7727,-17.8419,-17.788,-17.6419,-17.7573,-17.7265,-17.5957,-17.6573,-17.7034,-17.7188,-17.7188,-17.7188,-17.7111,-17.6803,-17.6419,-17.5726,-17.4803,-17.3187,-17.1879,-17.4957,-17.5111,-17.4495,-17.7573,-17.9573,-18.065,-17.9545,-17.7581,-17.5247,-17.1903,-16.8303,-16.6285,-17.0217,-16.6962,-16.4584,0.0,-16.7513,-16.4519,-16.841,-16.9878,-17.0613,-17.0906,-17.3622,-17.5825,-17.6119,-17.766,-17.9716,-18.1992,-18.2432,-18.2579,-18.2726,-18.3386,-18.3533,-18.2726,-18.324,-18.3607,-18.368,-18.3607,-18.2946,-18.1478,-17.9789,-17.8174,-17.6632,-17.421,-17.3329,-17.399,-17.3182,-17.3182,-17.399,-17.1686,-16.9386,-16.7086,-16.4105,-16.1948,-16.0214,-15.7508,-15.5884,-15.5005,-15.2704,-15.1283,-15.0472,-14.8915,-14.7765,-14.7089,-14.7089,-14.6209,-14.4721,0.0,0.0,0.0,0.0,0.0,0.0,0.0,0.0,0.0,-14.6798,-14.9798,-15.2943,-15.6668,-15.9471,-16.1339,-16.2031,-16.3493,-16.6724,-17.211,-17.388,-17.7519,-18.3477,-18.3778,-18.3331,-18.2217,-18.0329,-17.8726,-17.7195,-17.7905,-17.8447,-17.8804,-17.9188,-17.8419,-17.6837,-17.7321,-17.6835,-17.5782,-17.6062,-17.7066,-17.8505,-17.8698,-17.8804,-17.8727,-17.7727,-17.6496,-17.5418,-17.5495,-17.4495,0.0,-17.5418,-17.588,-17.6188,-17.9111,-17.9881,-17.9469,-17.8878,-17.68,-17.4043,-17.1202,-17.0711,-17.1279,-17.3317,-17.2136,-17.1425,-17.5072,-17.3812,-17.2111,-17.2949,-17.5217,-17.6892,-17.6033,-17.7734,-17.9275,-17.9275,-17.9789,-18.0597,-18.1698,-18.1771,-18.1478,-18.0523,-18.1478,-18.2432,-18.2505,-18.2799,-18.324,-18.368,-18.3313,-18.2505,-18.1404,-17.9275,-17.7587,-17.6412,-17.3622,-17.2668,-17.399,-17.2742,-17.2742,-17.399,-17.2998,-17.1387,-16.9065,-16.6123,-16.2248,-15.7711,-15.6425,-15.5005,-15.3381,-15.2501,-15.1486,-15.0269,-14.9186,-14.8036,-14.6886,-14.6006,-14.4788,-14.3367,0.0,0.0,0.0,0.0,0.0,0.0,0.0,0.0,0.0,0.0,-14.9106,-15.1875,-15.4491,-15.7877,-16.0185,-16.0723,-16.1724,-16.5109,-17.1725,-17.3418,-17.6969,-18.3422,-18.35,-18.304,-18.2108,-18.0173,-17.8535,-17.7108,-17.7912,-17.8629,-17.9015,-17.906,-17.8496,-17.7299,-17.7104,-17.6885,-17.6523,-17.6291,-17.753,-17.9621,-17.9323,-17.9496,-17.9727,-17.7496,-17.588,-17.4803,-17.4726,-17.3495,-17.2264,-17.4418,-17.5034,-17.5418,-17.8727,-17.9035,-17.8126,-17.7613,-17.5079,-17.2033,-17.0187,-17.1725,-17.4034,-17.488,-17.543,-17.6275,-17.8412,-17.8503,-17.798,-17.7529,-17.9926,-18.1592,-18.0217,-18.0817,-18.1625,-18.1331,-18.1331,-18.1184,-18.0964,-18.0964,-18.0377,-17.8761,-17.9422,-18.0303,-18.1111,-18.1771,-18.2505,-18.3313,-18.2579,-18.1698,-18.067,-17.8835,-17.722,-17.6119,-17.3402,-17.2742,-17.4283,-17.2742,-17.2742,-17.4283,-17.4063,-17.2783,-17.0551,-16.6813,-16.1829,-15.6223,-15.5817,-15.4599,-15.2907,-15.2231,-15.1216,-14.9998,-14.878,-14.7495,-14.6209,-14.4721,-14.3503,-14.2488,0.0,0.0,0.0,0.0,0.0,0.0,0.0,0.0,0.0,0.0,0.0,0.0,0.0,-15.3722,-15.5415,-15.7107,-15.88,-16.2262,0.0,-17.1033,-17.4728,-17.992,-18.1727,-18.2639,-18.2578,-18.2108,-18.06,-17.8094,-17.8879,-17.8356,-17.6808,-17.7196,-17.7419,-17.7299,-17.7828,-17.8382,-17.9079,-17.8305,-17.8924,-18.0317,-17.8244,-17.8419,-17.9496,-17.6188,-17.4803,-17.4495,-17.1956,-16.8494,-16.5801,-17.0725,-17.0802,-16.9571,-17.4726,-17.6803,-17.7188,-17.6385,-17.311,-16.9802,-16.9725,-17.0417,-17.1879,-17.5188,-17.6311,-17.7377,-18.0691,-18.1112,-18.1166,-18.292,-18.3963,-18.4118,-18.2718,-18.2432,-18.2212,-18.1404,-18.1331,-18.1037,-18.0156,-18.0083,-17.9496,-17.788,-17.7,-17.6926,-17.7807,-18.0009,-18.1698,-18.2505,-18.1771,-18.0597,-17.9055,-17.8174,-17.6926,-17.5311,-17.3622,-17.3476,-17.5091,-17.3622,-17.3622,-17.5238,-17.443,-17.2783,-17.0402,-16.5258,-16.0737,-15.6899,-15.5478,-15.4396,-15.3516,-15.1351,-14.9998,-14.9118,-14.6886,-14.5533,-14.4721,-14.3164,-14.2623,-14.2488,0.0,0.0,0.0,0.0,0.0,0.0,0.0,0.0,0.0,0.0,0.0,0.0,0.0,0.0,0.0,0.0,-15.803,-16.157,0.0,-16.9187,-17.2874,-17.7974,-17.877,-17.9364,-18.0078,-17.9366,-17.8698,-17.8111,-17.8392,-17.8508,-17.8382,-17.8579,-17.8312,-17.7828,-17.8332,-17.8466,-17.8414,-17.7186,-17.7655,-17.9127,-17.6609,-17.6034,-17.6111,-17.2726,-17.0725,-16.9417,0.0,-16.5801,-16.5724,-16.6878,-16.7032,-16.7417,-17.0802,-17.2033,-17.211,-17.1264,-17.1187,-17.1418,-17.1418,-17.3726,-17.7034,-18.0958,-18.2897,-18.4708,-18.8084,-18.8305,-18.7485,-18.6478,-18.4054,-18.1734,-18.018,-17.8713,-17.788,-17.8835,-18.067,-18.1771,-18.0964,-18.1771,-18.1111,-17.7293,-17.8027,-17.8101,-17.6192,-17.7293,-17.8835,-18.0817,-18.0156,-17.9716,-17.9716,-17.788,-17.6632,-17.5972,-17.3916,-17.3329,-17.443,-17.3329,-17.3329,-17.443,-17.3622,-17.1761,-16.8892,-16.5239,-16.2171,-15.9829,-15.6721,-15.5359,-15.5074,-15.2788,-15.0472,-14.8374,-14.7089,-14.56,-14.3976,-14.2962,-14.1947,-14.0999,0.0,0.0,0.0,0.0,0.0,0.0,0.0,0.0,0.0,0.0,0.0,0.0,0.0,0.0,0.0,0.0,0.0,-16.0569,-16.5186,0.0,-17.0401,-17.4939,-17.5657,-17.6634,-17.7812,-17.7265,-17.7179,-17.7428,-17.6582,-17.6508,-17.6976,-17.6536,-17.6214,-17.6004,-17.614,-17.6377,-17.662,-17.5105,-17.5325,-17.6422,-17.4072,-17.2986,-17.2416,-16.9238,-16.7186,0.0,-16.3108,-16.2878,-16.4109,-16.3801,-16.4109,-16.5032,-16.7879,-16.8802,-16.8802,-16.8571,-16.9725,-17.1264,-17.3187,-17.7034,-18.142,-18.5267,-18.8036,-19.0267,-19.2499,-19.2576,-19.1389,-18.8816,-18.4528,-18.0714,-17.8455,-17.5347,-17.3696,-17.5605,-17.744,-17.8908,-17.9936,-18.0377,-17.9642,-17.6706,-17.7,-17.6706,-17.4503,-17.4577,-17.5972,-17.8982,-17.8761,-17.8688,-17.9202,-17.7367,-17.6486,-17.6926,-17.4503,-17.3769,-17.4797,-17.3769,-17.3329,-17.3622,-17.3035,-17.1104,-16.7814,-16.5923,-16.3884,-16.1707,-15.8961,-15.7542,-15.6776,-15.3837,-15.1235,-14.896,-14.6712,-14.5127,-14.3976,-14.2962,-14.1608,-14.0323,0.0,0.0,0.0,0.0,0.0,0.0,0.0,0.0,0.0,0.0,0.0,0.0,0.0,0.0,0.0,0.0,0.0,0.0,0.0,0.0,0.0,-17.0582,-17.2404,-17.4228,-17.6015,-17.6015,-17.6093,-17.6093,-17.3992,-17.2882,-17.2709,-17.1466,-17.1438,-17.2154,-17.1821,-17.2561,-17.3983,-17.2327,-17.2015,-17.2517,-17.0775,-16.9503,-16.8524,-16.5494,-16.4416,-16.4032,-16.08,-16.0108,-16.1031,-16.18,-16.2185,-16.2801,-16.6032,-16.7109,-16.7263,-16.8417,-16.8802,-17.0033,-17.5188,-18.0266,-18.4882,-18.819,-19.1499,-19.3884,-19.3884,-19.3807,-19.2695,-18.9395,-18.4907,-18.0488,-17.7305,-17.2528,-16.9805,-17.2301,-17.2374,-17.3476,-17.744,-17.6632,-17.5898,-17.6412,-17.4503,-17.3109,-17.2888,-17.2228,-17.3402,-17.7293,-17.7587,-17.7587,-17.7734,-17.6926,-17.6779,-17.7734,-17.5311,-17.4797,-17.6265,-17.4797,-17.3622,-17.2815,-17.2815,-17.0883,-16.7317,-16.7167,-16.5591,-16.2898,-16.1943,-16.0586,-15.8877,-15.4472,-15.2056,-15.0741,-14.5802,-14.427,-14.4585,-14.3029,-14.1608,-14.0323,0.0,0.0,0.0,0.0,0.0,0.0,0.0,0.0,0.0,0.0,0.0,0.0,0.0,0.0,0.0,0.0,0.0,0.0,0.0,0.0,0.0,0.0,0.0,0.0,0.0,0.0,0.0,-17.4296,-17.3666,-17.2611,-17.0992,-17.0693,-17.073,-17.0896,-17.0809,-17.147,-17.2719,-17.1301,-17.0532,-16.9864,-16.7534,-16.5733,-16.4112,-16.1794,-16.0877,-16.08,-15.9877,-15.9723,-16.0185,-16.157,-16.3031,-16.4186,-16.5109,-16.5263,-16.6186,-17.0879,-17.2726,-17.4726,-18.1727,-18.6421,-18.996,-19.2806,-19.4114,-19.4884,-19.5499,-19.3191,-18.9809,-18.5935,-17.9143,-17.291,-16.9388,-16.7564,-16.7676,-17.1347,-17.5825,-17.9422,-18.1037,-18.1918,-18.1184,-17.7807,-17.788,-17.7293,-17.4797,-17.443,-17.5017,-17.6632,-17.6192,-17.6412,-17.7587,-17.7513,-17.7513,-17.7734,-17.5898,-17.5091,-17.5531,-17.4503,-17.3622,-17.2815,-17.2815,-17.1728,-16.949,-16.8562,-16.805,-16.82,-16.4168,-16.2256,-16.208,-15.748,-15.3633,-15.0152,-14.7841,-14.5718,-14.3706,-14.1676,-14.0593,-14.0188,0.0,0.0,0.0,0.0,0.0,0.0,0.0,0.0,0.0,0.0,0.0,0.0,0.0,0.0,0.0,0.0,0.0,0.0,0.0,0.0,0.0,0.0,0.0,0.0,0.0,0.0,0.0,0.0,0.0,0.0,-16.7833,-16.752,-16.7286,-16.7286,-16.6896,-16.7633,-16.8828,-16.7315,-16.6666,0.0,0.0,-16.2484,-16.1239,-15.9623,-15.9031,-15.9108,-15.9492,-16.0108,-16.1031,-16.3108,-16.5186,-16.6955,-16.7263,-16.8494,-17.0571,-17.5418,-17.7496,-17.9496,-18.5574,-19.0114,-19.3499,-19.573,-19.6192,-19.5807,-19.4422,-19.1729,-18.7805,-18.2112,-17.5089,-16.9233,-16.6897,-16.4809,-16.5107,-17.0245,-17.4724,-17.8615,-18.1625,-18.2432,-18.2065,-18.0009,-18.0009,-17.9349,-17.7513,-17.7,-17.6926,-17.7,-17.6192,-17.6339,-17.7587,-17.7734,-17.788,-17.8174,-17.6339,-17.5017,-17.4724,-17.421,-17.3402,-17.2301,-17.2595,-17.1787,-16.9952,-16.9866,-16.9571,-16.9224,-16.5879,-16.4283,-16.3622,-15.8637,-15.4795,-15.1731,-14.8577,-14.5897,-14.3503,-14.1541,-14.0796,-14.0796,0.0,0.0,0.0,0.0,0.0,0.0,0.0,0.0,0.0,0.0,0.0,0.0,0.0,0.0,0.0,0.0,0.0,0.0,0.0,0.0,0.0,0.0,0.0,0.0,0.0,0.0,-16.7264,-16.7968,-16.5625,-16.4375,0.0,0.0,-16.2968,-16.289,-16.2187,-16.2812,-16.4218,-16.2578,-16.2422,-16.281,-16.1317,-16.0169,-15.9312,0.0,-15.8107,-15.8261,-15.9415,-16.08,-16.2724,-16.534,-16.7802,-16.9879,-17.111,-17.3726,-17.6957,-18.0727,-18.242,-18.4112,-18.8575,-19.2806,-19.6115,-19.7423,-19.7577,-19.6192,-19.1729,-18.9113,-18.5497,-17.7573,-17.1773,-16.7686,-16.6381,-16.3082,-16.2931,-16.9772,-17.1997,-17.4871,-18.1111,-18.1184,-18.1111,-18.2505,-18.1404,-18.0597,-18.0597,-17.9789,-17.8982,-17.8394,-17.7293,-17.7073,-17.7807,-17.788,-17.8101,-17.8615,-17.6486,-17.4871,-17.399,-17.399,-17.3182,-17.1787,-17.2521,-17.164,-16.9585,-17.098,-17.0319,-16.8117,-16.7309,-16.5914,-16.3875,-15.9043,-15.5907,-15.3632,-14.8981,-14.5743,-14.3503,-14.2014,-14.1473,-14.1473,0.0,0.0,0.0,0.0,0.0,0.0,0.0,0.0,0.0,0.0,0.0,0.0,0.0,0.0,0.0,0.0,0.0,0.0,0.0,0.0,0.0,0.0,0.0,0.0,0.0,-16.5113,-16.5499,-16.5312,-16.4062,-16.3203,0.0,-16.1562,-16.1171,-16.1171,-16.1093,-16.1562,-16.25,-16.2187,-16.1718,-16.1169,-16.0225,-15.9328,-15.8363,-15.7597,0.0,0.0,-15.9877,-16.18,-16.3724,-16.6878,-16.8802,-17.0187,-17.3187,-17.5495,-17.8188,-18.3728,-18.5882,-18.8036,-19.4268,-19.7577,-19.9115,-19.8808,-19.7577,-19.4884,-18.8498,-18.4728,-17.9881,-17.0802,-16.7276,-16.4964,-16.2029,-16.076,-16.3314,-17.254,-17.3321,-17.5678,-18.4121,-18.3974,-18.324,-18.3533,-18.324,-18.3093,-18.3093,-18.1698,-18.1111,-18.1625,-17.9716,-17.8468,-17.8688,-17.8688,-17.8101,-17.6926,-17.6412,-17.5458,-17.399,-17.399,-17.3476,-17.2595,-17.2742,-17.2228,-17.12,-17.1494,-17.0613,-16.8924,-16.8117,-16.6061,-16.3198,-16.0893,-15.7122,-15.2373,-15.0153,-14.7035,-14.3503,-14.2014,-14.1473,-14.1473,0.0,0.0,0.0,0.0,0.0,0.0,0.0,0.0,0.0,0.0,0.0,0.0,0.0,0.0,0.0,0.0,0.0,0.0,0.0,0.0,0.0,0.0,0.0,0.0,0.0,-16.3402,-16.3636,-16.3633,0.0,-16.2578,-16.2734,-16.2265,-16.1562,-16.0781,-16.0781,-16.0781,-16.0703,-16.0703,-16.0468,-16.0075,-15.968,-15.9313,-15.8907,0.0,0.0,0.0,-16.1108,-16.257,-16.457,-16.8032,-17.0571,-17.2956,-17.6419,-17.9804,-18.3497,-18.8113,-19.0421,-19.2499,-19.7038,-19.9192,-20.0039,-19.9577,-19.6884,-19.2499,-18.5805,-18.0881,-17.5418,-16.7032,-16.4169,-16.2766,-16.1202,-16.1505,-16.403,-16.9928,-17.1301,-17.421,-18.1918,-18.1992,-18.2285,-18.5222,-18.5222,-18.5075,-18.5515,-18.4488,-18.3607,-18.3166,-18.2065,-18.1037,-18.023,-17.9789,-17.8615,-17.6486,-17.6412,-17.5825,-17.4577,-17.3769,-17.3182,-17.2815,-17.2374,-17.1494,-17.0392,-17.0833,-16.9878,-16.7896,-16.7089,-16.54,-16.2978,-16.0922,-15.7802,-15.4101,-15.0988,-14.7664,-14.4504,-14.2663,-14.2285,-14.2623,0.0,0.0,0.0,0.0,0.0,0.0,0.0,0.0,0.0,0.0,0.0,0.0,0.0,0.0,0.0,0.0,0.0,0.0,0.0,0.0,0.0,0.0,0.0,0.0,0.0,0.0,0.0,-16.2563,-16.2021,0.0,0.0,0.0,0.0,0.0,-16.1093,-16.0703,-16.0,-16.0,-16.0,0.0,0.0,-15.9765,0.0,0.0,0.0,0.0,0.0,-16.3493,-16.5493,-16.8802,-17.1879,-17.4803,-17.7804,-18.2574,-18.7498,-19.0498,-19.3037,-19.5499,-19.8577,-20.0039,-20.0577,-20.0423,-19.6423,-19.0575,-18.3266,-17.7804,-17.2033,-16.4186,-16.2121,-16.1737,-16.1815,-16.2009,-16.3359,-16.7185,-16.7796,-17.0686,-17.8908,-17.9422,-18.0964,-18.6617,-18.6984,-18.6984,-18.7277,-18.6617,-18.5515,-18.4121,-18.3607,-18.2726,-18.1111,-18.0597,-17.9202,-17.6779,-17.6706,-17.6265,-17.5531,-17.3916,-17.3109,-17.3329,-17.2007,-17.0833,-16.9732,-16.9805,-16.8777,-16.6722,-16.5767,-16.4372,-16.2684,-16.0335,-15.776,-15.533,-15.1593,-14.82,-14.5207,-14.3902,-14.3613,-14.3638,0.0,0.0,0.0,0.0,0.0,0.0,0.0,0.0,0.0,0.0,0.0,0.0,0.0,0.0,0.0,0.0,0.0,0.0,0.0,0.0,0.0,0.0,0.0,0.0,0.0,0.0,0.0,-16.2107,-16.1328,0.0,0.0,0.0,0.0,0.0,0.0,-16.1796,-16.1796,-16.1796,0.0,0.0,0.0,0.0,0.0,0.0,0.0,0.0,0.0,-16.4416,-16.634,-16.9725,-17.1572,-17.288,-17.4726,-17.9804,-18.5497,-18.7421,-19.0806,-19.5038,-19.9808,-20.1808,-20.227,-20.15,-19.6884,-19.0114,-18.1035,-17.5572,-17.011,-16.1724,-16.1123,-16.2289,-16.3058,-15.9669,-15.9416,-16.7782,-16.3685,-16.4299,-17.8101,-17.9422,-18.0964,-18.6617,-18.8525,-18.8819,-18.7424,-18.6617,-18.5662,-18.4928,-18.3386,-18.1918,-18.0303,-18.0817,-18.0083,-17.7734,-17.7587,-17.722,-17.6265,-17.4724,-17.4283,-17.4944,-17.1934,-17.0833,-17.1347,-16.9218,-16.7676,-16.6722,-16.518,-16.3565,-16.1803,-15.938,-15.644,-15.3089,-15.2013,-14.8712,-14.475,-14.5899,-14.5139,-14.3706,0.0,0.0,0.0,0.0,0.0,0.0,0.0,0.0,0.0,0.0,0.0,0.0,0.0,0.0,0.0,0.0,0.0,0.0,0.0,0.0,0.0,0.0,0.0,0.0,0.0,0.0,-16.0278,-16.0882,-16.2415,0.0,0.0,0.0,0.0,0.0,0.0,-16.3281,-16.2812,-16.2265,0.0,0.0,0.0,0.0,0.0,0.0,0.0,0.0,0.0,0.0,-16.6878,-16.8263,-16.9571,-17.0494,-16.911,-17.3033,-17.9188,-18.5036,-18.9421,-19.3499,-19.9115,-20.1577,-20.2501,-20.1577,-19.5807,-18.8421,-18.1574,-17.488,-16.8263,-16.2262,-16.157,-16.2108,-16.1877,-16.0169,-15.9557,-16.1622,-15.9488,-16.0628,-16.9365,-17.0392,-17.3476,-18.2579,-18.4267,-18.5295,-18.7131,-18.6984,-18.6103,-18.4341,-18.2726,-18.1257,-18.0156,-18.0377,-17.9716,-17.7807,-17.7734,-17.7513,-17.722,-17.4577,-17.3696,-17.443,-17.12,-16.9805,-17.0099,-16.819,-16.6795,-16.5988,-16.4372,-16.2684,-16.0995,-15.9087,-15.7166,-15.5142,-15.2054,-15.0381,-14.9276,-14.74,-14.653,-14.5998,0.0,0.0,0.0,0.0,0.0,0.0,0.0,0.0,0.0,0.0,0.0,0.0,0.0,0.0,0.0,0.0,0.0,0.0,0.0,0.0,0.0,0.0,0.0,0.0,0.0,0.0,-16.007,-16.0394,-16.3195,-16.5234,0.0,0.0,-16.7421,-16.7031,0.0,0.0,0.0,0.0,0.0,0.0,0.0,0.0,0.0,0.0,0.0,0.0,0.0,0.0,0.0,0.0,0.0,-16.8186,-16.5801,-16.7725,-17.2418,-17.9881,-18.6113,-19.1575,-19.6499,-20.0192,-20.2578,-20.1885,-19.5038,-18.7113,-18.2189,-17.4418,-16.6878,-16.257,-16.1877,-16.1877,-16.1031,-16.0403,-15.9517,-15.8095,-15.6523,-15.7732,-16.3923,-16.4299,-16.7529,-17.7,-17.8321,-18.0009,-18.4121,-18.5809,-18.5736,-18.3533,-18.2065,-18.089,-18.0083,-17.9863,-17.9202,-17.8101,-17.8101,-17.788,-17.7734,-17.4871,-17.3696,-17.399,-17.098,-16.9291,-16.8777,-16.7162,-16.5914,-16.4813,-16.3198,-16.1509,-15.9894,-15.8499,-15.7104,-15.5366,-15.2478,-15.1687,-15.1805,-14.8607,-14.7686,-14.7628,0.0,0.0,0.0,0.0,0.0,0.0,0.0,0.0,0.0,0.0,0.0,0.0,0.0,0.0,0.0,0.0,0.0,0.0,0.0,0.0,0.0,0.0,0.0,0.0,0.0,0.0,-15.9062,-16.0781,-16.3281,-16.5468,-16.7187,-16.8125,-16.8906,-16.9687,0.0,0.0,0.0,0.0,0.0,0.0,0.0,0.0,0.0,0.0,0.0,0.0,0.0,0.0,0.0,0.0,0.0,0.0,0.0,-16.5417,-16.5801,-17.0879,-18.0189,-18.9267,-19.1883,-19.75,-20.2654,-20.2654,-19.5038,-18.6421,-18.2112,-17.388,-16.6032,-16.18,-16.1493,-16.1877,-16.1031,-15.9231,-15.8219,-15.9441,-15.5184,-15.503,-16.4273,-16.4226,-16.5033,-16.9878,-17.12,-17.3329,-17.744,-18.2138,-18.4267,-18.2579,-18.1771,-18.089,-18.0083,-17.9275,-17.8908,-17.8908,-17.8908,-17.8468,-17.7734,-17.6045,-17.4797,-17.399,-17.1494,-16.9585,-16.797,-16.6281,-16.4739,-16.3124,-16.1509,-15.9821,-15.8279,-15.7398,-15.5196,-15.2406,-15.3214,-15.2299,-15.0362,-14.9788,-14.8914,-14.7628,0.0,0.0,0.0,0.0,0.0,0.0,0.0,0.0,0.0,0.0,0.0,0.0,0.0,0.0,0.0,0.0,0.0,0.0,0.0,0.0,0.0,0.0,0.0,0.0,0.0,0.0,-15.8828,-15.9922,-16.4296,-16.7031,-16.8125,-17.0234,-17.1171,-17.1484,-17.0625,-16.9765,0.0,0.0,0.0,0.0,0.0,0.0,0.0,0.0,0.0,0.0,0.0,0.0,0.0,0.0,0.0,0.0,0.0,0.0,0.0,-16.6571,-17.2803,-18.0035,-18.3728,-18.7575,-19.0498,-19.0498,-18.5113,-17.8881,-17.5803,-16.9571,-16.3724,-16.0569,-16.0185,-16.0262,-16.0108,-15.9231,-15.8407,-15.8006,-15.6308,-15.6144,-15.9275,-16.1803,-16.562,-17.2081,-17.8027,-18.1771,-18.2505,-18.3019,-18.2799,-18.1771,-18.089,-17.9863,-17.8468,-17.8174,-17.8321,-17.8908,-17.8908,-17.8468,-17.7734,-17.5531,-17.399,-17.3182,-17.0686,-16.8997,-16.7896,-16.6281,-16.4739,-16.3124,-16.0849,-15.9307,-15.8206,-15.6811,-15.5416,-15.3874,-15.2993,-15.2614,-15.2436,-15.0722,-15.0311,-15.0001,0.0,0.0,0.0,0.0,0.0,0.0,0.0,0.0,0.0,0.0,0.0,0.0,0.0,0.0,0.0,0.0,0.0,0.0,0.0,0.0,0.0,0.0,0.0,0.0,0.0,-15.7968,-15.9375,-16.0,-16.5234,-16.8125,-16.9062,-17.1875,-17.3515,-17.3671,-17.289,-17.2031,0.0,0.0,0.0,0.0,0.0,0.0,-16.257,0.0,0.0,0.0,0.0,0.0,0.0,0.0,0.0,0.0,0.0,0.0,0.0,0.0,-16.7725,-17.2033,-17.688,-18.1035,-18.4036,-18.4036,-17.9496,-17.4572,-17.2726,-16.7725,-16.2878,-16.1416,-16.1031,-16.1031,-16.1031,-16.0272,-15.9601,-15.9318,-15.7415,-15.6707,-15.8462,-16.1207,-16.5089,-17.0974,-17.8101,-18.1992,-18.089,-18.2065,-18.2505,-18.1404,-18.0597,-17.9422,-17.7807,-17.7734,-17.7807,-17.8027,-17.8027,-17.7734,-17.722,-17.5091,-17.3402,-17.2301,-17.0539,-16.8777,-16.7089,-16.5694,-16.3932,-16.173,-15.9527,-15.7985,0.0,-15.5489,-15.4535,-15.3654,-15.2406,-15.2479,-15.3189,-15.0806,-15.0495,-15.08,0.0,0.0,0.0,0.0,0.0,0.0,0.0,0.0,0.0,0.0,0.0,0.0,0.0,0.0,0.0,0.0,0.0,0.0,0.0,0.0,0.0,0.0,0.0,0.0,0.0,-15.8984,-16.0703,-16.0781,-16.6015,-16.8906,-16.9921,-17.3437,-17.539,-17.6171,-17.539,-17.4375,0.0,0.0,0.0,0.0,0.0,0.0,0.0,0.0,0.0,0.0,0.0,0.0,0.0,0.0,0.0,0.0,0.0,0.0,0.0,0.0,0.0,0.0,0.0,-17.6803,-18.1112,-18.1112,-17.688,-17.2572,-17.1802,-16.7186,0.0,-16.3108,-16.3031,-16.3031,-16.3031,-16.18,-16.1129,-16.2235,-15.8495,-15.6822,-16.0501,-16.2187,-16.452,-16.8316,-17.3622,-17.6265,-17.4503,-18.0009,-18.3019,-18.1404,-18.0523,-17.9275,-17.7734,-17.7587,-17.722,-17.6339,-17.6265,-17.6192,-17.6192,-17.4724,-17.3109,-17.142,-17.0613,-16.863,-16.5474,-16.4593,-16.2464,-15.9307,-15.7692,-15.6003,-15.4608,-15.3801,-15.2993,-15.2186,-15.1525,-15.2112,-15.303,-15.0285,-14.9832,-15.0138,0.0,0.0,0.0,0.0,0.0,0.0,0.0,0.0,0.0,0.0,0.0,0.0,0.0,0.0,0.0,0.0,0.0,0.0,0.0,0.0,0.0,0.0,0.0,0.0,0.0,-15.8437,-16.0078,-16.0781,-16.6015,-16.8906,-16.9921,-17.3984,-17.6015,-17.6171,-17.6015,0.0,0.0,0.0,0.0,0.0,0.0,0.0,0.0,0.0,0.0,0.0,-16.7306,-16.7369,0.0,0.0,0.0,0.0,0.0,0.0,0.0,0.0,-16.4724,0.0,0.0,0.0,-16.8879,-16.8879,-16.7263,-16.5493,0.0,-16.2878,-16.1108,-15.98,-15.9492,-15.9262,-15.8723,-15.9262,-15.9669,-15.8991,-15.7847,-15.7278,-15.761,-16.3924,-17.05,-17.5748,-18.023,-18.1478,-17.8101,-18.0817,-18.2359,-18.1404,-18.0009,-17.8468,-17.6779,-17.6119,-17.5678,-17.5531,-17.4871,-17.4577,-17.4577,-17.3622,-17.2007,-16.9805,-16.8924,-16.7162,-16.4593,-16.3198,-16.1069,-15.8499,-15.6224,-15.4682,-15.3801,-15.3581,-15.2993,-15.2259,-15.2112,-15.1892,-15.1612,-15.0953,-15.0768,-15.0728,0.0,0.0,0.0,0.0,0.0,0.0,0.0,0.0,0.0,0.0,0.0,0.0,0.0,0.0,0.0,0.0,0.0,0.0,0.0,0.0,0.0,0.0,0.0,0.0,0.0,0.0,-16.1093,-16.1875,-16.6718,-16.9531,-17.0468,-17.4765,-17.6796,-17.6796,-17.6796,0.0,0.0,0.0,0.0,0.0,-16.5611,0.0,0.0,0.0,0.0,0.0,-16.7825,-16.7889,0.0,-16.8279,-16.7281,-16.6072,0.0,0.0,0.0,0.0,-16.4416,0.0,-16.2493,-16.2801,-16.3493,-16.3493,-16.3493,-16.3185,-16.2339,-16.18,-16.1416,-16.1262,-16.0262,-15.9723,-16.0493,-15.9723,-15.9413,-16.068,-15.9001,-15.8494,-16.1411,-16.6345,-17.214,-17.8756,-18.0964,-18.1698,-18.067,-18.1111,-18.1184,-18.0817,-17.8908,-17.7367,-17.6412,-17.5605,-17.5017,-17.4724,-17.3916,-17.3622,-17.399,-17.2521,-17.0906,-16.9218,-16.7603,-16.5767,-16.3785,-16.2097,-15.9821,-15.7104,-15.4976,-15.3874,-15.3434,-15.27,-15.2626,-15.2773,-15.1966,-15.1525,-15.1085,-15.0718,-15.0497,-15.0377,0.0,0.0,0.0,0.0,0.0,0.0,0.0,0.0,0.0,0.0,0.0,0.0,0.0,0.0,0.0,0.0,0.0,0.0,0.0,0.0,0.0,0.0,0.0,0.0,0.0,0.0,0.0,0.0,0.0,-17.0468,-17.1562,-17.5625,-17.75,-17.75,-17.75,0.0,0.0,0.0,0.0,0.0,-16.5819,0.0,0.0,0.0,0.0,0.0,0.0,0.0,0.0,-16.8909,-16.7825,-16.6571,-16.7175,0.0,0.0,0.0,0.0,0.0,-16.2493,-16.257,-16.2801,-16.257,-16.2878,-16.3108,-16.257,-16.2185,-16.2416,-16.4032,-16.2416,-16.1339,-16.3262,-16.1185,-16.0108,-16.3416,-16.0784,-16.0926,-16.8105,-16.9276,-17.1984,-17.89,-17.9569,-18.0083,-18.1625,-18.0817,-18.0009,-17.9863,-17.7587,-17.6192,-17.6192,-17.5531,-17.4577,-17.3769,-17.3182,-17.2962,-17.3255,-17.142,-16.9878,-16.8777,-16.6575,-16.4593,-16.2831,-16.1069,-15.8573,-15.5563,-15.4021,-15.3214,-15.2993,-15.1672,-15.1892,-15.2993,-15.1598,-15.1085,-15.1011,-15.0204,-14.991,-14.991,0.0,0.0,0.0,0.0,0.0,0.0,0.0,0.0,0.0,0.0,0.0,0.0,0.0,0.0,0.0,0.0,0.0,0.0,0.0,0.0,0.0,0.0,0.0,0.0,0.0,0.0,0.0,0.0,0.0,0.0,-17.3281,-17.6171,-17.75,-17.75,-17.75,0.0,0.0,0.0,0.0,0.0,-16.8319,0.0,0.0,0.0,0.0,0.0,0.0,0.0,0.0,-16.8094,-16.7129,-16.5993,-16.5841,0.0,0.0,0.0,0.0,0.0,-16.3185,-16.4801,-16.6109,-16.4724,-16.3262,-16.2724,-16.4032,-16.257,-16.1416,-16.2339,-16.1108,-15.9723,-15.9262,-16.1108,-16.2108,-16.0569,-16.2512,-16.6529,-17.3413,-17.3505,-17.4186,-17.7724,-18.0377,-18.0964,-17.8688,-17.9422,-17.9789,-17.9128,-17.6779,-17.5384,-17.5384,-17.4577,-17.3769,-17.3035,-17.2888,-17.1934,-17.0025,-17.0172,-16.9291,-16.7162,-16.6134,-16.4005,-16.0995,-15.938,-15.7325,-15.4829,-15.3214,-15.2112,-15.1378,-15.1231,-15.1231,-15.1378,-15.1231,-15.1085,-15.1011,-15.0204,-14.991,-14.991,0.0,0.0,0.0,0.0,0.0,0.0,0.0,0.0,0.0,0.0,0.0,0.0,0.0,0.0,0.0,0.0,0.0,0.0,0.0,0.0,0.0,0.0,0.0,0.0,0.0,0.0,0.0,0.0,0.0,-17.2187,-17.4375,-17.7031,-17.8203,-17.8203,0.0,0.0,-17.3584,0.0,0.0,0.0,0.0,0.0,0.0,0.0,0.0,0.0,0.0,0.0,0.0,0.0,-16.7211,-16.5896,-16.5669,0.0,0.0,0.0,0.0,0.0,-16.1493,-16.2185,-16.3493,-16.5032,-16.5801,-16.5801,-16.4262,-16.3108,-16.2185,-16.2108,-16.0031,-15.8723,-16.0108,-16.157,-16.3493,-16.6109,-16.9884,-17.3198,-17.5302,-17.5121,-17.5678,-17.8084,-17.8908,-17.9128,-17.8982,-17.8908,-17.8615,-17.8321,-17.5972,-17.4724,-17.5238,-17.443,-17.3622,-17.2815,-17.2007,-17.0759,-16.9218,-16.8704,-16.7676,-16.6134,-16.4372,-16.261,-16.0628,-15.8573,-15.6591,-15.4608,-15.2993,-15.2112,-15.1672,-15.1305,-15.1085,-15.1085,-15.1085,-15.0791,-15.0424,-14.9983,-14.991,-14.991,0.0,0.0,0.0,0.0,0.0,0.0,0.0,0.0,0.0,0.0,0.0,0.0,0.0,0.0,0.0,0.0,0.0,0.0,0.0,0.0,0.0,0.0,0.0,0.0,0.0,0.0,0.0,-16.7812,-17.0625,-17.3281,-17.5937,-17.8125,-17.8984,0.0,0.0,0.0,0.0,-17.367,0.0,0.0,0.0,0.0,0.0,0.0,0.0,0.0,0.0,0.0,0.0,0.0,0.0,0.0,0.0,0.0,0.0,-16.2108,-16.18,-16.157,-16.0493,-16.0877,-16.2262,-16.5032,-16.7109,-16.8032,-16.5878,-16.5186,-16.4801,-16.4493,-16.2031,-16.0416,-16.257,-16.3493,-16.5801,-17.1572,-17.6496,-17.8878,-17.7342,-17.7059,-17.7702,-17.8963,-17.8027,-17.788,-17.9716,-17.8468,-17.7513,-17.7146,-17.5164,-17.4283,-17.4871,-17.421,-17.3255,-17.2301,-17.0906,-16.9585,-16.841,-16.6868,-16.5914,-16.5327,-16.3198,-16.1509,-16.0114,-15.7985,-15.6077,-15.4315,-15.292,-15.2186,-15.1966,-15.1158,-15.0791,-15.0791,-15.0791,-15.0424,-14.991,-14.991,-14.991,-14.991,0.0,0.0,0.0,0.0,0.0,0.0,0.0,0.0,0.0,0.0,0.0,0.0,0.0,0.0,0.0,0.0,0.0,0.0,0.0,0.0,0.0,0.0,0.0,0.0,0.0,-16.4375,-16.789,-16.9609,-17.2968,-17.6015,-17.8515,-17.9531,-17.9609,-17.8828,0.0,0.0,-17.5379,-17.4529,-17.374,0.0,0.0,0.0,0.0,0.0,0.0,0.0,0.0,0.0,0.0,0.0,0.0,0.0,0.0,0.0,-16.2031,-16.1185,-16.257,-16.4109,-16.2416,-16.4801,-16.7417,-16.5263,-16.4878,-16.6186,-17.0725,-17.0417,-16.9725,-17.1187,-16.9494,-16.7263,-16.5878,-16.7571,-17.011,-17.288,-17.8342,-18.2021,-18.1552,-18.151,-18.1076,-18.0066,-17.9863,-17.9569,-17.8982,-17.8174,-17.7073,-17.5531,-17.4503,-17.399,-17.4063,-17.3329,-17.2228,-17.0613,-16.9732,-16.819,-16.5914,-16.496,-16.4519,-16.4519,-16.3491,-16.1509,-15.8426,-15.7472,-15.5783,-15.3507,-15.27,-15.1892,-15.1085,-15.0277,-14.9983,-14.9983,-14.9983,-14.9983,-14.991,-14.991,-14.991,-14.991,0.0,0.0,0.0,0.0,0.0,0.0,0.0,0.0,0.0,0.0,0.0,0.0,0.0,0.0,0.0,0.0,0.0,0.0,0.0,0.0,0.0,0.0,0.0,-15.9568,-16.22,-16.6009,-16.9062,-17.1406,-17.4765,-17.7031,-17.7968,-17.9375,0.0,0.0,0.0,-17.8277,-17.7476,-17.607,-17.4976,-17.4117,0.0,0.0,0.0,0.0,0.0,0.0,0.0,0.0,0.0,0.0,-16.6271,-16.4915,-16.3825,-16.2987,-16.2284,-16.1184,-16.1185,-16.1416,-16.0723,-16.2108,-16.4032,-16.5186,-16.5417,-16.6417,-16.9879,-17.1418,-17.2264,-17.288,-17.2264,-17.1264,-17.011,-17.2418,-17.5265,-17.7804,-18.242,-18.5399,-18.4761,-18.3975,-18.2753,-18.0878,-17.9387,-17.8321,-17.7367,-17.6632,-17.5898,-17.5238,-17.4503,-17.3769,-17.3329,-17.2521,-17.1273,-16.9732,-16.7896,-16.6281,-16.4886,-16.2978,-16.1803,-16.1289,-16.0995,-15.9968,-15.8279,-15.6884,-15.5269,-15.3507,-15.2626,-15.1819,-15.1011,-15.0204,-14.991,-14.991,-14.991,-14.991,-14.991,-14.991,-14.991,-14.9983,0.0,0.0,0.0,0.0,0.0,0.0,0.0,0.0,0.0,0.0,0.0,0.0,0.0,0.0,0.0,0.0,0.0,0.0,0.0,0.0,0.0,0.0,0.0,-16.0533,-16.4296,-16.7405,-17.0234,-17.2734,-17.6171,-17.789,-17.789,0.0,0.0,0.0,0.0,-17.8984,-17.9062,-17.7421,-17.6328,0.0,0.0,0.0,0.0,0.0,0.0,0.0,0.0,0.0,0.0,0.0,-16.6377,-16.5122,-16.3804,-16.3219,-16.2662,-16.1381,-16.1094,-16.0997,-16.0008,-16.0772,-16.2333,-16.4171,-16.5493,-16.734,-17.0879,-17.3495,-17.5495,-17.6803,-17.5418,-17.3572,-17.2495,-17.4572,-17.7111,-17.8804,-18.3574,-18.6819,-18.5782,-18.4902,-18.3383,-18.1068,-17.9097,-17.7606,-17.6795,-17.5804,-17.5091,-17.4797,-17.4063,-17.3329,-17.2521,-17.12,-16.9732,-16.8117,-16.5988,-16.4299,-16.3198,-16.1289,-15.9894,-15.9087,-15.8573,-15.8132,-15.7472,-15.637,-15.4902,-15.3067,-15.2479,-15.1672,-15.0718,-15.0057,-14.991,-14.991,-14.991,-14.991,-14.991,-14.991,-14.991,-14.9983,0.0,0.0,0.0,0.0,0.0,0.0,0.0,0.0,0.0,0.0,0.0,0.0,0.0,0.0,0.0,0.0,0.0,0.0,0.0,0.0,0.0,0.0,0.0,-16.139,-16.5163,-16.8264,-17.1093,-17.3593,-17.7109,-17.8828,-17.8828,-17.8828,0.0,0.0,0.0,-17.9296,-18.0,-17.8281,0.0,0.0,0.0,0.0,0.0,0.0,0.0,0.0,0.0,0.0,0.0,0.0,-16.6377,-16.5122,-16.3804,-16.336,-16.3124,-16.1909,-16.297,-16.3868,-16.1034,-16.2093,-16.3703,-16.2523,-16.4724,-16.8802,-17.4803,-17.7419,-17.9804,-18.4112,-17.9573,-17.4418,-17.2726,-17.3726,-17.488,-17.488,-18.1189,-18.5705,-18.4223,-18.397,-18.321,-18.0891,-17.9404,-17.8225,-17.7406,-17.5962,-17.4797,-17.399,-17.3182,-17.2374,-17.1567,-16.9291,-16.7162,-16.562,-16.4005,-16.239,-16.0702,-15.9894,-15.9087,-15.8279,-15.6664,-15.5856,-15.5856,-15.5856,-15.4608,-15.2259,-15.2259,-15.1378,-14.991,-14.991,-14.991,-14.991,-14.991,-14.991,-14.991,-14.991,-14.991,-14.9983,0.0,0.0,0.0,0.0,0.0,0.0,0.0,0.0,0.0,0.0,0.0,0.0,0.0,0.0,0.0,0.0,0.0,0.0,0.0,0.0,0.0,0.0,0.0,0.0,0.0,0.0,-17.1562,-17.539,-17.6484,-17.7031,0.0,0.0,0.0,-17.789,0.0,0.0,0.0,0.0,0.0,0.0,0.0,0.0,0.0,0.0,0.0,0.0,0.0,0.0,0.0,0.0,0.0,0.0,-16.4194,-16.3408,-16.2965,-16.3607,-16.3341,-16.2718,-16.2219,-16.3356,-16.4966,-16.5634,-16.7263,-17.1033,-17.8804,-18.0419,-18.1881,-18.7421,-18.5036,-18.1189,-17.8881,-17.8881,-17.8958,-17.8496,-18.2266,-18.562,-18.6397,-18.5024,-18.3531,-18.2327,-17.9482,-17.7331,-17.6512,-17.4699,-17.3402,-17.3182,-17.1861,-17.0927,-17.0389,-16.7816,-16.5993,-16.5321,-16.2215,-16.0408,-15.9894,-15.7912,-15.6811,-15.6591,-15.5563,-15.5416,-15.5856,-15.5269,-15.4021,-15.2259,-15.2259,-15.1378,-14.991,-14.991,-14.991,-14.991,-14.991,-14.991,-14.991,-14.991,-14.991,-15.0057,0.0,0.0,0.0,0.0,0.0,0.0,0.0,0.0,0.0,0.0,-14.4971,-14.6028,0.0,0.0,0.0,0.0,0.0,0.0,0.0,0.0,0.0,0.0,0.0,0.0,0.0,-16.7884,-17.0937,0.0,0.0,0.0,0.0,0.0,0.0,-17.8593,0.0,-18.1718,-18.1718,0.0,0.0,0.0,0.0,0.0,0.0,0.0,0.0,0.0,0.0,0.0,0.0,0.0,0.0,0.0,-16.4437,-16.404,-16.3902,-16.3522,-16.321,-16.2976,-16.2579,-16.3706,-16.5508,-16.7699,-16.9725,-17.3264,-18.1497,-18.4266,-18.6421,-19.0575,-18.7729,-18.4112,-18.2805,-18.1497,-18.0727,-18.0881,-18.342,-18.5728,-18.6421,-18.5206,-18.3812,-18.2281,-17.9677,-17.7398,-17.609,-17.4174,-17.282,-17.1929,-17.0772,-16.9833,-16.896,-16.6401,-16.4711,-16.4236,-16.0838,-15.894,-15.8499,-15.6811,-15.571,-15.5416,-15.4902,-15.4976,-15.5416,-15.4608,-15.3507,-15.2259,-15.1598,-15.1011,-15.035,-14.9983,-14.991,-14.991,-14.991,-14.991,-14.991,-14.991,-14.991,-15.0057,0.0,0.0,0.0,0.0,0.0,0.0,0.0,0.0,0.0,0.0,-14.5797,-14.6105,0.0,0.0,0.0,0.0,0.0,0.0,0.0,0.0,0.0,0.0,0.0,0.0,0.0,0.0,0.0,0.0,0.0,0.0,0.0,0.0,-17.8437,-18.0234,0.0,-18.3281,-18.2578,0.0,0.0,0.0,0.0,0.0,0.0,0.0,0.0,0.0,0.0,0.0,0.0,0.0,0.0,0.0,-16.4376,-16.473,-16.4997,-16.2418,-16.3011,-16.397,-16.2611,-16.3562,-16.5824,-16.8976,-17.2187,-17.6419,-18.3574,-18.8267,-19.1575,-19.3114,-18.8575,-18.4497,-18.5036,-18.2574,-18.1035,-18.2497,-18.4574,-18.5805,-18.5113,-18.4805,-18.3805,-18.1497,-17.9755,-17.7991,-17.5855,-17.4179,-17.2355,-17.0307,-16.9747,-16.8928,-16.7387,-16.4963,-16.3454,-16.2671,-15.9644,-15.7692,-15.7031,-15.6224,-15.5416,-15.4682,-15.4682,-15.4682,-15.4682,-15.3874,-15.3214,-15.2259,-15.0571,-15.035,-15.1011,-15.0204,-14.991,-14.991,-14.991,-14.991,-14.991,-14.991,-14.991,-15.0057,0.0,0.0,0.0,0.0,0.0,0.0,0.0,0.0,0.0,0.0,0.0,0.0,0.0,0.0,0.0,0.0,0.0,0.0,0.0,0.0,0.0,0.0,0.0,0.0,0.0,0.0,0.0,0.0,0.0,0.0,0.0,0.0,0.0,-18.0234,0.0,-18.25,0.0,0.0,0.0,0.0,0.0,0.0,-17.6171,0.0,0.0,0.0,0.0,0.0,0.0,0.0,0.0,0.0,-16.4604,-16.3669,-16.2968,-16.3667,-16.3278,-16.2564,-16.3014,-16.5818,-16.8932,-17.0441,-17.6573,-18.342,-18.7113,-18.9113,-19.0421,-19.0729,-18.9729,-18.8267,-18.719,-18.5805,-18.4959,-18.5267,-18.5267,-18.542,-18.5882,-18.4189,-18.2728,-18.2189,-17.9065,-17.6698,-17.578,-17.2681,-17.0055,-16.8617,-16.7586,-16.683,-16.6225,-16.3481,-16.2007,-16.2187,-15.8383,-15.6297,-15.615,-15.5416,-15.4902,-15.4682,-15.4682,-15.4682,-15.4682,-15.4535,-15.4021,-15.314,-15.0864,-15.035,-15.1011,-15.0204,-14.991,-14.991,-14.991,-14.991,-14.991,-14.991,-15.0277,-15.1011,0.0,0.0,0.0,0.0,0.0,0.0,0.0,0.0,0.0,0.0,0.0,0.0,0.0,0.0,0.0,0.0,0.0,0.0,0.0,0.0,0.0,0.0,0.0,0.0,0.0,0.0,0.0,0.0,0.0,0.0,0.0,0.0,0.0,-17.9531,0.0,-18.2187,0.0,0.0,0.0,0.0,-17.8203,-17.7421,-17.6171,-17.6171,0.0,0.0,0.0,0.0,0.0,0.0,0.0,0.0,0.0,0.0,-16.2475,-16.3201,-16.2968,-16.2804,-16.3506,-16.6282,-17.0234,-17.4652,-18.0727,-18.6113,-18.819,-18.9113,-18.9421,-18.9421,-18.9421,-18.9113,-18.819,-18.7036,-18.6113,-18.5574,-18.4882,-18.4189,-18.3805,-18.2574,-18.1266,-18.0112,-17.8108,-17.6012,-17.3615,-17.1159,-16.8712,-16.589,-16.5495,-16.4991,-16.4111,-16.2163,-16.1337,-16.149,-15.7887,-15.5856,-15.5856,-15.5122,-15.4682,-15.4682,-15.4682,-15.4682,-15.4682,-15.4315,-15.3874,-15.3434,-15.1378,-15.0864,-15.1598,-15.035,-14.991,-14.991,-14.991,-14.991,-14.991,-14.991,-15.0204,-15.0571,0.0,0.0,0.0,0.0,0.0,0.0,0.0,0.0,0.0,0.0,0.0,0.0,0.0,0.0,0.0,0.0,0.0,0.0,0.0,0.0,0.0,0.0,0.0,0.0,0.0,0.0,0.0,0.0,0.0,-16.789,-17.1406,-17.3906,0.0,-17.9062,0.0,0.0,0.0,0.0,0.0,-17.7421,-17.6718,-17.6171,-17.5937,-17.5625,-17.4062,-17.1875,-17.0781,0.0,-16.6795,-16.5302,0.0,0.0,0.0,0.0,-16.2232,-16.1868,-16.2187,-16.2809,-16.3403,-16.6286,-17.1101,-17.9323,-18.3728,-18.6421,-18.8113,-18.8421,-18.8267,-18.8267,-18.8498,-18.8575,-18.8267,-18.7036,-18.5728,-18.4805,-18.3882,-18.2728,-18.1112,-18.0573,-17.9573,-17.7419,-17.7034,-17.5276,-17.1309,-16.9864,-16.7536,-16.3394,-16.3705,-16.3405,-16.2019,-16.1113,-16.066,-16.066,-15.7368,-15.571,-15.571,-15.4976,-15.4682,-15.4682,-15.4682,-15.4682,-15.4682,-15.4021,-15.3581,-15.3434,-15.1672,-15.1305,-15.1819,-15.0277,-14.9616,-14.947,-14.9763,-14.9763,-14.969,-14.9763,-14.9983,-15.0057,0.0,0.0,0.0,0.0,0.0,0.0,0.0,0.0,0.0,0.0,-14.749,-14.8182,0.0,0.0,0.0,0.0,0.0,0.0,0.0,0.0,0.0,0.0,0.0,0.0,0.0,0.0,0.0,0.0,0.0,-16.8828,-17.2187,-17.4765,-17.7421,-17.9921,-18.0312,0.0,0.0,-18.0,-17.8437,-17.75,-17.7421,-17.6406,-17.4921,-17.3437,-17.2187,-17.0937,-16.8593,-16.7031,-16.5779,-16.3662,-16.2431,0.0,0.0,0.0,-16.0592,-16.0931,-16.0468,-16.0309,-16.1373,-16.6924,-17.3891,-18.0547,-18.3728,-18.5497,-18.7267,-18.7113,-18.6498,-18.6498,-18.7729,-18.8267,-18.6805,-18.5728,-18.4805,-18.4036,-18.2497,-18.1112,-18.0189,-17.8804,-17.7419,-17.6419,-17.5572,-17.4231,-17.1641,-16.8997,-16.6225,-16.3005,-16.2561,-16.2019,-16.1113,-16.0283,-15.9952,-15.9952,-15.6552,-15.4902,-15.4902,-15.4829,-15.4682,-15.4682,-15.4682,-15.4682,-15.4682,-15.4608,-15.4168,-15.3434,-15.1085,-15.0057,-15.0057,-14.9176,-14.8368,-14.7928,-14.9323,-14.947,-14.8882,-14.9616,-15.0277,-15.0938,0.0,0.0,0.0,0.0,0.0,0.0,0.0,0.0,0.0,0.0,0.0,-14.8029,0.0,0.0,0.0,0.0,0.0,0.0,0.0,0.0,0.0,0.0,0.0,0.0,0.0,0.0,0.0,0.0,-16.5764,-16.8671,-17.3125,-17.4687,-17.6093,-17.7187,-17.6718,-17.7421,0.0,-17.6328,-17.5781,-17.6562,-17.5234,-17.4375,-17.3984,-17.2812,-17.1796,-17.0781,-16.8671,-16.7421,-16.6324,-16.3915,-16.2518,-16.1816,-16.1816,0.0,0.0,0.0,-16.0234,-16.0381,-16.4313,-16.9209,-17.4703,-18.0877,-18.3266,-18.4728,-18.6421,-18.6113,-18.5267,-18.4882,-18.542,-18.5805,-18.5497,-18.442,-18.3112,-18.1804,-18.0112,-17.8496,-17.7188,-17.6419,-17.5418,-17.4111,-17.4034,-17.2808,-16.9713,-16.7194,-16.447,-16.1497,-16.0861,-16.0283,-15.9528,-15.9784,-15.9719,-15.8971,-15.6928,-15.5361,-15.4682,-15.4682,-15.4682,-15.4682,-15.3801,-15.3801,-15.4682,-15.4241,-15.3801,-15.3434,-15.1378,-15.0277,-14.9763,-14.8515,-14.7708,-14.7487,-14.8735,-14.8956,-14.8809,-14.9616,-15.0057,-15.0424,0.0,0.0,0.0,0.0,0.0,0.0,0.0,0.0,0.0,0.0,0.0,0.0,0.0,0.0,0.0,0.0,0.0,0.0,0.0,0.0,0.0,0.0,0.0,0.0,0.0,0.0,0.0,0.0,-16.5224,-16.8828,-17.4296,-17.5234,-17.6093,-17.7109,-17.6015,-17.6406,-17.7734,-17.5078,-17.5312,-17.7187,-17.3671,-17.2734,-17.3203,-17.2265,-17.1484,0.0,-16.9296,-16.7968,-16.6635,-16.4568,-16.2974,-16.1884,-16.187,-16.0936,0.0,0.0,0.0,-16.0535,-16.5336,-16.8668,-17.2254,-17.8183,-18.0557,-18.2035,-18.442,-18.442,-18.3805,-18.3189,-18.2881,-18.2881,-18.3497,-18.242,-18.1035,-17.9804,-17.788,-17.6188,-17.4726,-17.4264,-17.3495,-17.1802,-17.2418,-17.1531,-16.7891,-16.5888,-16.367,-16.0685,-16.0113,-15.9531,-15.885,-15.9812,-15.9695,-15.8367,-15.7204,-15.5976,-15.4682,-15.4535,-15.4315,-15.4095,-15.292,-15.292,-15.4095,-15.3727,-15.3214,-15.2479,-15.1305,-15.0057,-14.8882,-14.7634,-14.6973,-14.69,-14.8221,-14.8589,-14.8515,-14.947,-14.991,-14.991,0.0,0.0,0.0,0.0,0.0,0.0,0.0,0.0,0.0,0.0,0.0,0.0,-15.0568,-15.1414,-15.1875,-15.1875,0.0,0.0,0.0,0.0,0.0,0.0,0.0,0.0,0.0,0.0,0.0,-16.328,-16.5078,-16.9375,-17.6093,-17.7031,-17.9531,-18.3437,-18.1718,-18.1406,-18.2109,-17.9531,-17.9531,-18.0468,-17.4687,-17.2265,-17.2265,-17.1484,-17.0625,-16.9921,-16.9765,-16.8125,-16.5936,-16.5374,-16.3508,-16.1401,-16.1401,-16.0932,-16.011,0.0,0.0,0.0,-16.1438,-16.2818,-16.5216,-17.084,-17.3724,-17.6265,-18.0419,-18.1266,-18.1266,-18.1189,-18.0573,-18.0112,-18.0189,-17.9419,-17.8804,-17.8727,-17.6573,-17.4572,-17.3726,-17.288,-17.1802,-17.0033,-17.0571,-17.011,-16.7506,-16.5977,-16.4212,-16.1617,-16.0666,-16.0172,-16.0172,-16.0287,-15.9695,-15.8367,-15.7204,-15.5976,-15.4682,-15.3874,-15.3214,-15.2406,-15.2259,-15.2259,-15.2406,-15.3214,-15.2259,-15.0057,-14.9983,-14.8589,-14.6386,-14.6313,-14.5799,-14.5432,-14.7781,-14.8221,-14.7708,-14.9323,-14.991,-14.991,0.0,0.0,0.0,0.0,0.0,0.0,0.0,0.0,0.0,0.0,0.0,0.0,0.0,-15.1799,-15.2183,-15.2799,-15.4107,0.0,0.0,0.0,0.0,0.0,0.0,0.0,0.0,0.0,-16.0737,-16.2127,-16.4134,-16.75,-17.2109,-17.4687,-17.7187,-17.9765,-18.0312,-18.0078,-17.9062,-17.6015,-17.5,-17.5234,-17.2031,-17.1015,-17.1328,-16.9296,-16.9062,-16.9609,-16.789,-16.7421,-16.742,-16.6473,-16.5084,-16.3836,-16.3211,-16.2111,-16.082,-15.9837,-15.9062,-15.9137,-16.0898,-16.1894,-16.3505,-16.7997,-17.1592,-17.4418,-17.588,-17.8419,-17.9881,-17.8188,-17.8111,-17.8111,-17.7573,-17.7573,-17.7419,-17.6265,-17.488,-17.3495,-17.211,-17.1572,-17.1033,-16.9802,-16.9956,-16.9187,-16.6571,-16.5285,-16.3721,-16.1738,-16.0783,-16.0097,-15.9487,-16.0156,-15.9677,-15.7612,-15.657,-15.519,-15.3201,-15.1819,-15.1598,-15.2259,-15.0718,-15.0791,-15.2259,-15.2112,-15.1231,-14.9763,-14.8809,-14.7487,-14.6166,-14.5579,-14.5579,-14.5872,-14.7341,-14.8001,-14.8368,-14.947,-14.991,-14.991,0.0,0.0,0.0,0.0,0.0,0.0,0.0,0.0,0.0,-15.1029,0.0,0.0,0.0,0.0,-15.2568,-15.403,-15.5415,0.0,0.0,0.0,0.0,0.0,0.0,0.0,0.0,-15.84,-15.9585,-16.1416,-16.303,-16.6015,-17.0312,-17.3125,-17.5703,-17.7968,-17.8828,-17.9062,-17.8593,-17.539,-17.3984,-17.3828,-17.0625,-17.0078,-17.1015,-16.9765,-16.9531,-16.9687,-16.8828,-16.8515,-16.8436,-16.7928,-16.6886,-16.5714,-16.4621,-16.2585,-16.0574,-15.9685,-15.8906,-15.8512,-15.9812,-15.9801,-16.049,-16.4998,-16.7501,-16.9494,-17.211,-17.4572,-17.6265,-17.5803,-17.588,-17.6034,-17.5726,-17.5572,-17.5342,-17.4495,-17.3418,-17.2264,-17.1187,-17.0725,-17.0187,-16.9417,-16.9033,-16.8109,-16.6109,-16.4882,-16.3605,-16.1845,-16.1003,-16.0049,-15.9207,-16.0021,-15.9278,-15.6782,-15.5656,-15.3871,-15.1512,-15.035,-15.0204,-15.0571,-14.9029,-14.9102,-15.0571,-15.0424,-14.969,-14.8589,-14.7487,-14.668,-14.6093,-14.5285,-14.5505,-14.6313,-14.7414,-14.8221,-14.8809,-14.9616,-14.991,-14.991,0.0,0.0,0.0,0.0,0.0,0.0,0.0,0.0,-15.1029,-15.1875,0.0,0.0,0.0,0.0,0.0,-15.5722,-15.6569,-15.8184,0.0,0.0,0.0,0.0,0.0,0.0,-15.7733,-15.7294,-15.8482,-16.133,-16.178,-16.5078,-17.0937,-17.2578,-17.5234,-17.8515,-17.7812,-17.8828,-18.0781,-17.8437,-17.7265,-17.6796,-17.0937,-16.9609,-17.1406,-17.289,-17.2031,-17.0312,-17.2734,-17.1406,-16.8828,-16.9687,-16.8828,-16.7031,-16.5078,-16.2265,-15.9609,-15.9531,-15.8906,-15.8121,0.0,0.0,0.0,-16.1068,-16.0967,-16.157,-16.8956,-17.0187,-17.0571,-17.4034,-17.4034,-17.3726,-17.4572,-17.3418,-17.2495,-17.3187,-17.2033,-17.0956,-17.0956,-17.0187,-16.9417,-16.8571,-16.7725,-16.6801,-16.6032,-16.5109,-16.3878,-16.2185,-16.1339,-16.0493,-15.9569,-15.9538,-15.8325,-15.5921,-15.4252,-15.2186,-14.9763,-14.9763,-14.9029,-14.7414,-14.7414,-14.7414,-14.7414,-14.8295,-14.7781,-14.6166,-14.6166,-14.6166,-14.6093,-14.5285,-14.5505,-14.6386,-14.8075,-14.8662,-14.8809,-14.9616,-14.991,-14.991,0.0,0.0,0.0,0.0,0.0,0.0,-15.0491,-15.1183,-15.1722,0.0,0.0,0.0,-15.2876,-15.4568,-15.6184,-15.7492,-15.78,-15.8261,0.0,0.0,0.0,0.0,-15.7338,-15.7227,-15.7274,-15.7729,-15.8594,-16.0105,-16.0813,-16.2578,-16.5468,-16.789,-17.0234,-17.2421,-17.4609,-17.5,-17.3906,-17.3828,-17.2968,-17.1796,-17.0781,-17.1796,-17.3593,-17.1562,-17.2265,-17.4296,-17.3125,-17.25,-17.2421,-17.3906,-17.2031,-16.8437,-16.4765,-16.2578,-16.1093,-15.9922,-15.8906,-15.7965,-15.6935,0.0,0.0,0.0,0.0,0.0,-16.3185,-16.6801,-17.011,-17.1725,-17.2418,-17.2726,-17.288,-17.1572,-17.0264,-16.9879,-17.0494,-17.0802,-17.011,-16.9879,-16.9571,-16.9417,-16.8109,-16.6571,-16.5186,-16.4262,-16.2801,-16.0493,-16.0108,-15.9262,-15.7877,-15.6701,-15.5205,-15.331,-15.1729,-14.9983,-14.8075,-14.7487,-14.7267,-14.7414,-14.6827,-14.6827,-14.7414,-14.7634,-14.7487,-14.7047,-14.5799,-14.5725,-14.6093,-14.5285,-14.5799,-14.7194,-14.8295,-14.9102,-14.9616,-14.9763,-14.991,-14.991,0.0,0.0,0.0,0.0,0.0,-15.0183,-15.0568,-15.1722,-15.2414,0.0,0.0,0.0,-15.4184,-15.6876,-15.8569,-15.8261,-15.9031,0.0,0.0,0.0,0.0,-15.7569,-15.7569,-15.7415,-15.7107,-15.7494,-15.8457,-16.0106,-16.017,-16.1484,-16.3906,-16.5,-16.6328,-16.7734,-17.0078,-17.0078,-16.8515,-17.0078,-16.9921,-16.8906,-17.0781,-17.2734,-17.4375,-17.4921,-17.6328,-17.7734,-17.6875,-17.6484,-17.6484,-17.75,-17.4531,-16.9609,-16.5625,-16.3281,-16.1796,-16.039,-15.9375,0.0,0.0,0.0,0.0,-15.4888,0.0,0.0,-16.0416,-16.3031,-16.557,-16.7879,-16.8494,-16.8725,-16.911,-16.8571,-16.8032,-16.7494,-16.8494,-16.9417,-16.9187,-16.9187,-16.911,-16.8725,-16.7802,-16.6417,-16.4416,-16.3724,-16.2185,-15.9262,-15.8723,-15.803,-15.6569,-15.5483,-15.4489,-15.3469,-15.1586,-14.9788,-14.8236,-14.6879,-14.6313,-14.6386,-14.5872,-14.5946,-14.6386,-14.6386,-14.6386,-14.6313,-14.4698,-14.4624,-14.5725,-14.5212,-14.5946,-14.7487,-14.8735,-14.947,-14.991,-14.991,-14.991,-14.991,0.0,0.0,0.0,0.0,0.0,-15.0721,-15.0721,-15.2183,-15.3106,0.0,-15.3414,-15.4799,-15.6569,-15.9415,-16.0569,-15.9108,0.0,0.0,0.0,0.0,0.0,-15.8184,-15.8184,-15.78,-15.7107,-15.7106,-15.8301,-16.0729,-16.0013,-16.1328,-16.4375,-16.3671,-16.3828,-16.4609,-16.539,0.0,-16.4687,-16.7031,-16.7578,-16.75,-17.1015,-17.3203,-17.4921,-18.0312,-18.1796,-18.1093,-18.2421,-18.1875,-18.0468,-18.0234,-17.6328,-17.1015,-16.75,-16.4531,-16.2187,-16.1015,-16.0234,0.0,0.0,0.0,0.0,-15.5741,-15.456,0.0,-15.9415,-15.9338,-15.9492,-16.3724,-16.3878,-16.357,-16.4262,-16.5032,-16.5417,-16.5186,-16.6109,-16.7186,-16.8263,-16.8263,-16.8032,-16.7263,-16.7032,-16.6032,-16.357,-16.3185,-16.1724,-15.8261,-15.7184,-15.6338,-15.5568,-15.5187,-15.4949,-15.491,-15.2779,-15.0886,-14.9092,-14.7349,-14.5898,-14.4991,-14.4991,-14.4991,-14.4991,-14.4991,-14.4991,-14.4918,-14.3523,-14.367,-14.5138,-14.5212,-14.6093,-14.7634,-14.9176,-14.991,-14.991,-14.991,-14.991,-14.991,0.0,0.0,0.0,0.0,0.0,0.0,-15.0721,-15.2183,-15.3491,-15.3876,-15.7184,-16.0339,-16.2724,-16.2878,-16.3108,-16.3416,0.0,0.0,0.0,0.0,-15.8415,-15.7415,-15.7338,-15.7261,-15.7107,-15.7747,-15.8613,-15.9795,-16.0326,-16.1562,-16.3515,-16.3437,-16.3828,-16.4609,-16.4765,-16.4765,-16.4609,-16.4375,-16.539,-16.7578,-17.1718,-17.5468,-17.8984,-18.0078,-18.2968,-18.6171,-18.5078,-18.3984,-18.2812,-18.0781,-17.789,-17.4531,-17.0312,-16.7187,-16.4375,-16.0781,-16.0078,-15.9762,-15.6233,-15.4835,-15.4163,-15.3513,-15.3273,0.0,-15.7107,-15.8107,-15.9262,-16.2878,-16.3493,-16.3185,-16.2724,-16.2724,-16.2416,-16.1031,-16.2724,-16.5186,-16.8109,-16.7263,-16.6571,-16.7109,-16.6032,-16.4724,-16.3493,-16.2185,-16.0031,-15.6492,-15.4876,-15.403,-15.3799,-15.4116,-15.3614,-15.2317,-15.2223,-15.0853,-14.8324,-14.7844,-14.6808,-14.4991,-14.4991,-14.4991,-14.4991,-14.4991,-14.4991,-14.4991,-14.4698,-14.5065,-14.6019,-14.668,-14.712,-14.7634,-14.9176,-14.991,-14.991,-14.991,-14.991,-14.991,0.0,0.0,0.0,0.0,0.0,0.0,-15.0721,-15.2183,-15.3876,-15.5568,-16.0569,-16.4032,-16.4109,-16.4416,-16.4109,-16.2878,0.0,0.0,0.0,0.0,-15.8569,-15.7723,-15.7723,-15.7723,-15.7723,-15.8135,-15.8939,-16.0184,-16.056,-16.1875,-16.3906,-16.3515,-16.3281,-16.3437,-16.4218,-16.3906,-16.2812,-16.3593,-16.4531,-16.5781,-17.2265,-17.7031,-18.039,-18.3437,-18.6406,-18.8828,-18.7109,-18.6796,-18.6406,-18.1718,-17.9218,-17.7187,-17.2109,-16.8984,-16.6562,-16.3593,-16.2734,-16.1796,-15.771,-15.6183,-15.5376,-15.4384,-15.3676,0.0,0.0,-15.5799,-15.6415,-15.8492,-15.9031,-15.88,-15.8415,-15.9262,-15.9877,-15.9108,-16.0416,-16.2262,-16.4416,-16.5417,-16.5878,-16.5878,-16.4801,-16.3416,-16.1724,-16.0723,-15.88,-15.5415,-15.3568,-15.2799,-15.326,-15.3859,-15.409,-15.3707,-15.3311,-15.2105,-15.0205,-14.875,-14.7224,-14.5579,-14.5212,-14.4991,-14.4991,-14.4991,-14.4991,-14.4991,-14.4624,-14.4918,-14.5725,-14.6533,-14.7047,-14.7634,-14.9176,-14.991,-14.991,-14.991,-14.991,-14.991,0.0,0.0,0.0,0.0,0.0,0.0,0.0,0.0,-15.4568,-15.7723,-16.3416,-16.6571,-16.5032,-16.5801,-16.557,-16.3493,0.0,0.0,-15.98,-15.9415,-15.88,-15.8107,-15.8184,-15.8184,-15.8107,-15.8445,-15.9328,-16.0822,-16.1029,-16.2187,-16.4296,-16.3828,-16.3125,-16.2422,-16.3671,-16.3203,-16.1406,-16.3125,-16.4218,-16.539,-17.2812,-17.6796,-17.8984,-18.5078,-18.7968,-18.8671,-18.7968,-18.8671,-18.8828,-18.2265,-18.0,-17.8671,-17.2421,-16.9687,-16.8437,-16.5468,-16.4609,-16.3593,-15.8984,-15.7435,-15.6667,-15.5499,-15.4526,-15.3876,0.0,0.0,0.0,-15.4414,-15.4491,-15.4491,-15.4261,-15.6107,-15.7415,-15.6876,-15.8107,-15.9185,-15.9569,-16.2339,-16.4109,-16.3801,-16.2878,-16.157,-15.9492,-15.8877,-15.7492,-15.4722,-15.2876,-15.2183,-15.2799,-15.3876,-15.4799,-15.5338,-15.467,-15.373,-15.2328,-14.981,-14.7785,-14.6166,-14.5505,-14.5138,-14.4991,-14.4991,-14.4991,-14.4991,-14.4331,-14.4477,-14.5285,-14.6093,-14.69,-14.7781,-14.9323,-14.991,-14.991,-14.991,-14.991,-14.991,-14.8259,-14.7567,0.0,0.0,0.0,0.0,0.0,0.0,-15.6107,-16.0877,-16.4801,-16.7879,-16.9879,-16.9033,-16.9187,-17.1802,-16.4416,-16.1108,-16.4801,-16.0185,-15.7338,-15.7184,-15.7877,-15.803,-15.7261,-15.858,-15.978,-16.0822,-16.1575,-16.25,-16.3515,-16.4062,-16.3984,-16.3203,-16.3437,-16.3281,-16.289,-16.1718,-16.4687,-17.039,-17.289,-17.3203,-17.2812,-17.8828,-18.2109,-18.3906,-18.6796,-18.789,-18.7265,-18.1875,-17.9609,-17.7578,-17.0,-16.9062,-16.9375,-16.2265,-16.2265,-16.3281,-15.75,-15.642,-15.6433,-15.4099,-15.4503,-15.5184,-15.3799,0.0,-15.4414,-15.4491,0.0,-15.4261,-15.3568,0.0,0.0,-15.1875,-15.4799,-15.6876,-15.5415,-15.6876,-15.8569,-16.0031,-15.9415,-15.88,-15.8492,-15.6415,-15.4876,-15.4491,-15.2876,-15.1722,-15.1029,-15.3183,-15.4184,-15.3568,-15.4863,-15.447,-15.2177,-15.1169,-14.9223,-14.6166,-14.6093,-14.5725,-14.4991,-14.4991,-14.4991,-14.4991,-14.4918,-14.5285,-14.6093,-14.69,-14.7781,-14.8589,-14.947,-14.991,-14.991,-14.991,-14.991,-14.991,-14.8182,-14.749,0.0,0.0,0.0,0.0,0.0,0.0,-15.8415,-16.1108,-16.4801,-16.8032,-17.0033,-16.8263,-16.8032,-17.0417,-16.5724,-16.2878,-16.357,-16.0877,-15.9338,-15.9338,-15.9419,-15.971,-16.0328,-16.0495,-16.1027,-16.1895,-16.2,-16.25,-16.3281,-16.3671,-16.3125,-16.1875,-16.2265,-16.25,-16.2578,-16.289,-16.4375,-16.6875,-17.0625,-17.0781,-16.9921,-18.0,-18.3906,-18.4375,-18.6875,-18.7812,-18.7187,-18.2968,-18.0,-17.7578,-17.4765,-17.1171,-16.7734,-16.6015,-16.4687,-16.2968,-15.8984,-15.9066,-15.9579,-15.6881,-15.7261,-15.7778,-15.5302,-15.4568,-15.4414,-15.3876,0.0,0.0,0.0,0.0,0.0,0.0,-15.4107,-15.5261,-15.4568,-15.3876,-15.4722,-15.8415,-15.6799,-15.5415,-15.5415,-15.5261,-15.4876,-15.3876,-15.3568,-15.2568,-15.0798,-15.2722,-15.3414,-15.2568,-15.4722,-15.5,-15.33,-15.218,-15.0655,-14.8565,-14.6993,-14.6019,-14.5725,-14.5212,-14.4991,-14.4991,-14.4991,-14.5212,-14.5579,-14.69,-14.7634,-14.8075,-14.9396,-14.991,-14.991,-14.991,-14.991,-14.991,-14.8567,0.0,0.0,-14.7798,0.0,0.0,0.0,-15.5107,-15.8184,-16.0339,-16.3416,-16.6571,-16.9417,-16.8263,-16.8571,-17.1725,-16.8571,-16.6109,-16.5263,-16.2878,-16.1339,-16.0569,-16.0659,-16.1175,-16.2271,-16.2112,-16.2286,-16.3133,-16.2561,-16.2578,-16.2968,-16.3203,-16.25,-16.1171,-16.2031,-16.289,-16.3906,-16.539,-16.6562,-16.789,-17.1875,-17.2968,-17.2968,-18.1328,-18.4687,-18.539,-18.6562,-18.7109,-18.6484,-18.2812,-18.0234,-17.8281,-17.7109,-17.289,-16.8437,-16.8671,-16.6796,-16.3984,-16.0468,-16.1137,-16.1905,-15.8402,-15.8835,-15.9134,-15.6082,-15.5107,-15.4568,-15.3799,-15.3491,0.0,0.0,0.0,-15.3876,-15.3106,0.0,-15.403,-15.3491,-15.1722,-15.2029,-15.6415,-15.4568,-15.303,-15.326,-15.4414,-15.4491,-15.3106,-15.3491,-15.303,-15.1183,-15.226,-15.2876,-15.2722,-15.4491,-15.5087,-15.4376,-15.2847,-15.1615,-15.0434,-14.7791,-14.6386,-14.6166,-14.5432,-14.4991,-14.4991,-14.4991,-14.4991,-14.5138,-14.6753,-14.7414,-14.7634,-14.9176,-14.991,-14.991,-14.991,-14.9983,-15.0204,-14.949,-14.8798,-14.7875,-14.7105,-14.7567,-14.9106,-15.1568,-15.2106,-15.403,-15.9031,-16.0493,-16.3339,-16.911,-17.0417,-17.3495,-18.0112,-17.4572,-17.1495,-17.3033,-16.7032,-16.2185,-15.9723,-16.1216,-16.1909,-16.152,-16.2675,-16.3481,-16.3992,-16.3499,-16.289,-16.2187,-16.289,-16.289,-16.2109,-16.289,-16.5078,-16.8437,-16.9296,-17.2968,-17.8437,-17.9375,-18.1718,-18.4218,-18.0468,-18.1562,-18.5234,-18.5312,-18.5312,-18.4609,-18.039,-17.9921,-18.0,-17.3437,-17.2812,-17.3515,-16.7734,-16.7109,-16.7031,-16.1093,-16.1133,-16.1593,-15.6923,-15.7399,-15.8235,-15.5206,-15.5184,-15.5492,-15.4568,-15.3799,-15.326,-15.326,-15.326,-15.3106,0.0,0.0,0.0,0.0,-15.0106,-15.0491,-15.3106,-15.2568,-15.2414,-15.3183,-15.326,-15.303,-15.2106,-15.2106,-15.2029,-15.2029,-15.2029,-15.2799,-15.4414,-15.4491,-15.478,-15.5292,-15.3226,-15.1568,-15.0508,-14.8381,-14.6973,-14.6166,-14.5432,-14.4991,-14.4991,-14.4991,-14.4991,-14.5138,-14.6753,-14.7414,-14.7634,-14.9176,-14.991,-14.991,-14.991,-15.0424,-15.1085,-15.0337,-15.0106,-14.9413,-14.8029,-14.8029,-14.849,-14.9413,-15.1414,-15.5261,-16.2108,-16.4724,-16.9263,-17.8034,-17.8727,-17.9881,-18.3266,-18.0496,-17.7573,-17.5418,-17.0956,-16.8032,-16.7186,-16.5312,-16.4916,-16.6507,-16.4969,-16.4403,-16.4921,-16.35,-16.2628,-16.2109,-16.2422,-16.2109,-16.1328,-16.1484,-16.4218,-16.8593,-17.0,-17.25,-17.5625,-17.8203,-18.0937,-18.3437,-18.3125,-18.3906,-18.5234,-18.5234,-18.5234,-18.5,-18.3515,-18.1093,-17.8671,-17.7968,-17.4531,-17.0468,-16.9609,-16.8515,-16.7187,-16.5234,-16.6793,-16.7681,-16.2222,-16.2596,-16.297,-15.7505,-15.7261,-15.78,-15.5799,-15.5568,-15.5261,-15.3568,-15.326,0.0,0.0,0.0,0.0,0.0,-15.2029,-15.1106,-15.0798,-15.1491,-15.1722,-15.0875,-15.2799,-15.3106,-15.0491,-15.1875,-15.2106,-15.0414,-15.0875,-15.1183,-15.1183,-15.2799,-15.3833,-15.4013,-15.284,-15.1984,-15.1568,-14.8752,-14.6973,-14.6166,-14.5432,-14.4991,-14.4991,-14.4991,-14.5285,-14.5872,-14.6973,-14.7708,-14.8368,-14.947,-14.991,-14.991,-14.991,-15.0424,-15.1085,-15.1183,-15.1183,-15.0568,-14.9029,-14.8106,-14.7875,-14.8567,-15.1491,-15.6492,-16.4109,-16.7263,-17.2726,-18.2574,-18.3497,-18.4189,-18.6498,-18.5728,-18.2728,-17.688,-17.5265,-17.3264,-17.0187,-16.9218,-16.9221,-17.0432,-16.7877,-16.6504,-16.6239,-16.4522,-16.321,-16.25,-16.2187,-16.1796,-16.1328,-16.1171,-16.4375,-17.0,-17.2031,-17.4609,-17.75,-18.0,-18.2109,-18.3593,-18.4765,-18.4765,-18.4375,-18.5,-18.5234,-18.5234,-18.4765,-18.25,-17.9921,-18.0625,-17.6718,-17.1718,-17.1562,-17.0312,-16.8671,-16.75,-16.9531,-17.0771,-16.6216,-16.6388,-16.6184,-16.038,-15.9809,-15.9877,-15.803,-15.7107,-15.6723,-15.6876,-15.4876,0.0,0.0,0.0,0.0,0.0,-15.2029,-15.0568,-14.9183,-15.0337,-15.0721,-14.9644,-15.1183,-15.1491,-14.9644,-15.0721,-15.1183,-15.0414,-15.0337,-15.0491,-15.0798,-15.2414,-15.3414,-15.3722,-15.3083,-15.2526,-15.168,-14.9206,-14.7418,-14.6166,-14.5432,-14.4991,-14.4991,-14.5285,-14.5872,-14.668,-14.7487,-14.8368,-14.9176,-14.969,-14.991,-14.991,-15.0204,-15.1011,-15.1892,-15.2029,-15.1875,-15.1414,-14.9798,-14.8106,-14.749,-14.9183,-15.2414,-15.7415,-16.5109,-16.8571,-17.388,-18.3112,-18.4882,-18.6805,-19.0037,-19.0267,-18.6805,-17.8496,-18.0112,-17.7804,-16.9725,-17.3033,-17.4466,-17.3324,-17.1388,-16.9573,-16.8009,-16.6067,-16.4532,-16.3203,-16.2422,-16.2031,-16.2031,-16.1875,-16.5703,-17.2265,-17.4921,-17.9062,-18.3984,-18.4765,-18.5078,-18.5,-18.5078,-18.3984,-18.2734,-18.4531,-18.5234,-18.5,-18.4218,-18.3828,-18.3281,-18.0781,-17.8828,-17.6796,-17.3437,-17.2421,-17.1718,-16.8515,-16.9375,-17.0777,-16.8731,-16.84,-16.7696,-16.3869,-16.272,-16.2185,-16.1339,-15.8492,-15.7569,-16.2262,-15.78,-15.4722,0.0,0.0,0.0,0.0,-15.0106,-14.9337,-14.8413,-14.9029,-14.949,-14.9413,-14.8798,-14.8567,-14.9413,-14.8721,-14.926,-15.1799,-15.0337,-15.0568,-15.3106,-15.326,-15.3568,-15.4414,-15.4081,-15.2924,-15.0957,-14.9744,-14.8061,-14.6166,-14.5432,-14.4991,-14.5138,-14.5872,-14.668,-14.7487,-14.8368,-14.9176,-14.991,-14.991,-14.991,-15.0057,-15.0864,-15.2186,-15.3434,-15.2029,-15.1029,-15.0029,-14.9567,-14.8106,-14.7259,-14.8413,-15.3491,-16.0108,-16.7725,-17.4803,-18.2035,-18.9421,-19.2114,-19.3499,-19.3807,-19.3807,-19.2114,-18.7959,-18.5882,-18.3882,-18.1804,-17.9727,-17.8675,-17.8983,-17.4281,-17.1285,-17.0162,-16.5985,-16.3378,-16.2265,-16.1484,-16.0781,-16.0234,-16.0781,-16.4218,-16.9609,-17.2187,-17.7421,-18.3984,-18.4765,-18.3984,-18.2421,-18.3671,-18.2812,-18.1093,-18.4062,-18.4765,-18.4218,-18.3984,-18.2578,-18.0781,-17.9531,-17.789,-17.6093,-17.3906,-17.3671,-17.3984,-17.3203,-17.3906,-17.4371,-17.2167,-17.1531,-17.0281,-16.6506,-16.6273,-16.6263,-16.4186,-16.2493,-16.1108,-15.98,-15.6569,-15.4414,0.0,0.0,0.0,-15.1799,-15.1491,-15.0798,-14.9337,-14.9875,-14.9875,-14.8721,-14.949,-14.9567,-14.8567,-14.8259,-14.9029,-15.0875,-14.9413,-14.9413,-15.1337,-15.2568,-15.3106,-15.2568,-15.2934,-15.2316,-15.0957,-14.922,-14.7616,-14.6166,-14.5432,-14.5285,-14.5872,-14.6093,-14.6973,-14.8368,-14.8589,-14.9176,-14.991,-14.991,-15.0571,-15.1672,-15.1892,-15.2626,-15.3507,-15.2029,-15.0721,-14.949,-14.949,-14.9875,-15.0568,-15.1875,-15.503,-16.0416,-16.911,-17.6419,-18.2881,-18.8575,-19.3114,-19.5576,-19.5115,-19.4807,-19.3037,-18.9267,-18.896,-18.7959,-18.5728,-18.4805,-18.4036,-18.3266,-17.8265,-17.4082,-17.0998,-16.658,-16.37,-16.2031,-16.0781,-16.0234,-16.0078,-16.0234,-16.25,-16.6484,-17.1406,-17.6796,-18.2421,-18.3984,-18.3828,0.0,-18.3515,-18.2812,-18.1406,-18.3437,-18.3671,-18.3281,-18.289,-18.1796,-18.0312,-17.8671,-17.7578,-17.6406,-17.4218,-17.4218,-17.4765,-17.4375,-17.5234,-17.5936,-17.4735,-17.4278,-17.3272,-16.9418,-16.8961,-16.8726,-16.6281,-16.4186,-16.2724,-16.2262,-15.8261,-15.4799,-15.403,-15.3491,-15.3106,-15.2568,-15.1568,-15.0414,-14.9106,-14.8721,-14.8106,-14.7182,-14.8567,-14.8875,-14.7182,-14.6798,-14.7028,-14.7875,-14.7721,-14.8413,-15.0106,-15.2183,-15.3106,-15.2568,-15.3181,-15.2539,-15.0588,-14.9723,-14.8276,-14.6388,-14.5792,-14.5579,-14.5725,-14.6386,-14.7487,-14.8662,-14.9102,-14.969,-15.035,-14.9983,-15.0864,-15.2259,-15.2259,-15.2773,-15.3434,-15.2029,-15.0721,-14.949,-14.9644,-15.2568,-15.5799,-15.8107,-15.8338,-16.1493,-17.0571,-17.6573,-18.1266,-18.5036,-19.096,-19.473,-19.4576,-19.4114,-19.1883,-18.7267,-19.0498,-19.0498,-18.6113,-18.8729,-18.919,-18.6805,-18.242,-17.7327,-17.1214,-16.7497,-16.4302,-16.1562,-15.9922,0.0,0.0,0.0,0.0,0.0,-17.1406,-17.6562,-18.0078,-18.2578,-18.3593,-18.3671,-18.3593,-18.2968,-18.2265,-18.2265,-18.2265,-18.2265,-18.1406,-18.1015,-18.039,-17.8125,-17.7265,-17.6718,-17.4375,-17.4296,-17.4687,-17.3984,-17.4921,-17.6093,-17.6171,-17.6364,-17.5706,-17.2435,-17.1106,-17.0228,-16.8146,-16.5032,-16.3416,-16.6186,-16.0723,-15.5492,-15.4568,-15.403,-15.3568,-15.3568,-15.1722,-14.9875,-14.8798,-14.7336,0.0,-14.5874,-14.7105,-14.7182,-14.5567,-14.472,-14.4412,-14.472,-14.5874,-14.749,-14.9567,-15.1875,-15.3183,-15.326,-15.4107,-15.3169,-15.0487,-15.1002,-14.9753,-14.7105,-14.6629,-14.6045,-14.5579,-14.6827,-14.8001,-14.8882,-14.9616,-15.0277,-15.0864,-15.0204,-15.0864,-15.2259,-15.2186,-15.27,-15.3287,-15.2029,-15.0721,-14.9721,-15.0414,-15.4491,-15.9415,-16.457,-16.8879,-17.2572,-17.5803,-18.2497,-18.719,-18.8036,-19.096,-19.273,-19.196,-19.3114,-19.3114,-19.1499,-19.2114,-19.2114,-19.1191,-19.1729,-19.1191,-18.9421,-18.4497,-17.8998,-17.2968,-16.748,-16.282,-15.8906,-15.7812,0.0,0.0,0.0,0.0,-16.4687,-17.039,-17.5234,-17.9218,-18.1015,-18.2187,-18.2734,-18.2031,-18.1171,-18.0468,-18.0468,-18.1015,-18.1406,-18.0625,-17.9375,-17.7968,-17.6796,-17.5937,-17.5312,-17.4765,-17.4765,-17.4921,-17.4687,-17.4921,-17.5312,-17.6015,-17.5973,-17.5472,-17.4523,-17.3338,-17.2059,-17.0611,-16.7571,-16.5032,-16.4186,-15.9492,-15.5492,-15.4568,-15.503,-15.5415,-15.5415,-15.503,-15.3876,-15.1568,-15.0414,-14.9029,-14.6875,-14.6413,-14.572,-14.472,-14.3797,-14.4182,-14.6336,-14.5413,-14.6567,-15.0414,-15.1568,-15.2568,-15.326,-15.4107,-15.3674,-15.228,-15.2397,-15.1197,-14.8818,-14.7941,-14.779,-14.8001,-14.7634,-14.8295,-14.969,-14.9763,-14.9983,-15.0057,-14.9983,-15.0864,-15.2186,-15.1598,-15.1819,-15.27,-15.0798,-15.0106,-15.0491,-15.3491,-15.8184,-16.3878,-17.0802,-17.5803,-17.8419,-17.7419,-18.0881,-18.3497,-18.3497,-18.7729,-19.0421,-19.0037,-19.0729,-19.1191,-19.1191,-19.196,-19.2499,-19.2499,-19.2499,-19.1883,-19.0729,-18.5865,-17.9904,-17.2812,-16.801,-16.2563,-15.6797,-15.6406,-15.6406,0.0,0.0,-15.8437,0.0,-16.7031,-17.1484,-17.5703,-17.9296,-18.1171,-18.1796,-18.1015,-18.0234,-17.9296,-17.8437,-17.8593,-17.9296,-17.9375,-17.8593,-17.7265,-17.6484,-17.5625,-17.4921,-17.4921,-17.4609,-17.4296,-17.4765,-17.4921,-17.5,-17.539,-17.538,-17.508,-17.4629,-17.3478,-17.2179,-17.0997,-16.8114,-16.5032,-16.2031,-15.8723,-15.6338,-15.5876,-15.5415,-15.5261,-15.5722,-15.5107,-15.3876,-15.2183,-15.0106,-14.8106,-14.6413,-14.472,-14.372,-14.372,-14.3028,-14.3028,-14.4182,-14.3874,-14.549,-14.9337,-15.1491,-15.3106,-15.3876,-15.4799,-15.4694,-15.3554,-15.3869,-15.3039,-15.1045,-14.9744,-14.9228,-14.8919,-14.7394,-14.7708,-14.9323,-14.969,-14.991,-14.991,-14.991,-15.0864,-15.2186,-15.1378,-15.1598,-15.2406,-15.1183,-15.1183,-15.2799,-15.8107,-16.3262,-16.8879,-17.5188,-17.9727,-18.1574,-17.9188,-17.9496,-17.9881,-17.9881,-18.4882,-18.819,-18.819,-18.8267,-18.8806,-18.9729,-19.1114,-19.196,-19.196,-19.2114,-19.1729,-19.0498,-18.6629,-18.0465,-17.219,-16.8568,-16.2887,-15.5625,-15.539,-15.5312,-15.5312,-15.5703,-15.7187,-15.9765,-16.4062,-16.8515,-17.2968,-17.75,-18.0,-18.0937,-17.9921,-17.9062,-17.8281,-17.6796,-17.6562,-17.7265,-17.7812,-17.7578,-17.7031,-17.6015,-17.5234,-17.4609,-17.4375,-17.3984,-17.3671,-17.4375,-17.4765,-17.4921,-17.4921,-17.4765,-17.4526,-17.4333,-17.291,-17.149,-17.0625,-16.7916,-16.4416,-16.0262,-15.8723,-15.7723,-15.7184,-15.6184,-15.5722,-15.603,-15.5184,-15.4107,-15.2491,-14.9875,-14.7721,-14.6105,-14.4105,-14.3105,-14.3412,-14.2489,-14.2027,-14.2104,-14.2566,-14.4489,-14.8106,-15.0798,-15.2876,-15.4184,-15.5338,-15.5492,-15.4799,-15.5436,-15.4903,-15.3271,-15.1848,-15.089,-15.0319,-14.8179,-14.8072,-14.9176,-14.969,-14.991,-14.991,-14.991,-15.0791,-15.1892,-15.1085,-15.1378,-15.2112,-15.6415,-15.6876,-15.8184,-16.4109,-16.9879,-17.4418,-17.588,-17.9727,-18.2805,-18.4036,-18.4266,-18.4266,-18.4266,-18.5574,-18.6421,-18.6421,-18.719,-18.8036,-18.8806,-18.9729,-19.0191,-19.0191,-19.096,-19.0267,-18.7882,-18.632,-18.111,-17.219,-16.9203,-16.3512,-15.5625,-15.4765,-15.4375,-15.4531,-15.6093,-15.7812,-15.9765,-16.4062,-16.8828,-17.3671,-17.5703,-17.7968,-18.0,-17.8437,-17.7734,-17.75,-17.6484,-17.6328,-17.6171,-17.5468,-17.5703,-17.6015,-17.4375,-17.3828,-17.3593,-17.2812,-17.2968,-17.3593,-17.3671,-17.4296,-17.4921,-17.4921,-17.4296,-17.3823,-17.4099,-17.1974,-17.009,-17.0315,-16.7375,-16.3724,-16.0185,-16.0108,-15.98,-15.7492,-15.8184,-15.8569,-15.7184,-15.8184,-15.7569,-15.3568,-15.2876,-15.1106,-14.7182,-14.6567,-14.5797,-14.4412,-14.2797,-14.2181,-14.2874,-14.2412,-14.3874,-14.8106,-14.849,-15.0183,-15.3414,-15.503,-15.5799,-15.5722,-15.6477,-15.6293,-15.4987,-15.4111,-15.3897,-15.4139,-15.2112,-15.1158,-15.0791,-15.0204,-14.991,-14.991,-14.991,-15.0424,-15.1085,-15.0277,-15.0497,-15.1305,-16.0877,-16.1493,-16.3416,-16.8802,-17.2495,-17.6111,-18.0112,-18.1727,-18.2805,-18.4036,-18.4189,-18.4189,-18.4189,-18.4497,-18.4728,-18.4728,-18.5497,-18.6267,-18.7113,-18.8498,-18.9036,-18.8498,-18.9267,-18.89,-18.7187,-18.5894,-18.1619,-17.4235,-17.0208,-16.4363,-15.7109,-15.5703,-15.539,-15.5937,-15.6562,-15.8203,-16.0625,-16.4921,-16.8515,-17.1562,-17.4921,-17.6796,-17.7578,-17.6406,-17.5937,-17.5703,-17.3828,-17.3437,-17.3828,-17.3515,-17.4296,-17.5312,-17.4609,-17.3671,-17.289,-17.2968,-17.2578,-17.2187,-17.2734,-17.3515,-17.3984,-17.3515,-17.3515,-17.3514,-17.3104,-17.1586,-17.0066,-17.0114,-16.7236,-16.4032,-16.1493,-16.1031,-16.0416,-15.8877,-15.8723,-15.8415,-15.7261,-15.7184,-15.6338,-15.3568,-15.2029,-14.9875,-14.7182,-14.649,-14.5874,-14.5182,-14.4105,-14.3335,-14.3105,-14.3797,-14.5413,-14.8106,-15.0183,-15.2414,-15.4799,-15.603,-15.6569,-15.6569,-15.7415,-15.7646,-15.7137,-15.5968,-15.4573,-15.2936,-15.2556,-15.1564,-15.035,-14.9983,-14.991,-14.991,-14.991,-15.035,-15.1011,-15.0204,-15.0718,-15.1892,-16.534,-16.6109,-16.8186,-17.3264,-17.5495,-17.8034,-18.2035,-18.2266,-18.2189,-18.2497,-18.2574,-18.2805,-18.3266,-18.2881,-18.2805,-18.3266,-18.3805,-18.4497,-18.542,-18.7267,-18.7882,-18.6805,-18.7805,-18.7683,-18.6178,-18.5406,-18.2217,-17.629,-17.2089,-16.6404,-15.9517,-15.7017,-15.6634,-15.8125,-15.8281,-15.9922,-16.25,-16.6406,-16.9062,-17.1171,-17.4218,-17.5625,-17.5703,-17.4609,-17.4062,-17.3906,-17.1796,-17.1562,-17.2265,-17.2031,-17.289,-17.4062,-17.4062,-17.3281,-17.2265,-17.2421,-17.1796,-17.1171,-17.1796,-17.2578,-17.2968,-17.2187,-17.2421,-17.2578,-17.1796,-17.058,-16.9279,-16.8275,-16.6198,-16.3999,-16.237,-16.157,-16.0877,-15.98,-15.8877,-15.803,-15.7184,-15.6338,-15.5107,-15.3106,-15.1337,-14.949,-14.749,-14.6798,-14.6336,-14.6105,-14.572,-14.5105,-14.4259,-14.5182,-14.6721,-14.8875,-15.126,-15.3568,-15.5799,-15.6723,-15.7107,-15.7107,-15.7723,-15.8107,-15.8308,-15.7726,-15.5883,-15.3336,-15.3411,-15.2446,-15.0571,-15.0057,-14.991,-14.991,-15.0204,-15.0497,-15.0718,-15.0571,-15.1158,-15.1966,-16.9879,-17.0879,-17.2495,-17.7573,-17.9881,-18.0804,-18.0112,-18.0573,-18.0804,-18.0035,-17.9881,-18.0573,-18.2189,-18.0881,-18.0573,-18.2266,-18.242,-18.2805,-18.3728,-18.6113,-18.6728,-18.5036,-18.6574,-18.6526,-18.4475,-18.4883,-18.2777,-17.8103,-17.4979,-16.9826,-16.2594,-15.8294,-15.791,-16.0781,-16.1562,-16.3437,-16.6015,-16.8671,-17.1171,-17.3593,-17.3593,-17.4062,-17.4687,-17.2968,-17.2265,-17.2187,-17.1406,-17.1562,-17.2187,-17.1406,-17.1718,-17.2265,-17.2265,-17.2265,-17.2031,-17.0312,-17.039,-17.1093,-17.1093,-17.1718,-17.2109,-17.1328,-17.1093,-17.0937,-17.0,-16.8783,-16.712,-16.461,-16.4029,-16.3601,-16.2339,-16.2108,-16.1493,-15.9877,-15.8877,-15.803,-15.7184,-15.6338,-15.4876,-15.2337,-15.2029,-15.1029,-14.8413,-14.8182,-14.7798,-14.7028,-14.7721,-14.7798,-14.6875,-14.6105,-14.7182,-15.0568,-15.0721,-15.2414,-15.5799,-15.6723,-15.7107,-15.7107,-15.7107,-15.7492,-15.8261,-15.9185,-15.8563,-15.6917,-15.5378,-15.3783,-15.2112,-15.0571,-14.991,-14.9983,-15.0791,-15.0571,-15.0057,-15.1672,-15.1819,-15.1305,-17.5034,-17.5803,-17.6726,-17.8265,-17.9496,-18.0189,-17.9881,-18.0112,-18.0189,-17.9881,-17.9419,-17.9419,-18.0573,-18.0189,-18.0112,-18.0573,-18.1727,-18.2497,-18.2805,-18.4574,-18.5497,-18.4882,-18.542,-18.4984,-18.3468,-18.4572,-18.3088,-17.897,-17.6622,-17.2107,-16.5689,-16.3189,-16.3118,-16.5234,-16.539,-16.6718,-16.8671,-17.0703,-17.1718,-17.2031,-17.3125,-17.3125,-17.2187,-17.1718,-17.1484,-17.1406,-17.0468,-17.0,-16.9765,-17.0078,-17.0,-16.9765,-17.039,-17.1015,-17.1406,-17.0781,-17.0468,-17.0078,-16.9531,-16.9921,-17.0234,-16.8828,-16.8437,-16.8437,-16.8125,-16.7378,-16.6314,-16.4119,-16.3778,-16.3601,-16.2339,-16.2108,-16.157,-15.9877,-15.9415,-15.8261,-15.5722,-15.5107,-15.403,-15.1414,-15.1106,-15.0568,-14.9183,-14.9567,-14.9106,-14.7105,-14.7182,-14.6721,-14.5336,-14.7721,-14.9567,-15.0721,-15.303,-15.503,-15.6723,-15.703,-15.7107,-15.7107,-15.7107,-15.7492,-15.8261,-15.98,-15.9718,-15.8285,-15.7337,-15.5618,-15.3435,-15.1803,-15.06,-15.0102,-15.1712,-15.2248,-15.21,-15.3139,-15.3732,-15.3936,-17.7727,-17.8034,-17.8111,-17.8111,-17.8804,-17.9265,-17.9035,-17.9188,-17.9265,-17.9035,-17.8419,-17.8265,-17.8881,-17.8881,-17.9111,-17.9419,-18.0419,-18.1112,-18.142,-18.3035,-18.4036,-18.4036,-18.4266,-18.3905,-18.2616,-18.3872,-18.3181,-18.0297,-17.737,-17.3585,-16.9062,-16.7177,-16.7179,-16.8671,-16.8671,-16.9609,-17.1328,-17.2031,-17.2187,-17.2109,-17.25,-17.2031,-17.1093,-17.0703,-17.0625,-17.0468,-17.0,-16.9218,-16.8593,-16.9062,-16.8984,-16.8593,-16.9062,-16.9687,-17.0234,-17.0468,-17.0,-16.9218,-16.8593,-16.8671,-16.8515,-16.7109,-16.7031,-16.7109,-16.6796,-16.6233,-16.5263,-16.3712,-16.3589,-16.3425,-16.2322,-16.1877,-16.1185,-15.98,-15.88,-15.7261,-15.4799,-15.3722,-15.2491,-15.0875,-15.0106,-14.9798,-14.9875,-14.9798,-14.9413,-14.8413,-14.7721,-14.7182,-14.6798,-14.8413,-15.0337,-15.2491,-15.4414,-15.603,-15.7492,-15.7261,-15.7107,-15.7107,-15.7107,-15.7492,-15.8261,-15.9415,-15.9394,-15.8495,-15.7656,-15.6232,-15.4185,-15.2912,-15.2108,-15.1871,-15.3433,-15.401,-15.411,-15.4817,-15.5053,-15.521,-17.8419,-17.788,-17.7342,-17.7342,-17.8034,-17.8265,-17.7496,-17.8034,-17.8188,-17.7496,-17.7342,-17.7342,-17.7342,-17.7342,-17.7573,-17.8419,-17.8573,-17.9035,-17.9804,-18.142,-18.242,-18.2497,-18.3189,-18.2979,-18.1788,-18.3131,-18.3229,-18.2022,-17.7917,-17.4788,-17.2733,-17.0717,-17.0337,-17.1405,-17.1406,-17.2187,-17.3593,-17.2812,-17.2812,-17.3437,-17.1796,-17.1093,-17.0937,-17.0078,-16.9765,-16.9765,-16.9765,-16.9218,-16.8437,-16.8437,-16.8437,-16.8281,-16.8437,-16.8437,-16.8515,-16.9375,-16.9062,-16.8437,-16.8281,-16.7734,-16.6875,-16.6015,-16.6406,-16.6796,-16.5781,-16.5078,-16.4431,-16.352,-16.3282,-16.3086,-16.2179,-16.1416,-16.0493,-15.9723,-15.7492,-15.5492,-15.4491,-15.2337,-15.0721,-15.0568,-14.9337,-14.9106,-15.0721,-14.9413,-14.9029,-15.0414,-14.9106,-14.8875,-15.0414,-14.8336,-14.9721,-15.5492,-15.503,-15.5799,-15.8184,-15.7492,-15.7107,-15.7107,-15.7107,-15.7492,-15.8184,-15.8261,-15.8124,-15.7732,-15.7006,-15.5892,-15.4789,-15.4003,-15.4034,-15.4819,-15.5695,-15.6118,-15.6329,-15.6731,-15.634,-15.5607,-17.7573,-17.7419,-17.7342,-17.7342,-17.7496,-17.7804,-17.8188,-17.788,-17.7804,-17.8188,-17.7727,-17.7342,-17.7342,-17.7342,-17.7419,-17.7573,-17.8188,-17.9035,-17.9804,-18.0804,-18.2035,-18.3266,-18.3035,-18.2293,-18.1263,-18.2613,-18.3078,-18.2872,-18.0273,-17.8566,-17.7717,-17.552,-17.4501,-17.4437,-17.4132,-17.4218,-17.4531,-17.3671,-17.2968,-17.25,-17.1484,-17.0703,-17.0078,-16.9921,-16.9765,-16.9765,-16.9765,-16.8828,-16.75,-16.75,-16.7109,-16.6562,-16.7265,-16.7109,-16.6796,-16.8437,-16.8203,-16.7421,-16.6718,-16.6406,-16.6015,-16.5078,-16.5078,-16.4765,-16.3281,-16.3828,-16.4196,-16.2741,-16.2426,-16.2309,-16.2102,-16.0877,-15.98,-15.9569,-15.7492,-15.503,-15.2876,-15.2106,-15.1183,-14.9875,-15.0568,-15.1491,-15.2568,-15.1722,-15.0491,-14.8875,-14.8413,-14.8413,-14.8798,-14.8182,-15.0029,-15.4722,-15.5876,-15.6799,-15.7415,-15.7184,-15.7107,-15.7107,-15.7107,-15.7184,-15.7415,-15.803,-15.8215,-15.8101,-15.798,-15.7247,-15.6012,-15.5175,-15.4842,-15.4909,-15.6677,-15.7762,-15.8523,-15.9225,-15.9251,-15.8842,-17.788,-17.788,-17.7804,-17.7419,-17.7342,-17.7496,-17.788,-17.7573,-17.7496,-17.788,-17.7573,-17.7342,-17.7342,-17.7342,-17.7342,-17.7342,-17.7727,-17.8496,-17.9804,-18.0266,-18.1266,-18.3035,-18.2728,-18.2035,-18.1112,-18.2408,-18.2813,-18.229,-18.1373,-18.0124,-17.8482,-17.77,-17.6932,-17.609,-17.5688,-17.5468,-17.539,-17.3671,-17.2734,-17.2187,-17.1015,-17.0234,-16.9765,-16.9765,-16.9609,-16.9218,-16.9218,-16.8125,-16.6562,-16.6562,-16.6328,-16.6015,-16.6484,-16.6015,-16.5468,-16.6406,-16.6406,-16.6015,-16.5937,-16.5625,-16.5078,-16.4218,-16.4296,-16.4296,-16.289,-16.3671,-16.4204,-16.2696,-16.2168,-16.1993,-16.1926,-16.0271,-15.9031,-15.9031,-15.5876,-15.303,-15.1568,-15.0414,-14.9567,-14.949,-15.1029,-15.2337,-15.3183,-15.2876,-15.2029,-15.0568,-14.9798,-14.949,-14.9875,-14.9875,-15.126,-15.4414,-15.5415,-15.6107,-15.6492,-15.6876,-15.7107,-15.7107,-15.7107,-15.7107,-15.7107,-15.7569,-15.78,-15.78,-15.78,-15.7628,-15.7274,-15.6508,-15.6728,-15.7618,-15.8289,-15.9419,-16.0498,-16.0288,-16.0326,-15.9857,-17.8573,-17.8573,-17.8265,-17.7496,-17.7342,-17.7342,-17.7496,-17.7419,-17.7342,-17.7496,-17.7419,-17.7342,-17.7342,-17.7342,-17.7419,-17.7496,-17.7496,-17.8188,-17.9804,-18.0035,-18.0804,-18.2343,-18.242,-18.2035,-18.1112,-18.2177,-18.2297,-18.1308,-18.1498,-18.0316,-17.7671,-17.8413,-17.8004,-17.674,-17.6307,-17.6093,-17.5781,-17.3437,-17.2265,-17.2187,-17.0468,-16.9765,-16.9765,-16.9765,-16.9296,-16.8515,-16.8515,-16.7421,-16.5937,-16.6093,-16.6015,-16.5937,-16.6093,-16.539,-16.4609,-16.4765,-16.4609,-16.4609,-16.5312,-16.5078,-16.4375,-16.3671,-16.4062,-16.4375,-16.3671,-16.4062,-16.4212,-16.3012,-16.2296,-16.1829,-16.1355,-15.9628,-15.8107,-15.7877,-15.403,-15.0875,-15.0721,-14.8721,-14.7875,-14.949,-15.1183,-15.2491,-15.3414,-15.3491,-15.3491,-15.3491,-15.2106,-15.1491,-15.2183,-15.2183,-15.2799,-15.4261,-15.4568,-15.5107,-15.603,-15.6723,-15.7107,-15.7107,-15.7107,-15.7107,-15.7107,-15.7107,-15.7107,-15.7107,-15.7184,-15.7723,-15.8261,-15.7723,-15.88,-16.08,-16.0108,-16.0723,-16.2014,-16.085,-16.0555,-16.0211,-17.8573,-17.8573,-17.8265,-17.7496,-17.7342,-17.7496,-17.8265,-17.7804,-17.7573,-17.8265,-17.7804,-17.7342,-17.7342,-17.7342,-17.7573,-17.8265,-17.8419,-17.8804,-17.9804,-18.0496,-18.142,-18.242,-18.242,-18.2035,-18.1112,-18.1017,-18.1222,-18.171,-18.0823,-17.989,-17.9046,-17.8535,-17.749,-17.6158,-17.6199,-17.5781,-17.5,-17.3125,-17.2265,-17.2187,-17.0468,-16.9765,-16.9765,-16.9765,-16.9296,-16.8515,-16.8515,-16.7421,-16.6015,-16.6718,-16.6484,-16.6015,-16.6796,-16.5937,-16.4687,-16.5468,-16.4687,-16.3515,-16.3671,-16.4062,-16.4609,-16.4375,-16.4531,-16.4609,-16.4375,-16.4531,-16.4212,-16.3012,-16.1828,-16.0913,-16.0525,-15.8702,-15.703,-15.6338,-15.3722,-15.1491,-15.0798,-14.9798,-14.9413,-15.0414,-15.2029,-15.3414,-15.4184,-15.4261,-15.4261,-15.4261,-15.4107,-15.3722,-15.3106,-15.3106,-15.3183,-15.3491,-15.4876,-15.603,-15.6876,-15.703,-15.7107,-15.7107,-15.7107,-15.7107,-15.7107,-15.7107,-15.7107,-15.7107,-15.78,-15.8184,-15.8261,-15.9031,-15.9877,-16.0877,-16.08,-16.1339,-16.2077,-16.1873,-16.1841,-16.16,-17.9419,-17.9265,-17.9188,-17.8804,-17.788,-17.7573,-17.8496,-17.788,-17.7419,-17.7804,-17.7496,-17.7342,-17.7342,-17.7727,-17.8188,-17.8573,-17.9419,-18.0112,-18.0496,-18.0881,-18.1497,-18.242,-18.242,-18.2035,-18.1112,-18.0898,-18.0577,-18.0114,-17.9825,-17.8895,-17.7596,-17.8432,-17.7816,-17.6079,-17.6736,-17.6406,-17.5468,-17.3203,-17.2265,-17.2187,-17.1015,-17.0468,-17.039,-17.0,-16.9609,-16.9062,-16.8125,-16.7031,-16.6015,-16.6406,-16.5937,-16.5312,-16.5703,-16.4921,-16.3984,-16.4375,-16.4609,-16.4609,-16.4062,-16.4609,-16.5078,-16.4062,-16.4609,-16.5078,-16.4062,-16.4296,-16.4217,-16.2631,-16.1166,-16.0122,-15.9882,-15.8344,-15.7107,-15.7107,-15.3491,-15.1029,-15.2029,-14.9798,-14.8875,-15.1106,-15.2876,-15.4261,-15.5107,-15.5184,-15.5184,-15.5184,-15.4799,-15.4261,-15.403,-15.3491,-15.326,-15.326,-15.4491,-15.5722,-15.7107,-15.7107,-15.7107,-15.7107,-15.7107,-15.7107,-15.7107,-15.7107,-15.7107,-15.7107,-15.803,-15.8569,-15.9031,-15.9415,-16.0416,-16.1493,-16.1108,-16.1416,-16.2108,-16.2108,-16.2108,-16.1905,-18.0266,-18.0189,-18.0112,-17.9881,-17.8804,-17.8111,-17.8804,-17.8265,-17.7804,-17.7573,-17.7573,-17.7573,-17.7573,-17.8188,-17.8804,-17.9111,-18.0419,-18.1189,-18.142,-18.142,-18.1574,-18.2112,-18.1881,-18.1497,-18.0804,-18.0573,-17.9804,-17.8265,-17.8677,-17.7762,-17.6008,-17.7974,-17.8014,-17.6296,-17.7062,-17.7031,-17.6093,-17.3828,-17.2812,-17.25,-17.1328,-17.1015,-17.1328,-17.0234,-16.9765,-16.9687,-16.8515,-16.7265,-16.6171,-16.6406,-16.5781,-16.4921,-16.4921,-16.4296,-16.3593,-16.3593,-16.4687,-16.5703,-16.4765,-16.5234,-16.5625,-16.4218,-16.5078,-16.5781,-16.4296,-16.4375,-16.4375,-16.2422,-16.0924,-15.9717,-15.9313,-15.8229,-15.7261,-15.7184,-15.3491,-15.1106,-15.2491,-15.0029,-14.9106,-15.2029,-15.3799,-15.5107,-15.5722,-15.603,-15.6107,-15.6107,-15.5492,-15.5107,-15.5107,-15.4261,-15.3876,-15.3876,-15.4261,-15.5261,-15.7107,-15.7107,-15.7107,-15.7107,-15.7107,-15.7107,-15.7107,-15.7107,-15.7184,-15.7415,-15.8184,-15.9108,-15.9877,-16.0108,-16.0877,-16.2031,-16.1416,-16.157,-16.2108,-16.2108,-16.2108,-16.2014,-18.0958,-18.0958,-18.0804,-18.0035,-17.9804,-17.9727,-17.9804,-17.9727,-17.9419,-17.8573,-17.8496,-17.8496,-17.8496,-17.8573,-17.9188,-18.0804,-18.0958,-18.142,-18.2266,-18.2343,-18.2035,-18.1189,-18.0496,-18.0112,-18.0035,-17.9188,-17.8265,-17.7419,-17.741,-17.6796,-17.5595,-17.6917,-17.7287,-17.6767,-17.7325,-17.7031,-17.6093,-17.5078,-17.4218,-17.3281,-17.0937,-17.0781,-17.2031,-17.039,-16.9765,-16.9921,-17.0625,-16.9218,-16.7187,-16.7968,-16.7187,-16.5781,-16.5781,-16.5234,-16.4531,-16.4531,-16.5234,-16.5703,-16.4765,-16.5234,-16.5937,-16.5703,-16.6406,-16.6875,-16.5937,-16.5781,-16.5078,-16.2578,-16.1393,-16.0184,-15.869,-15.8306,-15.7184,-15.4184,-15.3876,-15.3414,-15.1183,-15.1337,-15.2029,-15.3106,-15.4722,-15.5722,-15.5799,-15.6492,-15.703,-15.703,-15.6876,-15.6876,-15.6876,-15.6107,-15.5568,-15.5568,-15.4876,-15.5261,-15.7107,-15.7107,-15.7107,-15.7107,-15.7107,-15.7107,-15.7107,-15.7107,-15.7492,-15.8261,-15.9108,-16.0031,-16.0877,-16.157,-16.2031,-16.2108,-16.2031,-16.2031,-16.2108,-16.2108,-16.2108,-16.2108,-18.1881,-18.1497,-18.1189,-18.142,-18.0573,-18.0112,-18.0573,-18.0189,-17.9804,-17.9419,-17.9419,-17.9419,-17.9419,-17.9881,-18.0419,-18.0958,-18.1574,-18.2035,-18.242,-18.242,-18.2035,-18.1112,-18.0804,-18.0189,-17.9111,-17.8804,-17.8188,-17.7342,-17.7583,-17.7187,-17.6316,-17.7279,-17.747,-17.6793,-17.7328,-17.7031,-17.6093,-17.5312,-17.4375,-17.3515,-17.2031,-17.2109,-17.289,-17.0625,-17.039,-17.1328,-17.0468,-16.9687,-16.8828,-16.8593,-16.7734,-16.6484,-16.539,-16.4921,-16.4609,-16.4609,-16.4765,-16.5078,-16.5312,-16.6015,-16.6562,-16.6015,-16.6093,-16.6171,-16.5312,-16.4687,-16.3984,-16.2968,-16.1393,-15.9873,-15.9172,-15.8693,-15.7877,-15.6569,-15.5799,-15.503,-15.403,-15.326,-15.3106,-15.3876,-15.5107,-15.603,-15.6569,-15.6876,-15.7107,-15.7107,-15.7107,-15.7107,-15.7107,-15.6338,-15.5799,-15.5799,-15.5492,-15.5876,-15.7107,-15.7107,-15.7107,-15.7107,-15.7107,-15.7107,-15.7107,-15.7569,-15.803,-15.8415,-15.98,-16.0569,-16.1031,-16.18,-16.2108,-16.2108,-16.2108,-16.2108,-16.2108,-16.2108,-16.2108,-16.2108,-18.242,-18.1881,-18.1727,-18.2343,-18.142,-18.0881,-18.142,-18.1035,-18.0573,-18.0266,-18.0266,-18.0266,-18.0266,-18.0804,-18.1189,-18.1497,-18.1804,-18.2035,-18.2035,-18.1804,-18.1266,-18.0727,-18.0189,-17.9419,-17.8188,-17.8188,-17.7573,-17.6496,-17.7381,-17.7194,-17.6237,-17.7294,-17.7607,-17.7038,-17.7415,-17.7031,-17.6171,-17.5625,-17.4765,-17.3906,-17.25,-17.2578,-17.3437,-17.1093,-17.1093,-17.2187,-17.1562,-17.1015,-17.039,-16.9296,-16.8281,-16.7265,-16.5234,-16.4609,-16.4609,-16.4609,-16.4765,-16.5234,-16.6093,-16.6875,-16.75,-16.6875,-16.6718,-16.6484,-16.5625,-16.4687,-16.3984,-16.3437,-16.1705,-16.034,-16.0029,-15.9467,-15.8877,-15.8415,-15.7569,-15.6799,-15.6338,-15.5184,-15.4722,-15.5261,-15.5799,-15.6415,-15.703,-15.7107,-15.7107,-15.7107,-15.7107,-15.7107,-15.7107,-15.6492,-15.6184,-15.6184,-15.6184,-15.6492,-15.7107,-15.7107,-15.7107,-15.7107,-15.7107,-15.7107,-15.7107,-15.7877,-15.8415,-15.88,-16.0339,-16.1031,-16.1339,-16.1877,-16.2108,-16.2108,-16.2108,-16.2108,-16.2108,-16.2108,-16.2108,-16.2108,-18.242,-18.242,-18.242,-18.242,-18.242,-18.242,-18.242,-18.242,-18.2112,-18.1189,-18.1112,-18.1112,-18.1112,-18.1112,-18.1497,-18.2343,-18.1574,-18.1112,-18.1112,-18.0419,-17.9881,-17.9881,-17.8188,-17.7342,-17.7342,-17.7342,-17.6496,-17.4803,-17.6496,-17.6485,-17.4878,-17.6591,-17.737,-17.75,-17.75,-17.7031,-17.6171,-17.6171,-17.5703,-17.4687,-17.2109,-17.2109,-17.3437,-17.1718,-17.1562,-17.25,-17.4296,-17.3828,-17.2109,-17.039,-16.9218,-16.8125,-16.539,-16.4609,-16.4609,-16.4609,-16.5234,-16.6093,-16.7031,-16.7812,-16.8515,-16.8515,-16.8515,-16.8281,-16.7421,-16.6484,-16.539,-16.3671,-16.2719,-16.1803,-16.1025,-16.0938,-16.0339,-15.8569,-15.9031,-15.9031,-15.7338,-15.7107,-15.7107,-15.7107,-15.7107,-15.7107,-15.7107,-15.7107,-15.7107,-15.7107,-15.7107,-15.7107,-15.7107,-15.7107,-15.7107,-15.7107,-15.7107,-15.7107,-15.7107,-15.7107,-15.7107,-15.7107,-15.7107,-15.7107,-15.7107,-15.803,-15.88,-15.9723,-16.0493,-16.1416,-16.2108,-16.2108,-16.2108,-16.2108,-16.2108,-16.2108,-16.2108,-16.2108,-16.2108,-16.2108,-18.242,-18.242,-18.242,-18.242,-18.242,-18.242,-18.242,-18.242,-18.2343,-18.2035,-18.2035,-18.2035,-18.2035,-18.2035,-18.2112,-18.242,-18.2189,-18.2035,-18.2035,-18.0727,-17.9881,-17.9881,-17.8804,-17.788,-17.7342,-17.7342,-17.6803,-17.5726,-17.7103,-17.7137,-17.5829,-17.6561,-17.7221,-17.75,-17.6875,-17.6406,-17.6171,-17.6171,-17.5703,-17.4765,-17.3437,-17.3203,-17.3515,-17.2421,-17.2109,-17.2421,-17.289,-17.3125,-17.289,-17.0625,-16.9609,-16.8828,-16.5625,-16.5,-16.5468,-16.5468,-16.6093,-16.7031,-16.789,-16.8281,-16.8515,-16.8515,-16.7578,-16.6796,-16.7109,-16.6093,-16.5,-16.5078,-16.3968,-16.2675,-16.1881,-16.1325,-16.0493,-15.9415,-15.9877,-15.9723,-15.7415,-15.7569,-15.7492,-15.6338,-15.6723,-15.7338,-15.7877,-15.7415,-15.7338,-15.7877,-15.7415,-15.7107,-15.7107,-15.7107,-15.7107,-15.7107,-15.7107,-15.7415,-15.7877,-15.7877,-15.7723,-15.7107,-15.8261,-15.8492,-15.803,-15.9492,-16.0339,-16.0569,-16.1416,-16.1877,-16.2108,-16.2108,-16.2108,-16.2108,-16.2108,-16.2108,-16.2108,-16.2108,-16.2108,-16.2108,-18.242,-18.242,-18.242,-18.242,-18.242,-18.242,-18.242,-18.242,-18.242,-18.242,-18.242,-18.242,-18.242,-18.242,-18.242,-18.242,-18.2112,-18.1881,-18.1881,-18.0266,-17.9496,-17.9881,-17.8727,-17.7804,-17.7342,-17.7034,-17.6573,-17.6111,-17.6472,-17.6521,-17.6124,-17.6366,-17.6738,-17.7031,-17.6406,-17.6015,-17.5703,-17.5703,-17.539,-17.4765,-17.3984,-17.3593,-17.3515,-17.2968,-17.2812,-17.289,-17.3203,-17.3671,-17.3671,-17.1171,-16.9375,-16.7812,-16.539,-16.5,-16.5468,-16.5781,-16.6484,-16.7421,-16.8281,-16.8828,-16.8984,-16.8984,-16.7968,-16.6875,-16.6718,-16.5937,-16.5078,-16.4921,-16.4124,-16.322,-16.266,-16.1867,-16.1185,-16.0723,-16.08,-16.0416,-15.88,-15.8415,-15.7877,-15.6876,-15.703,-15.7261,-15.78,-15.7415,-15.7261,-15.78,-15.7415,-15.7107,-15.7107,-15.7107,-15.7107,-15.7107,-15.7107,-15.7492,-15.8261,-15.8569,-15.8569,-15.8107,-15.9108,-15.9262,-15.8877,-16.0339,-16.0877,-16.0877,-16.18,-16.2108,-16.2108,-16.2108,-16.2108,-16.2108,-16.2108,-16.2108,-16.2108,-16.2108,-16.2108,-16.2108,-18.242,-18.242,-18.242,-18.242,-18.242,-18.242,-18.242,-18.242,-18.242,-18.242,-18.242,-18.242,-18.242,-18.242,-18.242,-18.242,-18.1727,-18.1189,-18.1189,-17.9573,-17.9111,-17.9881,-17.8188,-17.7342,-17.7342,-17.6573,-17.6188,-17.6111,-17.5418,-17.5403,-17.5968,-17.6124,-17.6133,-17.6093,-17.6093,-17.5703,-17.5,-17.4921,-17.4921,-17.4921,-17.4062,-17.3671,-17.3593,-17.3593,-17.3593,-17.3671,-17.4375,-17.4687,-17.4375,-17.1796,-16.8671,-16.5937,-16.4921,-16.4687,-16.5,-16.5781,-16.6718,-16.7578,-16.8437,-16.9218,-16.9765,-16.9765,-16.9218,-16.8203,-16.6484,-16.6093,-16.5625,-16.3906,-16.3586,-16.3639,-16.336,-16.2689,-16.2124,-16.2108,-16.1416,-16.0877,-16.08,-15.9415,-15.8261,-15.8184,-15.7492,-15.7107,-15.7184,-15.7184,-15.7184,-15.7107,-15.7107,-15.7107,-15.7107,-15.7107,-15.7107,-15.7107,-15.7184,-15.7569,-15.8415,-15.9262,-15.9723,-15.9569,-15.98,-15.98,-15.9723,-16.0569,-16.1031,-16.1031,-16.18,-16.2108,-16.2031,-16.2031,-16.1877,-16.1877,-16.1877,-16.1877,-16.2031,-16.2031,-16.2031,-16.2108,-18.242,-18.242,-18.242,-18.242,-18.242,-18.242,-18.242,-18.242,-18.242,-18.242,-18.242,-18.242,-18.242,-18.242,-18.242,-18.242,-18.2189,-18.2112,-18.2112,-18.0496,-17.9727,-17.9881,-17.8188,-17.7342,-17.7342,-17.7111,-17.6726,-17.6111,-17.6496,-17.6176,-17.5112,-17.5796,-17.581,-17.5234,-17.5234,-17.5468,-17.5937,-17.5234,-17.5312,-17.5781,-17.5,-17.4218,-17.3593,-17.3593,-17.3593,-17.3515,-17.2968,-17.3281,-17.3437,-17.0234,-16.8125,-16.6562,-16.5078,-16.5468,-16.6718,-16.6875,-16.7968,-16.9296,-16.9531,-16.9687,-16.9765,-16.9765,-16.9687,-16.9218,-16.8203,-16.789,-16.7421,-16.5703,-16.5636,-16.5415,-16.3732,-16.2868,-16.2492,-16.2201,-16.1416,-16.0723,-16.0031,-15.9031,-15.8107,-15.7415,-15.7184,-15.7338,-15.803,-15.803,-15.78,-15.7107,-15.7107,-15.7107,-15.7107,-15.7107,-15.7107,-15.7107,-15.7723,-15.8492,-15.9262,-16.0185,-16.0262,-15.9569,-16.0877,-16.1185,-16.0569,-16.1493,-16.18,-16.18,-16.2031,-16.1724,-16.1185,-16.1185,-16.08,-16.0108,-16.0108,-16.0569,-16.1185,-16.1185,-16.157,-16.2108,-18.1804,-18.2112,-18.242,-18.242,-18.242,-18.242,-18.242,-18.242,-18.242,-18.242,-18.242,-18.242,-18.242,-18.242,-18.242,-18.242,-18.242,-18.242,-18.242,-18.0804,-17.9881,-17.9881,-17.8573,-17.7727,-17.7342,-17.7727,-17.7496,-17.6726,-17.6265,-17.5867,-17.5406,-17.5484,-17.5264,-17.4921,-17.4921,-17.5234,-17.5468,-17.5078,-17.5234,-17.5468,-17.5078,-17.4609,-17.4218,-17.3828,-17.3593,-17.3515,-17.2578,-17.2265,-17.2031,-16.9375,-16.789,-16.6875,-16.5078,-16.5468,-16.6718,-16.7109,-16.8125,-16.9296,-16.9687,-16.9765,-16.9765,-16.9765,-16.9765,-16.9531,-16.8203,-16.789,-16.7421,-16.5625,-16.5737,-16.5485,-16.3669,-16.3358,-16.3084,-16.2154,-16.1108,-16.0108,-15.9723,-15.8492,-15.7569,-15.7184,-15.7107,-15.7261,-15.7723,-15.7723,-15.7569,-15.7107,-15.7107,-15.7107,-15.7107,-15.7107,-15.7261,-15.7723,-15.8107,-15.8877,-16.0185,-16.0723,-16.0877,-16.08,-16.1724,-16.1877,-16.1493,-16.1877,-16.2108,-16.2108,-16.2108,-16.1877,-16.1493,-16.1493,-16.1031,-16.0185,-16.0185,-16.0185,-16.0339,-16.0723,-16.1416,-16.2108,-18.1266,-18.1881,-18.242,-18.242,-18.242,-18.242,-18.242,-18.242,-18.2343,-18.2189,-18.2189,-18.2189,-18.2189,-18.2343,-18.242,-18.242,-18.242,-18.242,-18.242,-18.1035,-18.0035,-17.9881,-17.9188,-17.8419,-17.7496,-17.8188,-17.8188,-17.7342,-17.6047,-17.5695,-17.6262,-17.5489,-17.5082,-17.5078,-17.5,-17.5,-17.5078,-17.5,-17.5,-17.5078,-17.4765,-17.4687,-17.4609,-17.3437,-17.2968,-17.2968,-17.2031,-17.1171,-17.039,-16.8593,-16.7578,-16.6718,-16.5078,-16.5234,-16.6093,-16.6875,-16.7812,-16.8671,-16.9609,-16.9765,-16.9765,-16.9765,-16.9765,-16.9375,-16.7968,-16.75,-16.6875,-16.5234,-16.5127,-16.4983,-16.3839,-16.3825,-16.3517,-16.2262,-16.0723,-15.9492,-15.9415,-15.8107,-15.7107,-15.7107,-15.7107,-15.7107,-15.7107,-15.7107,-15.7107,-15.7107,-15.7107,-15.7107,-15.7107,-15.7107,-15.7492,-15.8261,-15.8415,-15.9262,-16.0877,-16.1031,-16.1416,-16.2108,-16.2108,-16.2108,-16.2108,-16.2108,-16.2108,-16.2108,-16.2108,-16.2031,-16.1877,-16.1877,-16.1339,-16.0493,-16.0493,-16.0108,-15.9723,-16.0723,-16.1493,-16.2108,-18.2112,-18.2343,-18.242,-18.242,-18.242,-18.242,-18.242,-18.242,-18.2112,-18.142,-18.1266,-18.1266,-18.1266,-18.1881,-18.242,-18.242,-18.242,-18.242,-18.242,-18.1497,-18.0573,-17.9881,-17.9804,-17.9265,-17.8419,-17.8496,-17.8188,-17.7342,-17.753,-17.7387,-17.7213,-17.6689,-17.6318,-17.6015,-17.5234,-17.5312,-17.6015,-17.5234,-17.5312,-17.5937,-17.4375,-17.3828,-17.3515,-17.1171,-17.0781,-17.1171,-16.9609,-16.8906,-16.8593,-16.6796,-16.6171,-16.5937,-16.4921,-16.5234,-16.6093,-16.6875,-16.7812,-16.8671,-16.9609,-16.9765,-16.9765,-16.9765,-16.9765,-16.9687,-16.9531,-16.8906,-16.7812,-16.6093,-16.578,-16.5503,-16.4583,-16.3935,-16.3203,-16.2274,-16.0723,-15.9262,-15.8569,-15.7723,-15.7107,-15.7107,-15.7107,-15.7107,-15.7107,-15.7107,-15.7107,-15.7107,-15.7107,-15.7107,-15.7107,-15.7107,-15.7492,-15.8261,-15.9031,-15.9877,-16.0877,-16.157,-16.2031,-16.2108,-16.2108,-16.2108,-16.2108,-16.2108,-16.2108,-16.2108,-16.2108,-16.1724,-16.1108,-16.1108,-16.0108,-15.8723,-15.8723,-15.9031,-15.98,-16.1416,-16.2031,-16.2108,-18.1497,-18.2112,-18.242,-18.242,-18.242,-18.242,-18.242,-18.2035,-18.1497,-18.1189,-18.1112,-18.1112,-18.1112,-18.1881,-18.242,-18.242,-18.242,-18.242,-18.242,-18.1189,-18.0266,-17.9881,-17.9881,-17.9496,-17.8573,-17.9111,-17.8727,-17.7342,-17.7336,-17.7068,-17.6668,-17.6267,-17.6101,-17.6171,-17.5312,-17.5078,-17.539,-17.4531,-17.4375,-17.4609,-17.3437,-17.2578,-17.2031,-17.039,-16.9687,-16.9531,-16.8203,-16.7812,-16.7578,-16.6328,-16.5937,-16.5703,-16.4921,-16.5234,-16.6093,-16.6875,-16.7812,-16.8671,-16.9609,-16.9765,-16.9765,-16.9765,-16.9765,-16.9765,-16.9765,-16.9062,-16.8125,-16.6875,-16.6562,-16.6079,-16.4588,-16.4207,-16.3781,-16.2622,-16.1177,-16.0031,-15.9108,-15.8261,-15.7569,-15.7184,-15.7107,-15.7107,-15.7107,-15.7107,-15.7107,-15.7107,-15.7107,-15.7107,-15.7107,-15.7107,-15.7723,-15.9031,-15.9415,-16.0185,-16.157,-16.1877,-16.2108,-16.2108,-16.2108,-16.2108,-16.2108,-16.157,-16.1724,-16.2108,-16.157,-16.1493,-16.157,-16.157,-16.0877,-15.9723,-15.9185,-15.9262,-15.9723,-16.1031,-16.1724,-16.2108]},{"header":{"parameterUnit":"m.s-1","parameterCategory":1,"la1":30.6,"la2":28.766,"lo1":-90.7593,"lo2":-88.6598,"dx":0.0162,"dy":0.0183,"nx":116,"ny":114,"refTime":"2023-01-24T18:00:00:Z","depth":0,"parameterNumber":3,"parameterNumberName":"V-component_of_WINDS"},"data":[0.0,0.0,0.0,0.0,0.0,0.0,0.0,0.0,0.0,0.0,0.0,0.0,0.0,0.0,0.0,0.0,0.0,0.0,0.0,0.0,0.0,0.0,0.0,0.0,0.0,0.0,0.0,0.0,0.0,0.0,0.0,0.0,0.0,0.0,0.0,0.0,0.0,0.0,0.0,0.0,0.0,0.0,0.0,0.0,0.0,0.0,0.0,0.0,0.0,0.0,0.0,0.0,0.0,0.0,0.0,0.0,0.0,0.0,0.0,0.0,0.0,0.0,0.0,0.0,0.0,0.0,0.0,0.0,0.0,0.0,0.0,0.0,0.0,0.0,0.0,0.0,0.0,0.0,0.0,0.0,0.0,0.0,0.0,0.0,0.0,0.0,0.0,0.0,0.0,0.0,0.0,0.0,0.0,0.0,0.0,0.0,0.0,0.0,0.0,0.0,0.0,0.0,0.0,0.0,0.0,0.0,0.0,0.0,0.0,0.0,0.0,0.0,0.0,0.0,0.0,0.0,0.0,0.0,0.0,0.0,0.0,0.0,0.0,0.0,0.0,0.0,0.0,0.0,0.0,0.0,0.0,0.0,0.0,0.0,0.0,0.0,0.0,0.0,0.0,0.0,0.0,0.0,0.0,0.0,0.0,0.0,0.0,0.0,0.0,0.0,0.0,0.0,0.0,0.0,0.0,0.0,0.0,0.0,0.0,0.0,0.0,0.0,0.0,0.0,0.0,0.0,0.0,0.0,0.0,0.0,0.0,0.0,0.0,0.0,0.0,0.0,0.0,0.0,0.0,0.0,0.0,0.0,0.0,0.0,0.0,0.0,0.0,0.0,0.0,0.0,0.0,0.0,0.0,0.0,0.0,0.0,0.0,0.0,0.0,0.0,0.0,0.0,0.0,0.0,0.0,0.0,0.0,0.0,0.0,0.0,0.0,0.0,0.0,0.0,0.0,0.0,0.0,0.0,0.0,0.0,0.0,0.0,0.0,0.0,0.0,0.0,0.0,0.0,0.0,0.0,0.0,0.0,0.0,0.0,0.0,0.0,0.0,0.0,0.0,0.0,0.0,0.0,0.0,0.0,0.0,0.0,0.0,0.0,0.0,0.0,0.0,0.0,0.0,0.0,0.0,0.0,0.0,0.0,0.0,0.0,0.0,0.0,0.0,0.0,0.0,0.0,0.0,0.0,0.0,0.0,0.0,0.0,0.0,0.0,0.0,0.0,0.0,0.0,0.0,0.0,0.0,0.0,0.0,0.0,0.0,0.0,0.0,0.0,0.0,0.0,0.0,0.0,0.0,0.0,0.0,0.0,0.0,0.0,0.0,0.0,0.0,0.0,0.0,0.0,0.0,0.0,0.0,0.0,0.0,0.0,0.0,0.0,0.0,0.0,0.0,0.0,0.0,0.0,0.0,0.0,0.0,0.0,0.0,0.0,0.0,0.0,0.0,0.0,0.0,0.0,0.0,0.0,0.0,0.0,0.0,0.0,0.0,0.0,0.0,0.0,0.0,0.0,0.0,0.0,0.0,0.0,0.0,0.0,0.0,0.0,0.0,0.0,0.0,0.0,0.0,0.0,0.0,0.0,0.0,0.0,0.0,0.0,0.0,0.0,0.0,0.0,0.0,0.0,0.0,0.0,0.0,0.0,0.0,0.0,0.0,0.0,0.0,0.0,0.0,0.0,0.0,0.0,0.0,0.0,0.0,0.0,0.0,0.0,0.0,0.0,0.0,0.0,0.0,0.0,0.0,0.0,0.0,0.0,0.0,0.0,0.0,0.0,0.0,0.0,0.0,0.0,0.0,0.0,0.0,0.0,0.0,0.0,0.0,0.0,0.0,0.0,0.0,0.0,0.0,0.0,0.0,0.0,0.0,0.0,0.0,0.0,0.0,0.0,0.0,0.0,0.0,0.0,0.0,0.0,0.0,0.0,0.0,0.0,0.0,0.0,0.0,0.0,0.0,0.0,0.0,0.0,0.0,0.0,0.0,0.0,0.0,0.0,0.0,0.0,0.0,0.0,0.0,0.0,0.0,0.0,0.0,0.0,0.0,0.0,0.0,0.0,0.0,0.0,0.0,0.0,0.0,0.0,0.0,0.0,0.0,0.0,0.0,0.0,0.0,0.0,0.0,0.0,0.0,0.0,0.0,0.0,0.0,0.0,0.0,0.0,0.0,0.0,0.0,0.0,0.0,0.0,0.0,0.0,0.0,0.0,0.0,0.0,0.0,0.0,0.0,0.0,0.0,0.0,0.0,0.0,0.0,0.0,0.0,0.0,0.0,0.0,0.0,0.0,0.0,0.0,0.0,0.0,0.0,0.0,0.0,0.0,0.0,0.0,0.0,0.0,0.0,0.0,0.0,0.0,0.0,0.0,0.0,0.0,0.0,0.0,0.0,0.0,0.0,0.0,0.0,0.0,0.0,0.0,0.0,0.0,0.0,0.0,0.0,0.0,0.0,0.0,0.0,0.0,0.0,0.0,0.0,0.0,0.0,0.0,0.0,0.0,0.0,0.0,0.0,0.0,0.0,0.0,0.0,0.0,0.0,0.0,0.0,0.0,0.0,0.0,0.0,0.0,0.0,0.0,0.0,0.0,0.0,0.0,0.0,0.0,0.0,0.0,0.0,0.0,0.0,0.0,0.0,0.0,0.0,0.0,0.0,0.0,0.0,0.0,0.0,0.0,0.0,0.0,0.0,0.0,0.0,0.0,0.0,0.0,0.0,0.0,0.0,0.0,0.0,0.0,0.0,0.0,0.0,0.0,0.0,0.0,0.0,0.0,0.0,0.0,0.0,0.0,0.0,0.0,0.0,0.0,0.0,0.0,0.0,0.0,0.0,0.0,0.0,0.0,0.0,0.0,0.0,0.0,0.0,0.0,0.0,0.0,0.0,0.0,0.0,0.0,0.0,0.0,0.0,0.0,0.0,0.0,0.0,0.0,0.0,0.0,0.0,0.0,0.0,0.0,0.0,0.0,0.0,0.0,0.0,0.0,0.0,0.0,0.0,0.0,0.0,0.0,0.0,0.0,0.0,0.0,0.0,0.0,0.0,0.0,0.0,0.0,0.0,0.0,0.0,0.0,0.0,0.0,0.0,0.0,0.0,0.0,0.0,0.0,0.0,0.0,0.0,0.0,0.0,0.0,0.0,0.0,0.0,0.0,0.0,0.0,0.0,0.0,0.0,0.0,0.0,0.0,0.0,0.0,0.0,0.0,0.0,0.0,0.0,0.0,0.0,0.0,0.0,0.0,0.0,0.0,0.0,0.0,0.0,0.0,0.0,0.0,0.0,0.0,0.0,0.0,0.0,0.0,0.0,0.0,0.0,0.0,0.0,0.0,0.0,0.0,0.0,0.0,0.0,0.0,0.0,0.0,0.0,0.0,0.0,0.0,0.0,0.0,0.0,0.0,0.0,0.0,0.0,0.0,0.0,0.0,0.0,0.0,0.0,0.0,0.0,0.0,0.0,0.0,0.0,0.0,0.0,0.0,0.0,0.0,0.0,0.0,0.0,0.0,0.0,0.0,0.0,0.0,0.0,0.0,0.0,0.0,0.0,0.0,0.0,0.0,0.0,0.0,0.0,0.0,0.0,0.0,0.0,0.0,0.0,0.0,0.0,0.0,0.0,0.0,0.0,0.0,0.0,0.0,0.0,0.0,0.0,0.0,0.0,0.0,0.0,0.0,0.0,0.0,0.0,0.0,0.0,0.0,0.0,0.0,0.0,0.0,0.0,0.0,0.0,0.0,0.0,0.0,0.0,0.0,0.0,0.0,0.0,0.0,0.0,0.0,0.0,0.0,0.0,0.0,0.0,0.0,0.0,0.0,0.0,0.0,0.0,0.0,0.0,0.0,0.0,0.0,0.0,0.0,0.0,0.0,0.0,0.0,0.0,0.0,0.0,0.0,0.0,0.0,0.0,0.0,0.0,0.0,0.0,0.0,0.0,0.0,0.0,0.0,0.0,0.0,0.0,0.0,0.0,0.0,0.0,0.0,0.0,0.0,0.0,0.0,0.0,0.0,0.0,0.0,0.0,0.0,0.0,0.0,0.0,0.0,0.0,0.0,0.0,0.0,0.0,0.0,0.0,0.0,0.0,0.0,0.0,0.0,0.0,0.0,0.0,0.0,0.0,0.0,0.0,0.0,0.0,0.0,0.0,0.0,0.0,0.0,0.0,0.0,0.0,0.0,0.0,0.0,0.0,0.0,0.0,0.0,0.0,0.0,0.0,0.0,0.0,0.0,0.0,0.0,0.0,0.0,0.0,0.0,0.0,0.0,0.0,0.0,0.0,0.0,0.0,0.0,0.0,0.0,0.0,0.0,0.0,0.0,0.0,0.0,0.0,0.0,0.0,0.0,0.0,0.0,0.0,0.0,0.0,0.0,0.0,0.0,0.0,0.0,0.0,0.0,0.0,0.0,0.0,0.0,0.0,0.0,0.0,0.0,0.0,0.0,0.0,0.0,0.0,0.0,0.0,0.0,0.0,0.0,0.0,0.0,0.0,0.0,0.0,0.0,0.0,0.0,0.0,0.0,0.0,0.0,0.0,0.0,0.0,0.0,0.0,0.0,0.0,0.0,0.0,0.0,0.0,0.0,0.0,0.0,0.0,0.0,0.0,0.0,0.0,0.0,0.0,0.0,0.0,0.0,0.0,0.0,0.0,0.0,0.0,0.0,0.0,0.0,0.0,0.0,0.0,0.0,0.0,0.0,0.0,0.0,0.0,0.0,0.0,0.0,0.0,0.0,0.0,0.0,0.0,0.0,0.0,0.0,0.0,0.0,0.0,0.0,0.0,0.0,0.0,0.0,0.0,0.0,0.0,0.0,0.0,0.0,0.0,0.0,0.0,0.0,0.0,0.0,0.0,0.0,0.0,0.0,0.0,0.0,0.0,0.0,0.0,0.0,0.0,0.0,0.0,0.0,0.0,0.0,0.0,0.0,0.0,0.0,0.0,0.0,0.0,0.0,0.0,0.0,0.0,0.0,0.0,0.0,0.0,0.0,0.0,0.0,0.0,0.0,0.0,0.0,0.0,0.0,0.0,0.0,0.0,0.0,0.0,0.0,0.0,0.0,0.0,0.0,0.0,0.0,0.0,0.0,0.0,0.0,0.0,0.0,0.0,0.0,0.0,0.0,0.0,0.0,0.0,0.0,0.0,0.0,0.0,0.0,0.0,0.0,0.0,0.0,0.0,0.0,0.0,0.0,0.0,0.0,0.0,0.0,0.0,0.0,0.0,0.0,0.0,0.0,0.0,0.0,0.0,0.0,0.0,0.0,0.0,0.0,0.0,0.0,0.0,0.0,0.0,0.0,0.0,0.0,0.0,0.0,0.0,0.0,0.0,0.0,0.0,0.0,0.0,0.0,0.0,0.0,0.0,0.0,0.0,0.0,0.0,0.0,0.0,0.0,0.0,0.0,0.0,0.0,0.0,0.0,0.0,0.0,0.0,0.0,0.0,0.0,0.0,0.0,0.0,0.0,0.0,0.0,0.0,0.0,0.0,0.0,0.0,0.0,0.0,0.0,0.0,0.0,0.0,0.0,0.0,0.0,0.0,0.0,0.0,0.0,0.0,0.0,0.0,0.0,0.0,0.0,0.0,0.0,0.0,0.0,0.0,0.0,0.0,0.0,0.0,0.0,0.0,0.0,0.0,0.0,0.0,0.0,0.0,0.0,0.0,0.0,0.0,0.0,0.0,0.0,0.0,0.0,0.0,0.0,0.0,0.0,0.0,0.0,0.0,0.0,0.0,0.0,0.0,0.0,0.0,0.0,0.0,0.0,0.0,0.0,0.0,0.0,0.0,0.0,0.0,0.0,0.0,0.0,0.0,0.0,0.0,0.0,0.0,0.0,0.0,0.0,0.0,0.0,0.0,0.0,0.0,0.0,0.0,0.0,0.0,0.0,0.0,0.0,0.0,0.0,0.0,0.0,0.0,0.0,0.0,0.0,0.0,0.0,0.0,0.0,0.0,0.0,0.0,0.0,0.0,0.0,0.0,0.0,0.0,0.0,0.0,0.0,0.0,0.0,0.0,0.0,0.0,0.0,0.0,0.0,0.0,0.0,0.0,0.0,0.0,0.0,0.0,0.0,0.0,0.0,0.0,0.0,7.7031,7.5703,0.0,0.0,0.0,0.0,0.0,0.0,0.0,0.0,0.0,0.0,0.0,0.0,0.0,0.0,0.0,0.0,0.0,0.0,0.0,0.0,0.0,0.0,0.0,0.0,0.0,0.0,0.0,0.0,0.0,0.0,0.0,0.0,0.0,0.0,0.0,0.0,0.0,2.6549,2.7309,2.7906,2.8353,2.8543,2.8489,2.8245,0.0,0.0,0.0,0.0,0.0,0.0,0.0,0.0,0.0,0.0,0.0,0.0,0.0,0.0,0.0,0.0,0.0,0.0,0.0,0.0,0.0,0.0,0.0,0.0,0.0,0.0,0.0,0.0,0.0,0.0,0.0,0.0,0.0,0.0,0.0,0.0,0.0,0.0,0.0,0.0,0.0,0.0,0.0,0.0,0.0,0.0,0.0,0.0,0.0,0.0,0.0,0.0,0.0,0.0,0.0,0.0,0.0,0.0,0.0,0.0,0.0,0.0,0.0,0.0,0.0,0.0,0.0,0.0,0.0,0.0,7.8594,7.6953,0.0,0.0,0.0,0.0,0.0,0.0,0.0,0.0,0.0,0.0,0.0,0.0,0.0,0.0,0.0,0.0,0.0,0.0,0.0,0.0,0.0,0.0,0.0,0.0,0.0,0.0,-0.407,-0.6768,0.0,0.0,0.0,0.0,0.0,0.0,1.1227,1.294,1.82,2.7336,2.7879,2.8543,2.9317,2.9778,2.9696,2.9167,2.9235,0.0,0.0,0.0,0.0,0.0,0.0,0.0,0.0,0.0,0.0,0.0,0.0,0.0,0.0,0.0,0.0,0.0,0.0,0.0,0.0,0.0,0.0,0.0,0.0,0.0,0.0,0.0,0.0,0.0,0.0,0.0,0.0,0.0,0.0,0.0,0.0,0.0,0.0,0.0,0.0,0.0,0.0,0.0,0.0,0.0,0.0,0.0,0.0,0.0,0.0,0.0,0.0,0.0,0.0,0.0,0.0,0.0,0.0,0.0,0.0,0.0,0.0,0.0,8.2851,8.2969,8.3554,8.3242,8.3086,8.289,8.1133,7.9219,7.7422,7.7773,0.0,0.0,0.0,0.0,0.0,0.0,0.0,0.0,0.0,0.0,0.0,0.0,0.0,0.0,0.0,0.0,0.0,0.0,0.0,0.0,0.0,0.0,0.0,0.0,-0.4139,-0.688,-0.6805,0.0,0.0,0.0,0.0,0.0,0.697,1.1949,1.8687,2.7648,2.8598,2.9534,3.0375,3.0348,3.0402,3.0538,3.0307,2.9954,2.9534,0.0,0.0,0.0,0.0,0.0,0.0,0.0,0.0,0.0,0.0,0.0,0.0,0.0,0.0,0.0,0.0,0.0,0.0,0.0,0.0,0.0,0.0,0.0,0.0,0.0,0.0,0.0,0.0,0.0,0.0,0.0,0.0,0.0,0.0,0.0,0.0,0.0,0.0,0.0,0.0,0.0,5.3414,5.3521,0.0,0.0,0.0,0.0,0.0,0.0,0.0,0.0,0.0,0.0,0.0,0.0,0.0,8.1562,8.289,8.4414,8.5508,8.625,8.6562,8.6367,8.5781,8.6094,8.6015,8.5625,8.5351,0.0,8.0898,7.9101,0.0,0.0,0.0,0.0,0.0,0.0,0.0,0.0,0.0,0.0,0.0,0.0,0.0,0.0,0.0,0.0,0.0,0.0,0.0,0.0,0.0,-0.2459,-0.4246,-0.4211,-1.111,-1.5361,-1.547,-2.0018,0.0,0.0,0.0,-0.5953,0.5727,1.156,1.9063,2.8462,2.9412,2.9995,3.0226,3.0415,3.066,3.0945,3.089,3.0687,3.0481,3.2844,0.0,0.0,0.0,0.0,0.0,0.0,0.0,0.0,0.0,0.0,0.0,0.0,0.0,0.0,0.0,0.0,0.0,0.0,0.0,0.0,0.0,0.0,0.0,0.0,0.0,0.0,0.0,0.0,0.0,0.0,0.0,0.0,0.0,0.0,0.0,0.0,0.0,0.0,0.0,5.4296,5.5258,5.4937,5.9442,6.3544,0.0,0.0,0.0,0.0,0.0,0.0,0.0,0.0,0.0,8.1054,8.2617,8.3984,8.5039,8.5781,8.6875,8.8281,8.8437,8.8633,8.8711,8.8906,8.8867,8.8672,8.8398,8.7422,8.5781,8.3164,8.1289,7.9961,0.0,0.0,0.0,0.0,9.0737,9.6578,0.0,0.0,0.0,0.0,0.0,0.0,0.0,0.0,0.0,0.0,0.0,0.0,-0.1937,-0.6432,-0.9359,-0.9484,-1.7133,-2.2163,-2.2246,-2.6935,-2.8213,-2.4679,-1.8431,-0.9678,0.1988,1.1504,2.0582,2.9317,2.9995,3.0226,3.0049,3.0415,3.0755,3.1053,3.2439,3.2312,3.0863,3.4222,3.2953,2.876,0.0,0.0,0.0,0.0,0.0,0.0,0.0,0.0,0.0,0.0,0.0,0.0,0.0,0.0,0.0,0.0,0.0,0.0,0.0,0.0,0.0,0.0,0.0,0.0,0.0,0.0,0.0,0.0,0.0,0.0,0.0,0.0,0.0,0.0,0.0,0.0,0.0,5.5418,5.67,5.6059,6.1971,6.6448,0.0,0.0,0.0,0.0,0.0,0.0,8.0976,8.25,8.3077,8.2692,8.3763,8.406,8.3651,8.5084,8.6708,8.8409,8.9645,9.0547,9.1172,9.1172,9.1094,9.0976,9.0664,9.0195,8.9492,8.6445,8.3945,8.1992,8.1523,8.477,8.9532,8.918,9.3685,9.9532,0.0,0.0,0.0,0.0,0.0,0.0,0.0,0.0,0.0,0.0,0.0,-0.7206,-0.6964,-1.1641,-1.4687,-1.4794,-1.9339,-2.2558,-2.2877,-2.7654,-3.0348,-2.9959,-2.0647,-1.2983,-0.7615,1.1462,2.4377,3.0103,3.0131,3.0226,3.0361,3.0524,3.0755,3.1232,3.5973,3.5154,3.0402,3.0399,2.9812,2.8828,2.8937,0.0,0.0,0.0,0.0,0.0,0.0,0.0,0.0,0.0,0.0,0.0,0.0,0.0,0.0,0.0,0.0,0.0,0.0,0.0,0.0,0.0,0.0,0.0,0.0,0.0,0.0,0.0,0.0,0.0,0.0,0.0,0.0,0.0,0.0,0.0,0.0,0.0,0.0,5.638,6.5639,0.0,0.0,0.0,0.0,8.207,8.2461,8.3281,8.4531,8.5508,8.4199,8.0168,8.168,8.0737,7.6878,8.2424,8.5241,8.5313,9.0066,9.25,9.25,9.25,9.2265,9.1914,9.1875,9.1406,9.0351,8.7304,8.625,8.6211,8.3359,8.5062,8.8963,8.7815,9.1667,9.7497,0.0,0.0,0.0,0.0,0.0,0.0,0.0,0.0,-0.9974,-0.3277,-0.5271,-0.7528,-0.7725,-1.4918,-1.9815,-2.0303,-2.4909,-2.7753,-2.8075,-3.0118,-3.1243,-3.1243,-2.1341,-0.8785,0.6155,1.6655,2.46,2.9724,3.0009,3.0185,3.0239,3.0578,3.0809,3.089,3.2713,3.2279,3.0426,3.3893,3.3138,2.9805,2.9574,2.8869,0.0,0.0,0.0,0.0,0.0,0.0,0.0,0.0,0.0,0.0,0.0,0.0,0.0,0.0,0.0,0.0,0.0,0.0,0.0,0.0,0.0,0.0,0.0,0.0,0.0,0.0,0.0,0.0,0.0,0.0,0.0,0.0,0.0,0.0,0.0,0.0,0.0,5.8811,6.5406,0.0,6.8115,7.5298,8.0131,8.0131,8.3342,8.6015,8.7304,8.5337,8.3918,8.3372,8.0965,7.9106,7.7738,7.9678,8.222,8.5279,8.7098,8.9475,9.2617,9.2617,9.2383,9.1992,9.2265,9.2031,9.1406,9.0351,8.9023,8.7422,8.5234,8.6792,8.9982,8.8643,9.1297,9.5587,0.0,0.0,0.0,0.0,0.0,0.0,0.0,0.0,-0.952,-0.1042,-0.5843,-1.013,-1.024,-1.8963,-2.5068,-2.5569,-2.8685,-3.0768,-3.1175,-3.1528,-3.1745,-3.1786,-2.1612,-0.6352,1.4252,1.7851,2.2935,2.9547,2.9954,3.0198,3.0307,3.0768,3.0958,3.0958,3.0958,3.0782,3.0645,3.4075,3.3669,3.0361,3.0063,2.9425,2.8638,0.0,0.0,0.0,0.0,0.0,0.0,0.0,0.0,0.0,0.0,0.0,0.0,0.0,0.0,0.0,0.0,0.0,0.0,0.0,0.0,0.0,0.0,0.0,0.0,0.0,0.0,0.0,0.0,0.0,0.0,0.0,0.0,0.0,0.0,5.801,5.9907,6.0495,6.5832,6.8896,6.792,7.3854,7.7673,7.7809,8.113,8.3807,8.5024,8.2923,8.127,8.0712,7.7671,7.5418,7.386,7.5166,7.753,8.0724,8.3773,8.692,9.0219,9.1722,9.2265,9.1992,9.2265,9.2265,9.1992,9.1797,9.0664,8.8789,8.7344,8.7914,8.9473,8.8247,8.9969,9.3065,0.0,0.0,0.0,0.0,0.0,0.0,0.0,-1.2641,-0.9583,-0.1219,-0.904,-1.5162,-1.5008,-2.3975,-3.0092,-3.0403,-3.0416,-3.0659,-3.1433,-3.1609,-3.1576,-3.1329,-2.1631,-0.636,1.4323,1.4626,1.9581,2.971,3.0009,3.0307,3.0605,3.1053,3.127,3.127,3.127,3.1175,3.1012,3.0714,3.0524,3.0402,3.0402,2.9941,2.9289,0.0,0.0,0.0,0.0,0.0,0.0,0.0,0.0,0.0,0.0,0.0,0.0,0.0,0.0,0.0,0.0,0.0,0.0,0.0,0.0,0.0,0.0,0.0,0.0,0.0,0.0,0.0,0.0,0.0,0.0,0.0,0.0,0.0,5.6353,5.9132,6.1189,6.1243,6.687,7.0158,6.8594,7.2542,7.5392,7.5572,7.6078,7.6881,7.8147,7.8324,7.645,7.2112,7.1762,6.9675,6.5091,6.8852,7.1147,7.1603,8.069,8.51,8.5458,8.9975,9.1992,9.1992,9.1992,9.1992,9.1914,9.1523,9.1054,9.0547,8.9687,8.8554,8.7344,8.6445,8.7476,8.9884,0.0,0.0,0.0,0.0,0.0,0.0,0.0,-1.2637,-1.0892,-0.5772,-1.1077,-1.5173,-1.5048,-2.0855,-2.5067,-2.5412,-2.5278,-2.6775,-3.0794,-3.1352,-2.8243,-2.0831,-1.7574,-0.6518,1.4212,1.4793,1.9703,2.971,3.0117,3.047,3.0768,3.1107,3.1311,3.1419,3.1311,3.1121,3.0877,3.0687,3.07,3.085,3.0755,3.0375,2.9886,0.0,0.0,0.0,0.0,0.0,0.0,0.0,0.0,0.0,0.0,0.0,0.0,0.0,0.0,0.0,0.0,0.0,0.0,0.0,0.0,0.0,0.0,0.0,0.0,0.0,0.0,0.0,0.0,0.0,0.0,0.0,5.6968,5.7956,5.8491,6.0415,6.2258,6.3541,6.5688,6.6982,6.679,7.0458,7.296,7.2991,7.6631,7.8903,7.9088,7.6333,7.3835,7.2172,6.863,6.5936,6.4449,6.5281,6.7693,7.1275,7.7269,8.1796,8.5458,8.9975,9.1992,9.1992,9.1992,9.1992,9.1914,9.1523,9.1054,9.0469,8.8672,8.7578,8.6875,8.5664,8.5683,8.6241,0.0,0.0,0.0,0.0,0.0,0.0,0.0,-1.533,-1.3997,-1.023,-1.2573,-1.4698,-1.4807,-1.7777,-2.0606,-2.2936,-2.2995,-2.5022,-3.0253,-3.1121,-2.7648,-1.9384,-1.708,-0.7483,1.121,1.3872,1.9988,3.0171,3.0429,3.0755,3.1107,3.1352,3.1474,3.1487,3.1338,3.1107,3.0809,3.066,3.0728,3.0945,3.0782,3.0578,3.0307,3.0076,2.9466,2.872,2.8638,2.8638,2.8638,2.8408,0.0,0.0,0.0,0.0,0.0,0.0,0.0,0.0,0.0,0.0,0.0,0.0,0.0,0.0,0.0,0.0,0.0,0.0,0.0,0.0,0.0,0.0,0.0,0.0,5.8731,6.0121,6.1109,6.2205,6.3541,6.5224,6.5919,6.632,6.6346,6.8454,6.9671,6.9556,7.2224,7.3948,7.3857,7.1304,6.9699,6.9185,6.6266,6.4529,6.4209,6.3808,6.5117,6.8203,7.4846,7.9443,8.2517,8.887,9.1797,9.1992,9.1797,9.1797,9.1914,9.1523,9.0937,9.0195,0.0,0.0,0.0,0.0,8.4765,8.4531,0.0,0.0,0.0,0.0,0.0,0.0,0.0,-1.9093,-1.8021,-1.4666,-1.4612,-1.4791,-1.4612,-1.5554,-1.7572,-2.1648,-2.2303,-2.4733,-3.0012,-3.0917,-2.8783,-2.3563,-1.8603,-0.8675,0.7045,1.2442,2.0225,3.0822,3.0836,3.1067,3.1487,3.165,3.1636,3.1487,3.1365,3.1135,3.0822,3.07,3.07,3.0782,3.066,3.0605,3.0578,3.0456,2.9954,2.933,2.933,2.9181,2.895,2.8774,0.0,0.0,0.0,0.0,0.0,0.0,0.0,0.0,0.0,0.0,0.0,0.0,0.0,0.0,0.0,0.0,0.0,0.0,0.0,0.0,0.0,0.0,0.0,0.0,6.0602,6.2285,6.3808,6.4289,6.493,6.6266,6.6908,6.7148,6.6908,6.6614,6.632,6.6052,6.5812,6.5732,6.5999,6.5705,0.0,0.0,0.0,6.4423,6.4155,6.3621,6.3487,6.3946,7.3398,7.7986,7.8318,8.7204,9.1562,9.2031,9.1562,9.1562,9.1914,9.1406,9.0586,8.9531,8.832,8.7422,8.6523,8.539,8.4687,8.4297,0.0,0.0,0.0,0.0,0.0,0.0,0.0,-1.9022,-1.8983,-1.9154,-1.971,-1.8634,-1.4782,-1.8414,-1.9964,-1.7069,-2.0307,-2.4755,-3.0146,-3.0768,-2.8708,-2.3894,-1.875,-0.8729,0.673,1.2605,2.0434,3.0822,3.0945,3.1175,3.1487,3.165,3.1636,3.1487,3.1596,3.1338,3.0822,3.0931,3.0836,3.0646,3.0728,3.07,3.0592,3.0551,3.0239,2.9805,2.9805,2.9927,3.0009,2.9629,2.9656,2.9832,2.9751,2.9629,0.0,0.0,0.0,0.0,0.0,0.0,0.0,0.0,0.0,0.0,0.0,0.0,0.0,0.0,0.0,0.0,0.0,0.0,0.0,6.0201,6.1644,6.3327,6.5304,6.5812,6.6106,6.6373,6.672,6.6934,6.6854,6.6614,6.64,6.6346,6.6266,6.6159,6.5999,6.5705,6.5304,6.4797,6.4236,6.3915,6.3835,6.3514,6.3487,6.3946,7.3398,0.0,7.8318,8.7204,9.1719,9.2422,9.1679,9.1562,9.1875,9.0742,8.914,8.7383,8.6797,8.6211,8.5742,8.5469,8.5117,8.4687,0.0,0.0,0.0,0.0,0.0,0.0,0.0,-2.1972,-2.2474,-2.3329,-2.1898,-2.0059,-1.8028,-1.8416,-1.8848,-1.871,-2.323,-2.7146,-3.0146,-3.0728,-2.8758,-2.3597,-1.8889,-0.8817,0.7021,1.2729,2.0625,3.1162,3.1229,3.1419,3.1718,3.1718,3.1636,3.1487,3.1338,3.1107,3.0822,3.0822,3.0822,3.0822,3.0904,3.089,3.0809,3.0578,3.0402,3.0239,3.0171,3.0348,3.0578,3.0429,3.0524,3.0714,3.0714,3.066,3.1118,0.0,0.0,0.0,0.0,0.0,0.0,0.0,0.0,0.0,0.0,0.0,0.0,0.0,0.0,5.7983,5.841,0.0,6.1002,6.1884,6.314,6.4449,6.5812,6.624,6.6533,6.6827,6.7014,6.7014,6.6854,6.6614,6.6507,6.664,6.6507,6.6346,6.6213,6.5652,6.5117,6.469,6.3942,6.3541,6.3541,6.3247,6.3247,6.3568,7.0923,7.5607,7.8318,8.4843,8.9609,9.2539,9.1914,9.1679,9.1523,9.0,8.8633,8.7344,8.6484,8.5859,8.5508,8.5508,8.5117,8.4453,0.0,0.0,0.0,0.0,0.0,0.0,0.0,-2.4989,-2.5423,-2.6224,-2.3603,-2.134,-2.1049,-1.897,-1.92,-2.3023,-2.7056,-2.9642,-3.0117,-3.0673,-2.8628,-2.3462,-1.8822,-0.9312,0.5925,1.228,2.0226,2.9876,3.0889,3.1596,3.1813,3.1718,3.1582,3.1392,3.108,3.0931,3.085,3.0768,3.0863,3.108,3.108,3.108,3.1053,3.07,3.0605,3.066,3.0524,3.0551,3.0728,3.0958,3.108,3.1175,3.1419,3.1528,3.228,3.5844,3.3943,0.0,0.0,0.0,0.0,0.0,0.0,0.0,0.0,5.0731,5.7609,5.8624,5.9266,5.9827,6.0575,6.1644,6.2686,6.3407,6.4423,6.5331,6.5999,6.6266,6.6614,6.7068,6.7175,6.7121,6.6801,6.6614,6.6614,6.6854,6.664,6.6453,6.6346,6.5545,6.4957,6.461,6.3728,6.3247,6.3327,6.3033,6.3033,6.3327,6.8279,7.3212,7.8135,8.2491,8.7474,9.2539,9.1914,9.1328,9.082,8.9179,8.8203,8.7734,8.6484,8.5742,8.539,8.539,8.4844,8.4062,0.0,0.0,0.0,0.0,0.0,0.0,0.0,0.0,-2.5165,-2.6047,-2.5976,-2.4488,-2.0762,-2.4148,-2.7014,-2.7791,-2.8686,-2.9534,-3.0117,-3.0592,-2.8615,-2.3872,-1.9008,-1.0999,0.0398,1.0684,1.8701,2.4436,2.9254,3.1433,3.1338,3.146,3.1365,3.1107,3.1311,3.1257,3.1026,3.1135,3.1216,3.1243,3.1243,3.1243,3.1229,3.1175,3.1107,3.0985,3.0822,3.0538,3.0307,3.085,3.0877,3.0768,3.1311,3.1664,3.1854,3.2265,3.1712,3.1887,3.6343,3.6734,3.4966,3.1164,3.7014,4.41,0.0,5.3018,5.988,6.1296,6.1831,6.2098,6.2205,6.3193,6.3995,6.4102,6.4663,6.5411,6.624,6.64,6.6453,6.6507,6.6747,6.6801,6.6507,6.6694,6.6827,6.6854,6.6827,6.6587,6.6052,6.5438,6.485,6.4289,6.3407,6.3087,6.3327,6.3033,6.3033,6.3327,6.8279,7.3212,7.8135,8.2491,8.7474,9.25,9.0937,9.0,8.9492,8.8164,8.7344,8.6875,8.5976,8.5312,8.4922,8.4922,8.4414,8.3554,0.0,0.0,0.0,0.0,0.0,0.0,0.0,0.0,0.0,-2.5884,-2.6413,-2.6109,-2.4639,-2.6865,-2.8448,-2.857,-2.8828,-2.9398,-3.0348,-3.066,-2.7323,-1.9689,-1.7494,-0.9809,0.4175,0.8859,1.5244,2.3525,2.5795,2.8463,3.1528,3.1596,3.146,3.0982,2.8085,2.6625,2.6271,2.6509,2.666,2.7076,3.0305,3.1528,3.1514,3.1338,3.1121,3.0931,3.0945,3.0768,0.0,3.0931,3.1012,3.1067,3.1582,3.1718,3.2251,3.4973,3.3367,3.108,3.2697,3.3183,3.2712,3.1146,3.5609,4.0958,4.1829,4.7387,5.3236,5.703,5.8627,6.0262,6.3419,6.469,6.5251,6.5251,6.5438,6.5732,6.6133,6.6159,6.6052,6.5705,6.6052,6.64,6.6427,6.6533,6.6694,6.6854,6.672,6.6427,6.6026,6.5251,6.4636,6.4209,6.3193,6.2846,6.3327,6.2873,6.2873,6.3327,6.5327,6.9027,7.3951,7.8348,8.4236,9.1054,9.0312,8.9492,8.8554,8.8047,8.7461,8.6758,8.6133,8.5469,8.4804,8.4297,8.3594,8.2773,0.0,0.0,0.0,0.0,0.0,0.0,0.0,0.0,0.0,0.0,-2.6291,-2.678,-2.7241,-2.7838,-2.8245,-2.834,-2.8516,-2.9113,-3.028,-3.0578,-2.6251,-1.6249,-1.6256,-0.9393,0.5365,0.7079,1.1506,1.9006,2.2239,2.5701,2.9355,3.0969,3.1474,3.1063,2.5876,2.3484,2.324,2.3209,2.3372,2.4246,2.9405,3.165,3.1691,3.1297,3.1012,3.0822,3.0809,3.0592,3.0375,3.0755,3.0863,3.0931,3.1514,3.1569,3.221,3.5732,3.3636,3.0334,3.0009,3.028,3.0687,3.0836,3.4696,3.8676,3.9145,4.3267,4.8732,5.4488,5.6515,5.9003,6.4483,6.5812,6.6106,6.5999,6.5999,6.5946,6.5865,6.5865,6.5652,6.5064,6.5304,6.5625,6.5919,6.6159,6.6427,6.672,6.6453,6.6133,6.5759,6.5091,6.4503,6.4102,6.3113,6.2873,6.3434,6.2873,6.2873,6.3434,6.3354,6.5893,7.0863,7.6681,8.3347,9.0195,8.9961,8.9258,8.8281,8.789,8.7304,8.6601,8.5898,8.5156,8.4414,8.3554,8.2851,8.2265,0.0,0.0,0.0,0.0,0.0,0.0,0.0,0.0,0.0,0.0,0.0,0.0,0.0,-2.7105,-2.7404,-2.7702,-2.8001,-2.8611,0.0,-3.0158,-2.5919,-1.5939,-1.5899,-1.0971,0.0,0.5365,0.8083,0.8165,1.8604,2.3679,2.3473,2.8858,3.1284,3.1063,2.5784,2.3484,2.3576,2.3474,2.3556,2.434,2.9229,3.146,3.165,3.1067,3.0822,3.0768,3.0321,2.971,2.9235,3.0103,3.0117,2.99,3.0809,3.1175,3.1243,3.13,3.0524,2.9941,2.9927,3.0049,3.0307,3.089,3.507,3.9121,4.0058,4.4108,4.9816,5.6361,5.8003,5.9824,6.5378,6.64,6.632,6.6026,6.5999,6.5892,6.5572,6.5545,6.5331,6.4743,6.4423,6.4396,6.4716,6.5518,6.6133,6.6427,6.6159,6.5732,6.5171,6.485,6.4396,6.3808,6.3193,6.314,6.3728,6.3193,6.3193,6.3781,6.3487,6.5893,7.1019,8.0156,8.6593,9.0586,8.9765,8.914,8.8633,8.7383,8.6601,8.6094,8.4804,8.4023,8.3554,8.2656,8.2344,8.2265,0.0,0.0,0.0,0.0,0.0,0.0,0.0,0.0,0.0,0.0,0.0,0.0,0.0,0.0,0.0,0.0,-2.7865,-2.8489,0.0,-2.9832,-2.5643,-1.5766,-1.564,-1.0774,-0.0196,0.1761,0.4289,0.7777,1.1302,1.6795,2.3484,2.5495,2.6251,2.5784,2.0713,1.6399,1.3258,1.6671,1.8281,1.9222,2.7577,3.104,3.1053,3.0456,3.0103,2.9873,0.0,2.9235,2.9222,2.9425,2.9452,2.952,3.0117,3.0334,3.0348,3.0198,3.0185,3.0226,3.0226,3.0633,3.1216,3.1908,3.3485,3.5277,3.5922,3.7243,4.0065,4.5846,4.9317,5.2971,5.8544,6.2409,6.4743,6.5091,6.5759,6.6159,6.5865,6.6159,6.5919,6.4529,6.4797,6.4823,6.4129,6.4529,6.5091,6.5812,6.5572,6.5411,6.5411,6.4743,6.4289,6.4048,6.33,6.3087,6.3487,6.3087,6.3087,6.3487,6.3193,6.5503,7.0173,7.6176,7.9535,8.056,8.7096,8.7451,8.3761,8.6443,8.6875,8.5664,8.4922,8.4062,8.3125,8.2539,8.1953,8.1406,0.0,0.0,0.0,0.0,0.0,0.0,0.0,0.0,0.0,0.0,0.0,0.0,0.0,0.0,0.0,0.0,0.0,-2.8313,-2.9127,0.0,-2.5277,-1.5498,-1.5368,-1.061,-0.0194,0.0,0.174,0.5033,0.6938,1.1376,1.8016,1.9919,2.0661,2.0442,1.5217,1.0981,0.7904,1.1285,1.2644,1.3691,2.3884,2.7979,2.808,2.908,2.9479,0.0,2.876,2.872,2.8937,2.8883,2.8937,2.91,2.9602,2.9764,2.9764,2.9724,2.9927,3.0198,3.0538,3.1216,3.1989,3.2667,3.3156,3.3549,3.3943,3.3956,3.5256,4.0565,4.494,4.9692,5.5198,5.9949,6.322,6.3915,6.4583,6.5117,6.5491,6.5652,6.5384,6.4316,6.4423,6.4316,6.3514,6.3541,6.4048,6.5144,6.5064,6.5037,6.5224,6.4556,6.4236,6.4396,6.3514,6.3247,6.3621,6.3247,6.3087,6.3193,6.298,6.5253,6.9511,7.2361,7.4255,7.562,8.209,8.2448,7.8807,8.3093,8.4263,8.3208,8.3853,8.3789,8.3125,8.2539,8.1758,8.1015,0.0,0.0,0.0,0.0,0.0,0.0,0.0,0.0,0.0,0.0,0.0,0.0,0.0,0.0,0.0,0.0,0.0,0.0,0.0,0.0,0.0,-1.5111,-1.4894,-1.0275,-0.0192,0.0,0.0,0.0,0.4936,0.7548,0.7918,1.293,1.5187,1.5062,0.9945,0.7723,0.7406,0.7712,0.7698,0.8664,1.8703,2.2692,2.2935,2.7323,2.8991,2.8923,2.8353,2.8231,2.8394,2.853,2.8598,2.8706,2.9276,2.9466,2.9493,2.9696,2.9764,2.9981,3.089,3.1786,3.26,3.3183,3.3766,3.4187,3.4187,3.4173,3.5497,4.0473,4.5033,4.963,5.4419,5.8775,6.1804,6.2712,6.2739,6.314,6.4583,6.4289,6.4022,6.4209,6.3514,6.3006,6.2926,6.2686,6.3113,6.4529,6.4636,6.4636,6.469,6.4396,6.4342,6.469,6.3808,6.3621,6.4155,6.3621,6.3193,6.2899,6.2899,6.4955,6.8665,6.9029,7.1358,7.5097,7.53,7.4882,7.4296,7.7649,7.8945,7.9099,8.1653,8.3085,8.3476,8.2578,8.1758,8.1015,0.0,0.0,0.0,0.0,0.0,0.0,0.0,0.0,0.0,0.0,0.0,0.0,0.0,0.0,0.0,0.0,0.0,0.0,0.0,0.0,0.0,0.0,0.0,0.0,0.0,0.0,0.0,0.0,0.1326,0.3955,0.7839,0.9132,0.9882,0.9704,0.8391,0.5613,0.2261,0.5982,0.7632,0.8531,1.8163,2.2003,2.2335,2.6712,2.8367,2.8353,2.8191,2.8163,2.8245,2.8489,2.8747,2.895,2.9113,2.914,2.9303,3.0131,3.0456,3.0809,3.2043,3.2871,3.3495,3.3997,3.4228,3.4363,3.4472,3.4065,3.3896,3.4671,4.0536,4.5927,4.6975,5.4647,6.1029,6.2365,6.3995,6.5304,6.5892,6.6213,6.5946,6.4716,6.4743,6.4529,6.3621,6.3487,6.3701,6.4289,6.4129,6.4209,6.4636,6.461,6.461,6.469,6.4022,6.3728,6.3888,6.3514,6.3193,6.2899,6.2899,6.3141,6.4003,6.7676,6.811,6.5832,7.2664,7.3304,6.9635,7.3225,7.6181,7.8372,7.8402,8.0357,8.2969,8.1797,8.1172,8.0937,0.0,0.0,0.0,0.0,0.0,0.0,0.0,0.0,0.0,0.0,0.0,0.0,0.0,0.0,0.0,0.0,0.0,0.0,0.0,0.0,0.0,0.0,0.0,0.0,0.0,0.0,0.0,0.0,0.0,0.0,0.4395,0.4387,0.4381,0.4381,0.437,0.2743,0.0184,0.3103,0.4182,0.0,0.0,1.8333,1.8906,2.546,2.8041,2.8055,2.8123,2.8231,2.8394,2.876,2.9127,2.9439,2.9493,2.971,3.0076,3.0931,3.1297,3.165,3.2722,3.3522,3.4119,3.4512,3.4594,3.4526,3.4282,3.3807,3.3115,3.2111,3.8616,4.4555,4.4525,5.2756,6.0094,6.1964,6.3594,6.501,6.6106,6.64,6.6266,6.5518,6.5518,6.5278,6.461,6.4423,6.4396,6.4423,6.4129,6.4182,6.4636,6.469,6.4743,6.485,6.4182,6.3701,6.3594,6.3407,6.3113,6.2712,6.2819,6.2525,6.1857,6.4993,6.4668,6.1802,6.7019,6.721,6.4453,6.7951,7.1772,7.5444,7.6317,7.9216,8.2851,8.1719,8.1289,8.1289,0.0,0.0,0.0,0.0,0.0,0.0,0.0,0.0,0.0,0.0,0.0,0.0,0.0,0.0,0.0,0.0,0.0,0.0,0.0,0.0,0.0,0.0,0.0,0.0,0.0,0.0,-0.0547,0.0,0.0,0.0,0.0,0.0,0.0,0.0,0.0,0.0,0.0,0.0,0.0,0.0888,1.022,1.4013,1.4814,0.0,2.7879,2.7906,2.8109,2.8353,2.8693,2.9154,2.9588,2.9954,3.0171,3.0633,3.1202,3.1867,3.2166,3.2464,3.3251,3.3997,3.458,3.4811,3.4838,3.4594,3.3807,3.3346,3.2708,3.1311,3.7688,4.3367,4.3417,5.1224,5.8298,6.0745,6.2177,6.3648,6.5919,6.5946,6.5919,6.6427,6.6026,6.5732,6.5732,6.5438,6.5144,6.493,6.4529,6.4449,6.4716,6.4743,6.4823,6.501,6.4236,6.3648,6.3327,6.3327,6.3033,6.2525,6.2793,6.2472,6.1724,6.2231,6.1991,6.1189,6.0895,6.0388,6.0051,6.2649,6.6983,7.2048,7.4482,7.8515,8.2851,8.1992,8.1679,8.1679,0.0,0.0,0.0,0.0,0.0,0.0,0.0,0.0,0.0,0.0,0.0,0.0,0.0,0.0,0.0,0.0,0.0,0.0,0.0,0.0,0.0,0.0,0.0,0.0,0.0,-0.3783,-0.3972,0.0,0.0,0.0,0.0,0.0,0.0,0.0,0.0,0.0,0.0,0.0,0.0,0.0879,1.0151,1.3764,1.49,2.4256,0.0,0.0,2.8191,2.853,2.8869,2.9425,2.9764,3.0009,3.0538,3.0945,3.1419,3.2396,3.2776,3.3156,3.4255,3.4838,3.5109,3.5055,3.4838,3.4363,3.3237,3.2573,3.1718,3.0117,3.4033,3.7706,3.7221,4.5339,5.3064,5.627,6.0314,6.3942,6.7014,6.6961,6.6694,6.6801,6.6694,6.664,6.664,6.6133,6.5919,6.6106,6.5411,6.4957,6.5037,6.5037,6.4823,6.4396,6.4209,6.3861,6.3327,6.3327,6.314,6.2819,6.2873,6.2686,6.2312,6.2419,6.2098,6.1483,6.1189,6.0441,5.9399,5.9556,6.408,7.1053,7.0817,7.5728,8.2851,8.1992,8.1679,8.1679,0.0,0.0,0.0,0.0,0.0,0.0,0.0,0.0,0.0,0.0,0.0,0.0,0.0,0.0,0.0,0.0,0.0,0.0,0.0,0.0,0.0,0.0,0.0,0.0,0.0,-0.3387,-0.3392,-0.357,0.0,0.0,0.0,0.0,0.0,0.0,0.0,0.0,0.0,0.0,0.0,0.0873,1.0116,1.3938,1.4951,0.0,0.0,0.0,2.8408,2.8665,2.9018,2.9629,3.0076,3.0497,3.1107,3.1704,3.2355,3.3169,3.3576,3.3943,3.4743,3.5123,3.5272,3.5191,3.4716,3.3943,3.2762,3.1894,3.0931,2.9452,3.2841,3.6084,3.5922,4.441,5.2112,5.419,5.8984,6.3407,6.6213,6.624,6.6346,6.7415,6.7415,6.7362,6.7522,6.7148,6.6827,6.6667,6.6266,6.5892,6.5598,6.5438,6.501,6.4236,6.4209,6.3995,6.3541,6.3247,6.3033,6.2899,6.2739,6.2419,6.2018,6.2178,6.1831,6.1109,6.0815,6.0201,5.9319,5.8571,6.1961,6.7806,6.9207,7.3622,7.9483,8.1332,8.2148,8.2344,0.0,0.0,0.0,0.0,0.0,0.0,0.0,0.0,0.0,0.0,0.0,0.0,0.0,0.0,0.0,0.0,0.0,0.0,0.0,0.0,0.0,0.0,0.0,0.0,0.0,0.0,0.0,-0.5499,-0.1767,0.0,0.0,0.0,0.0,0.0,0.0,0.0,0.0,0.0,0.0,0.0,0.0,1.4153,0.0,0.0,0.0,0.0,0.0,2.8828,2.9181,2.9764,3.0307,3.0822,3.1352,3.2193,3.3061,3.359,3.4038,3.4472,3.5014,3.5272,3.5367,3.534,3.4635,3.3604,3.2315,3.1352,3.0334,2.895,3.1513,3.4194,3.4579,4.2842,5.0334,5.1712,5.7163,6.2125,6.5117,6.5304,6.5865,6.7923,6.8057,6.8057,6.8163,6.7923,6.7522,6.7014,6.6827,6.6507,6.5919,6.5732,6.5224,6.4342,6.4316,6.4155,6.3888,6.33,6.3006,6.3087,6.2606,6.2178,6.1777,6.1804,6.143,6.0682,6.0334,5.9827,5.9212,5.8357,6.0558,6.4737,6.7296,7.1284,7.6195,7.9766,8.1874,8.2929,0.0,0.0,0.0,0.0,0.0,0.0,0.0,0.0,0.0,0.0,0.0,0.0,0.0,0.0,0.0,0.0,0.0,0.0,0.0,0.0,0.0,0.0,0.0,0.0,0.0,0.0,0.0,-0.0707,-0.0176,0.0,0.0,0.0,0.0,0.0,0.0,0.0,0.0,0.0,0.0,0.0,0.0,0.0,0.0,0.0,0.0,0.0,0.0,2.8991,2.933,2.9927,3.0253,3.0483,3.0809,3.1704,3.2708,3.3047,3.3644,3.439,3.5232,3.5584,3.5666,3.553,3.4716,3.3522,3.1921,3.0958,2.9995,2.8516,2.8773,2.9347,2.9486,3.6679,4.3462,4.6333,5.3185,5.98,6.4823,6.5304,6.5865,6.7923,6.8618,6.8725,6.8217,6.7923,6.7576,6.7308,6.6747,6.6213,6.5625,6.5812,6.5545,6.469,6.4636,6.4503,6.4155,6.3594,6.3434,6.3674,6.2579,6.2178,6.2365,6.159,6.1029,6.0682,6.0121,5.9533,5.8891,5.801,5.9856,6.3412,6.3355,6.836,7.5553,7.6558,7.9626,8.2969,0.0,0.0,0.0,0.0,0.0,0.0,0.0,0.0,0.0,0.0,0.0,0.0,0.0,0.0,0.0,0.0,0.0,0.0,0.0,0.0,0.0,0.0,0.0,0.0,0.0,0.0,-0.3322,-0.4213,-0.1417,0.0,0.0,0.0,0.0,0.0,0.0,0.0,0.0,0.0,0.0,0.0,0.0,0.0,0.0,0.0,0.0,0.0,0.0,0.0,2.9425,2.9669,2.99,3.0063,2.9819,3.051,3.1596,3.2627,3.34,3.4119,3.5109,3.5544,3.5706,3.5544,3.4526,3.3224,3.2016,3.0836,2.9669,2.8611,2.8489,2.8584,2.8543,3.6243,4.294,4.3685,5.1437,5.8464,6.1644,6.2018,6.314,6.6453,6.7068,6.7442,6.811,6.8057,6.7736,6.7095,6.6507,6.5972,6.5572,6.5652,6.5411,6.4716,6.469,6.461,6.4503,6.3541,6.322,6.3487,6.2312,6.1804,6.1911,6.1216,6.0708,6.0415,5.9827,5.9212,5.8598,5.7903,5.8372,5.9748,6.182,6.4803,6.8817,7.4497,7.7706,7.9683,0.0,0.0,0.0,0.0,0.0,0.0,0.0,0.0,0.0,0.0,0.0,0.0,0.0,0.0,0.0,0.0,0.0,0.0,0.0,0.0,0.0,0.0,0.0,0.0,0.0,0.0,-0.1572,-0.49,-0.1602,0.0,0.0,0.0,0.0,0.0,0.0,0.0,0.0,0.0,0.0,0.0,0.0,0.0,0.0,0.0,0.0,0.0,0.0,0.0,0.0,0.0,0.0,2.9656,2.9235,2.9574,3.0402,3.1718,3.2817,3.378,3.4648,3.5299,3.572,3.5598,3.439,3.2993,3.2125,3.0755,2.9425,2.8665,2.8543,2.8543,2.8394,3.5194,4.1254,4.2361,4.9164,5.5662,5.9461,5.98,6.0976,6.4423,6.4904,6.5518,6.7014,6.7629,6.7602,6.6801,6.6266,6.5839,6.5545,6.5465,6.5224,6.4823,6.4823,6.4743,6.469,6.3648,6.322,6.3327,6.2231,6.1617,6.143,6.0842,6.0388,5.9987,5.9399,5.8785,5.8197,5.7689,5.7181,5.6933,5.9487,6.1478,6.3852,7.1879,7.5656,7.7466,0.0,0.0,0.0,0.0,0.0,0.0,0.0,0.0,0.0,0.0,0.0,0.0,0.0,0.0,0.0,0.0,0.0,0.0,0.0,0.0,0.0,0.0,0.0,0.0,0.0,0.0,0.0,0.0,0.0,0.0,0.0,0.0,0.0,0.0,0.0,0.0,0.0,0.0,0.0,0.0,0.0,0.0,0.0,0.0,0.0,0.0,0.0,0.0,0.0,0.0,0.0,0.0,0.0,2.9167,2.9235,3.0131,3.1772,3.3373,3.3834,3.4825,3.5733,3.5733,3.439,3.2871,3.2111,3.066,2.9276,2.853,2.8476,2.8543,2.8394,3.2034,3.671,4.2163,4.5783,5.0747,5.9183,5.9773,6.0067,6.1831,6.2312,6.3087,6.4583,6.6293,6.7068,6.6453,6.6159,6.5839,6.5545,6.5251,6.5117,6.5117,6.5117,6.4957,6.469,6.4075,6.3621,6.3327,6.2419,6.1724,6.1136,6.0521,5.996,5.9372,5.8785,5.817,5.7609,5.7288,5.6487,5.5471,5.5765,5.8653,6.3052,6.8262,7.3033,7.7466,0.0,0.0,0.0,0.0,0.0,0.0,0.0,0.0,0.0,0.0,0.0,0.0,0.0,0.0,0.0,0.0,0.0,0.0,0.0,0.0,0.0,0.0,0.0,0.0,0.0,0.0,0.0,0.0,0.0,0.0,0.0,0.0,0.0,0.0,0.0,0.0,0.0,0.0,0.0,0.0,0.0,0.0,0.0,0.0,0.0,0.0,0.0,0.0,0.0,0.0,0.0,0.0,0.0,0.0,0.0,2.9371,3.047,3.1745,3.2396,3.3074,3.359,3.359,3.264,3.1541,3.0999,2.99,2.8869,2.8313,2.8245,2.8258,2.8231,3.2034,3.6935,4.1784,4.6115,5.1111,5.7382,5.8891,6.0281,6.2632,6.4797,6.6159,6.6427,6.6614,6.6533,6.6159,6.5839,6.5465,6.4957,6.485,6.4904,6.5117,6.5117,6.4957,6.469,6.3888,6.3327,6.3033,6.2125,6.151,6.1109,6.0521,5.996,5.9372,5.8544,5.7983,5.7582,5.7074,5.6567,5.6006,5.5685,5.6492,5.8515,6.3203,6.5943,6.8359,0.0,0.0,0.0,0.0,0.0,0.0,0.0,0.0,0.0,0.0,0.0,0.0,0.0,0.0,0.0,0.0,0.0,0.0,0.0,0.0,0.0,0.0,0.0,0.0,0.0,0.0,0.0,0.0,0.0,0.0,0.0,0.0,0.0,0.0,0.0,0.0,0.0,0.0,0.0,0.0,0.0,0.0,2.8665,0.0,0.0,0.0,0.0,0.0,0.0,0.0,0.0,0.0,0.0,0.0,0.0,0.0,2.9574,3.0334,3.1189,3.1921,3.245,3.245,3.165,3.0782,3.0456,2.9574,2.872,2.8462,2.8394,2.8394,2.8394,3.0791,3.447,3.9169,4.2179,4.6419,5.3791,5.5902,5.8056,6.2018,6.4823,6.624,6.5839,6.6266,6.6427,6.6026,6.5732,6.5304,6.4716,6.469,6.4716,6.4797,6.4797,6.469,6.4503,6.3728,6.3113,6.2712,6.2071,6.143,6.0815,6.0308,5.9666,5.8865,5.8063,5.7502,0.0,5.6594,5.6246,5.5926,5.5471,5.5498,5.6514,6.0738,6.253,6.3623,0.0,0.0,0.0,0.0,0.0,0.0,0.0,0.0,0.0,0.0,0.0,0.0,0.0,0.0,0.0,0.0,0.0,0.0,0.0,0.0,0.0,0.0,0.0,0.0,0.0,0.0,0.0,0.0,0.0,0.0,0.0,0.0,0.0,0.0,0.0,0.0,0.0,0.0,0.0,0.0,0.0,0.0,0.0,0.0,0.0,0.0,0.0,0.0,0.0,0.0,0.0,0.0,0.0,0.0,0.0,0.0,0.0,0.0,0.0,3.1175,3.1935,3.1935,3.1189,3.0429,3.0293,2.9479,0.0,2.876,2.8747,2.8747,2.8747,2.853,3.0045,3.5225,3.5138,3.8193,4.9261,5.1721,5.4649,6.0639,6.3193,6.4155,6.3514,6.5518,6.6614,6.6026,6.5705,6.5251,6.469,6.4636,6.4503,6.4182,6.4155,6.4129,6.4129,6.3594,6.3006,6.2392,6.2098,6.1376,6.0227,5.9907,5.9132,5.7983,5.7395,5.6781,5.6273,5.5979,5.5685,5.5391,5.5151,5.5364,5.6266,6.0148,6.168,6.2573,0.0,0.0,0.0,0.0,0.0,0.0,0.0,0.0,0.0,0.0,0.0,0.0,0.0,0.0,0.0,0.0,0.0,0.0,0.0,0.0,0.0,0.0,0.0,0.0,0.0,0.0,0.0,0.0,0.0,0.0,0.0,0.0,0.0,0.0,0.0,0.0,0.0,0.0,0.0,0.0,0.0,0.0,0.0,0.0,0.0,0.0,2.2026,1.9624,0.0,0.0,0.0,0.0,0.0,0.0,0.0,0.0,2.9045,0.0,0.0,0.0,2.9778,2.9778,2.9493,2.9181,0.0,2.872,2.8408,2.8177,2.8123,2.8082,2.7987,2.8082,2.9773,3.4702,3.5174,3.8304,4.8562,5.5445,6.0796,6.375,6.5598,6.6052,6.4823,6.5812,6.6373,6.6026,6.5518,6.4957,6.4342,6.4102,6.3942,6.3888,6.3648,6.3541,6.3541,6.3193,6.2606,6.1804,6.1483,6.0842,5.9907,5.9399,5.8624,5.7689,5.6861,5.63,5.5979,5.5899,5.5685,5.5418,5.5364,5.5284,5.5369,5.6251,5.6745,5.7294,0.0,0.0,0.0,0.0,0.0,0.0,0.0,0.0,0.0,0.0,0.0,0.0,0.0,0.0,0.0,0.0,0.0,0.0,0.0,0.0,0.0,0.0,0.0,0.0,0.0,0.0,0.0,0.0,0.0,0.0,0.0,0.0,0.0,0.0,0.0,0.0,0.0,0.0,0.0,0.0,1.7772,0.0,0.0,0.0,0.0,0.0,1.5236,1.3582,0.0,1.4538,1.832,2.2417,0.0,0.0,0.0,0.0,2.8991,0.0,2.8652,2.8706,2.8828,2.8828,2.8828,2.8774,2.8625,2.853,2.8462,2.8435,2.8258,2.8163,2.8299,2.8163,2.9006,3.1961,3.1988,3.55,4.6474,5.3848,5.9903,6.4621,6.5865,6.6133,6.5759,6.5919,6.5946,6.5812,6.5117,6.4556,6.4209,6.3915,6.3701,6.3594,6.33,6.3193,6.3327,6.2793,6.2205,6.159,6.1002,6.0334,5.9613,5.8998,5.817,5.7181,5.6406,5.6006,5.5845,5.5578,5.5551,5.5605,5.5311,5.5151,5.499,5.4857,5.4777,5.5105,0.0,0.0,0.0,0.0,0.0,0.0,0.0,0.0,0.0,0.0,0.0,0.0,0.0,0.0,0.0,0.0,0.0,0.0,0.0,0.0,0.0,0.0,0.0,0.0,0.0,0.0,0.0,0.0,0.0,0.0,0.0,0.0,0.0,0.0,0.0,0.0,0.0,0.0,0.0,0.0,2.0727,0.0,0.0,0.0,0.0,0.0,0.0,0.0,0.0,0.719,1.3392,2.1006,2.1824,0.0,0.0,0.0,0.0,0.0,2.8652,2.8665,2.8706,2.8665,2.872,2.876,2.8665,2.8598,2.8638,2.8923,2.8638,2.8448,2.8788,2.8421,2.8231,2.8815,2.8893,3.3107,4.4847,5.0745,5.6712,6.4452,6.5358,6.5545,6.6106,6.5812,6.5518,6.5465,6.4636,6.4129,6.4129,6.3888,6.3541,6.3247,6.3033,6.2953,6.306,6.2392,6.1831,6.143,6.0628,5.9907,5.9266,5.8624,5.7716,5.662,5.6059,5.5765,5.5685,5.5204,5.5284,5.5685,5.5177,5.499,5.4964,5.467,5.4563,5.4563,0.0,0.0,0.0,0.0,0.0,0.0,0.0,0.0,0.0,0.0,0.0,0.0,0.0,0.0,0.0,0.0,0.0,0.0,0.0,0.0,0.0,0.0,0.0,0.0,0.0,0.0,0.0,0.0,0.0,0.0,0.0,0.0,0.0,0.0,0.0,0.0,0.0,0.0,0.0,0.0,1.5837,0.0,0.0,0.0,0.0,0.0,0.0,0.0,0.0,0.6054,1.1137,1.6349,2.0546,0.0,0.0,0.0,0.0,0.0,2.8774,2.9059,2.9289,2.9045,2.8788,2.8693,2.8923,2.8665,2.8462,2.8625,2.8408,2.8163,2.8082,2.8408,2.8584,2.8313,3.1957,3.7873,4.6466,5.16,5.7017,6.4028,6.5652,6.5865,6.5037,6.5304,6.5438,6.5197,6.4342,6.3835,6.3835,6.3541,6.3247,6.298,6.2926,6.2579,6.1884,6.1938,6.1617,6.0842,6.0468,5.9693,5.8598,5.801,5.7262,5.6353,5.5765,5.5364,5.5097,5.5044,5.5044,5.5097,5.5044,5.499,5.4964,5.467,5.4563,5.4563,0.0,0.0,0.0,0.0,0.0,0.0,0.0,0.0,0.0,0.0,0.0,0.0,0.0,0.0,0.0,0.0,0.0,0.0,0.0,0.0,0.0,0.0,0.0,0.0,0.0,0.0,0.0,0.0,0.0,0.0,0.0,0.0,0.0,0.0,0.0,0.0,0.7579,0.0,0.0,0.0,0.0,0.0,0.0,0.0,0.0,0.0,0.0,0.0,0.0,0.0,0.8397,1.4879,1.723,0.0,0.0,0.0,0.0,0.0,2.8476,2.8598,2.8828,2.91,2.9235,2.9235,2.8964,2.876,2.8598,2.8584,2.8218,2.7987,2.8231,2.8489,2.8828,2.9289,3.1678,3.7012,4.6358,4.9389,5.4129,6.3719,6.5117,6.5197,6.5144,6.5117,6.501,6.4904,6.4048,6.3594,6.3781,6.3487,6.3193,6.2899,6.2606,6.2151,6.159,6.1403,6.1029,6.0468,5.9827,5.9185,5.8464,5.7716,5.6994,5.6273,5.5685,5.5364,5.5204,5.507,5.499,5.499,5.499,5.4883,5.475,5.4589,5.4563,5.4563,0.0,0.0,0.0,0.0,0.0,0.0,0.0,0.0,0.0,0.0,0.0,0.0,0.0,0.0,0.0,0.0,0.0,0.0,0.0,0.0,0.0,0.0,0.0,0.0,0.0,0.0,0.0,0.0,0.0,0.0,0.0,0.0,0.0,0.0,0.0,0.0,0.0,0.7393,0.0,0.0,0.0,0.0,0.0,0.0,0.0,0.0,0.0,0.0,0.0,0.0,0.0,0.0,0.0,0.0,0.0,2.8584,2.853,2.8489,2.8299,2.8367,2.8611,2.91,2.9466,2.9629,2.9249,2.9127,2.9059,2.9005,2.857,2.8286,2.8665,2.8828,2.9235,3.0253,3.1121,3.5378,4.6277,4.765,5.2006,6.3814,6.4797,6.4743,6.5411,6.4957,6.461,6.4476,6.3755,6.3434,6.3648,6.3407,6.306,6.2712,6.2205,6.1724,6.1296,6.0735,6.0388,6.0174,5.9399,5.8785,5.8277,5.7502,5.6807,5.6166,5.5658,5.5391,5.5311,5.5017,5.4883,5.4883,5.4883,5.475,5.4563,5.4563,5.4563,5.4563,0.0,0.0,0.0,0.0,0.0,0.0,0.0,0.0,0.0,0.0,0.0,0.0,0.0,0.0,0.0,0.0,0.0,0.0,0.0,0.0,0.0,0.0,0.0,0.0,0.0,0.0,0.0,0.0,0.0,0.0,0.0,0.0,0.0,0.0,0.0,0.0,0.7657,0.7429,0.7586,0.0,0.0,0.0,0.0,0.0,0.0,0.0,0.0,0.0,0.0,0.0,0.0,0.0,0.0,0.0,2.857,2.8421,2.8665,2.8937,2.8638,2.9059,2.952,2.914,2.9072,2.9303,3.0103,3.0049,2.9927,3.0185,2.9886,2.9493,2.9249,2.9547,2.9995,3.0483,3.1447,3.6,4.7164,4.8848,5.2993,6.4207,6.5465,6.5358,6.5144,6.485,6.4449,6.3888,6.3514,6.3327,6.3354,6.3087,6.2686,6.2098,6.1777,6.1216,6.0388,6.004,5.988,5.988,5.9506,5.8785,5.7662,5.7315,5.67,5.5872,5.5578,5.5284,5.499,5.4696,5.4589,5.4589,5.4589,5.4589,5.4563,5.4563,5.4563,5.4563,0.0,0.0,0.0,0.0,0.0,0.0,0.0,0.0,0.0,0.0,0.0,0.0,0.0,0.0,0.0,0.0,0.0,0.0,0.0,0.0,0.0,0.0,0.0,-1.0633,-0.4601,-0.1449,0.0,0.0,0.0,0.0,0.0,0.0,0.0,0.0,0.0,0.1167,0.2904,0.2881,0.2863,0.2849,0.0,0.0,0.0,0.0,0.0,0.0,0.0,0.0,0.0,0.0,0.4354,1.0267,1.3433,1.875,2.4616,2.7515,2.8421,2.8462,2.834,2.8584,2.8923,2.9127,2.9167,2.9344,2.9954,3.0226,3.0375,3.0483,3.0375,3.0198,2.9995,3.0402,3.0904,3.1352,3.2166,3.5409,4.3293,4.7151,5.1972,5.9426,6.3084,6.4904,6.4556,6.4289,6.4022,6.3781,6.3514,6.3247,6.3087,6.2793,6.2338,6.1777,6.1109,6.0521,6.0014,5.9319,5.8891,5.8704,5.8598,5.8223,5.7609,5.7101,5.6513,5.5872,5.5551,5.5258,5.4964,5.467,5.4563,5.4563,5.4563,5.4563,5.4563,5.4563,5.4563,5.4589,0.0,0.0,0.0,0.0,0.0,0.0,0.0,0.0,0.0,0.0,0.0,0.0,0.0,0.0,0.0,0.0,0.0,0.0,0.0,0.0,0.0,0.0,0.0,-1.1402,-0.7173,-0.2374,0.0,0.0,0.0,0.0,0.0,0.0,0.0,0.0,0.0,0.0,0.0,0.0,0.0,0.0,0.0,0.0,0.0,0.0,0.0,0.0,0.0,0.0,0.0,0.0,0.3086,0.7931,1.2712,1.6615,2.0153,2.4839,2.5155,2.4241,2.5522,2.6183,2.6801,2.8579,2.9181,2.9507,3.0131,3.0592,3.0945,3.1175,3.0931,3.0605,3.0415,3.0782,3.1229,3.1528,3.2369,3.5047,4.0549,4.4391,4.8495,5.385,5.8841,6.2023,6.174,6.2904,6.3728,6.3621,6.3354,6.3087,6.2793,6.2312,6.1777,6.1189,6.0415,5.98,5.9399,5.8704,5.8197,5.7903,5.7716,5.7555,5.7315,5.6914,5.638,5.5712,5.5498,5.5204,5.4857,5.4616,5.4563,5.4563,5.4563,5.4563,5.4563,5.4563,5.4563,5.4589,0.0,0.0,0.0,0.0,0.0,0.0,0.0,0.0,0.0,0.0,0.0,0.0,0.0,0.0,0.0,0.0,0.0,0.0,0.0,0.0,0.0,0.0,0.0,-1.1462,-0.7031,-0.2386,0.0,0.0,0.0,0.0,0.0,0.0,0.0,0.0,0.0,0.0,0.0,0.0,0.0,0.0,0.0,0.0,0.0,0.0,0.0,0.0,0.0,0.0,0.0,0.0,0.3086,0.7931,1.2712,1.4292,1.5168,1.988,1.8208,1.5598,1.9951,2.152,2.3007,2.7562,2.9045,2.9764,3.0822,3.1284,3.1704,3.2464,3.1664,3.0755,3.0456,3.0633,3.0836,3.0836,3.1948,3.4628,3.9999,4.0785,4.2719,4.7836,5.3142,5.6194,5.5936,6.0803,6.3621,6.3327,6.3033,6.2739,6.2445,6.1617,6.0842,6.0281,5.9693,5.9105,5.8491,5.8197,5.7903,5.7609,5.7021,5.6727,5.6727,5.6727,5.6273,5.5418,5.5418,5.5097,5.4563,5.4563,5.4563,5.4563,5.4563,5.4563,5.4563,5.4563,5.4563,5.4589,0.0,0.0,0.0,0.0,0.0,0.0,0.0,0.0,0.0,0.0,0.0,0.0,0.0,0.0,0.0,0.0,0.0,0.0,0.0,0.0,0.0,0.0,0.0,0.0,0.0,0.0,0.0,0.0,0.0,0.0,0.0,0.0,0.0,0.0,0.0,0.0,0.0,0.0,0.0,0.0,0.0,0.0,0.0,0.0,0.0,0.0,0.0,0.0,0.0,0.0,0.0,0.0,0.7707,0.9279,1.0146,1.5033,1.5368,1.531,1.9918,2.1506,2.3001,2.7903,2.9493,3.0158,3.1528,3.1813,3.2071,3.3047,3.2627,3.1948,3.1541,3.1541,3.1555,3.1474,3.2138,3.3357,3.5178,3.8485,4.1318,4.2722,5.0619,5.5912,5.5654,6.0154,6.3113,6.3033,6.2552,6.0528,5.6805,5.9015,5.8781,5.4715,5.7045,5.8384,5.8197,5.7475,5.7074,5.6994,5.662,5.6567,5.6727,5.6513,5.6059,5.5418,5.5418,5.5097,5.4563,5.4563,5.4563,5.4563,5.4563,5.4563,5.4563,5.4563,5.4563,5.4616,0.0,0.0,0.0,0.0,0.0,0.0,0.0,0.0,0.0,0.0,-2.7196,-2.5749,0.0,0.0,0.0,0.0,0.0,0.0,0.0,0.0,0.0,0.0,0.0,0.0,0.0,-0.1465,0.0,0.0,0.0,0.0,0.0,0.0,0.0,0.0,0.0,0.0,0.0,0.0,0.0,0.0,0.0,0.0,0.0,0.0,0.0,0.0,0.0,0.0,0.0,0.0,0.0,0.0,0.5563,0.5728,0.5187,1.0001,0.9982,0.9968,1.6729,1.8652,2.0689,2.7875,2.9927,3.0551,3.2003,3.2491,3.2871,3.3604,3.3102,3.2464,3.2233,3.2003,3.1867,3.1894,3.2342,3.2749,3.2871,3.5581,3.7397,3.7085,4.4382,5.024,5.1951,5.6803,6.0563,6.2365,6.0264,5.7237,5.3881,5.5677,5.5311,5.198,5.5774,5.7849,5.7689,5.7074,5.6674,5.6567,5.638,5.6406,5.6567,5.6273,5.5872,5.5418,5.5177,5.4964,5.4723,5.4589,5.4563,5.4563,5.4563,5.4563,5.4563,5.4563,5.4563,5.4616,0.0,0.0,0.0,0.0,0.0,0.0,0.0,0.0,0.0,0.0,-2.5708,-2.5762,0.0,0.0,0.0,0.0,0.0,0.0,0.0,0.0,0.0,0.0,0.0,0.0,0.0,0.0,0.0,0.0,0.0,0.0,0.0,0.0,0.0,0.0,0.0,0.0,0.0,0.0,0.0,0.0,0.0,0.0,0.0,0.0,0.0,0.0,0.0,0.0,0.0,0.0,0.0,0.0,0.5022,0.3415,0.09,0.514,0.3379,0.2146,1.1906,1.4669,1.7246,2.733,3.0361,3.1107,3.2369,3.3197,3.378,3.4051,3.3251,3.2532,3.2627,3.2193,3.1921,3.2179,3.2545,3.2762,3.264,3.2586,3.241,3.2003,3.6571,4.1706,4.6709,5.1801,5.6834,6.1566,5.7002,5.3465,5.2376,5.2013,5.1341,5.0705,5.5165,5.7395,5.7155,5.6861,5.6567,5.63,5.63,5.63,5.63,5.6006,5.5765,5.5418,5.4803,5.4723,5.4964,5.467,5.4563,5.4563,5.4563,5.4563,5.4563,5.4563,5.4563,5.4616,0.0,0.0,0.0,0.0,0.0,0.0,0.0,0.0,0.0,0.0,0.0,0.0,0.0,0.0,0.0,0.0,0.0,0.0,0.0,0.0,0.0,0.0,0.0,0.0,0.0,0.0,0.0,0.0,0.0,0.0,0.0,0.0,0.0,0.0,0.0,0.0,0.0,0.0,0.0,0.0,0.0,0.0,0.0,0.0,0.0,0.0,0.0,0.0,0.0,0.0,0.0,0.0,0.1257,0.0893,0.0178,0.125,0.0891,0.2128,1.1756,1.4872,1.7569,2.7567,3.1135,3.2342,3.2993,3.3346,3.3576,3.3631,3.3454,3.3197,3.3007,3.2762,3.2613,3.2667,3.2667,3.2695,3.2776,3.2478,3.222,3.2125,3.6431,4.1403,4.6689,5.1355,5.6076,6.0955,5.6074,5.1005,4.6684,4.9397,4.9144,4.5169,5.2802,5.6887,5.6834,5.6567,5.638,5.63,5.63,5.63,5.63,5.6246,5.6059,5.5738,5.491,5.4723,5.4964,5.467,5.4563,5.4563,5.4563,5.4563,5.4563,5.4563,5.4696,5.4964,0.0,0.0,0.0,0.0,0.0,0.0,0.0,0.0,0.0,0.0,0.0,0.0,0.0,0.0,0.0,0.0,0.0,0.0,0.0,0.0,0.0,0.0,0.0,0.0,0.0,0.0,0.0,0.0,0.0,0.0,0.0,0.0,0.0,0.0,0.0,0.0,0.0,0.0,0.0,0.0,0.0,0.0,0.0,0.0,0.0,0.0,0.0,0.0,0.0,0.0,0.0,0.0,0.0,0.0,0.2836,0.0712,0.0,0.1598,0.8927,1.3087,1.7892,2.8444,3.1867,3.2817,3.3183,3.3346,3.34,3.34,3.34,3.3346,3.3183,3.298,3.2817,3.2722,3.26,3.2478,3.241,3.2193,3.1962,3.1759,3.4016,3.8417,4.5709,4.8473,5.2588,5.9765,5.3174,4.731,4.4357,4.6117,4.5882,4.3271,5.2063,5.6727,5.6727,5.646,5.63,5.63,5.63,5.63,5.63,5.6166,5.6006,5.5845,5.5097,5.491,5.5177,5.4723,5.4563,5.4563,5.4563,5.4563,5.4563,5.4563,5.467,5.4803,0.0,0.0,0.0,0.0,0.0,0.0,0.0,0.0,0.0,0.0,0.0,0.0,0.0,0.0,0.0,0.0,0.0,0.0,0.0,0.0,0.0,0.0,0.0,0.0,0.0,0.0,0.0,0.0,0.0,0.0,0.0,0.0,0.0,0.0,0.0,0.0,0.0,0.0,0.0,0.0,0.0,0.0,0.0,0.0,0.0,0.0,0.0,0.0,0.0728,0.5411,0.0,0.0,0.0,0.0,0.602,0.1413,0.0,0.1066,0.6063,1.1992,1.9306,2.9405,3.2396,3.2871,3.3169,3.3224,3.3197,3.3197,3.3237,3.3251,3.3197,3.298,3.2749,3.2586,3.2423,3.222,3.1935,3.184,3.1664,3.1284,3.1216,3.4666,4.3706,4.492,4.8634,5.746,4.9465,4.3975,4.3413,4.317,4.3049,4.3049,5.1892,5.6674,5.6674,5.6406,5.63,5.63,5.63,5.63,5.63,5.6059,5.5899,5.5845,5.5204,5.507,5.5258,5.4696,5.4456,5.4402,5.4509,5.4509,5.4483,5.4509,5.4589,5.4616,0.0,0.0,0.0,0.0,0.0,0.0,0.0,0.0,0.0,0.0,-2.6006,-2.6129,0.0,0.0,0.0,0.0,0.0,0.0,0.0,0.0,0.0,0.0,0.0,0.0,0.0,0.0,0.0,0.0,0.0,0.0,0.0,0.0,0.0,0.0,0.0,0.0,0.0,0.0,0.0,0.0,0.0,0.0,0.0,0.0,0.0,0.0,0.0,0.0,0.0723,0.5358,0.6914,0.0,0.0,0.0,0.5959,0.1404,0.0,0.1049,0.5988,1.4787,2.4052,3.0618,3.2396,3.2708,3.302,3.2993,3.2885,3.2885,3.3102,3.3197,3.2939,3.2749,3.2586,3.245,3.2179,3.1935,3.1772,3.1528,3.1284,3.1107,3.0958,3.3079,3.8642,4.2332,4.6684,5.1982,4.6998,4.3413,4.317,4.2948,4.2672,4.2672,5.1623,5.638,5.638,5.6353,5.63,5.63,5.63,5.63,5.63,5.6273,5.6113,5.5845,5.499,5.4616,5.4616,5.4296,5.4002,5.3841,5.4349,5.4402,5.4189,5.4456,5.4696,5.4937,0.0,0.0,0.0,0.0,0.0,0.0,0.0,0.0,0.0,0.0,0.0,-2.6101,0.0,0.0,0.0,0.0,0.0,0.0,0.0,0.0,0.0,0.0,0.0,0.0,0.0,0.0,0.0,0.0,-0.2351,0.0,0.0,0.0,0.0,0.0,0.0,0.0,0.0,0.0,0.0,0.0,0.0,0.0,0.0,0.0,0.0,0.0,0.0,0.0,0.1089,0.859,1.1008,1.0961,1.0961,0.0,0.0,0.0,0.0,0.175,0.987,1.5548,2.1451,3.0066,3.2315,3.2573,3.2871,3.2817,3.2667,3.26,3.2695,3.2762,3.2708,3.2518,3.2288,3.2057,3.1759,3.1474,3.1243,3.1107,3.0931,3.07,3.0687,3.2613,3.7236,4.1492,4.5998,5.0533,4.6126,4.2948,4.2745,4.0209,3.9823,4.241,4.8915,5.3685,5.63,5.63,5.63,5.63,5.5979,5.5979,5.63,5.6139,5.5979,5.5845,5.5097,5.4696,5.4509,5.4055,5.3761,5.3681,5.4135,5.4215,5.4162,5.4456,5.4616,5.475,0.0,0.0,0.0,0.0,0.0,0.0,0.0,0.0,0.0,0.0,0.0,0.0,0.0,0.0,0.0,0.0,0.0,0.0,0.0,0.0,0.0,0.0,0.0,0.0,0.0,0.0,0.0,0.0,-0.1802,0.0,0.0,0.0,0.0,0.0,0.0,0.0,0.0,0.0,0.0,0.0,0.0,0.0,0.0,0.0,0.0,0.0,0.0,0.0,0.1272,0.9525,1.229,1.2208,1.2384,1.2313,0.0,0.0,0.0,0.1926,1.1018,1.4571,1.8105,2.7624,3.1025,3.2098,3.2518,3.2518,3.241,3.2301,3.2247,3.2247,3.2355,3.2166,3.1921,3.1704,3.1365,3.1067,3.0809,3.0728,3.0592,3.0293,3.0402,3.1791,3.4921,3.9252,4.3282,4.6455,4.3277,4.0886,4.0712,3.7447,3.7603,4.2249,4.6939,5.1622,5.63,5.6246,5.6166,5.6086,5.5658,5.5658,5.6086,5.5952,5.5765,5.5498,5.507,5.4616,5.4189,5.3734,5.3494,5.3467,5.3948,5.4082,5.4055,5.4402,5.4563,5.4563,0.0,0.0,0.0,0.0,0.0,0.0,0.0,0.0,0.0,0.0,0.0,0.0,-2.6549,-2.6698,-2.678,-2.678,0.0,0.0,0.0,0.0,0.0,0.0,0.0,0.0,0.0,0.0,0.0,-0.0356,-0.018,0.0,0.0,0.0,0.0,0.0,0.0,0.0,0.0,0.0,0.0,0.0,0.0,0.0,0.0,0.0,0.0,0.0,0.0,0.0,0.0724,0.5594,0.7318,0.7223,0.7223,0.7202,0.6291,0.0,0.0,0.0,0.6343,1.1207,1.6272,2.2112,2.7321,3.108,3.1813,3.1962,3.1962,3.1948,3.184,3.1759,3.1772,3.1636,3.1528,3.1514,3.1135,3.0782,3.0633,3.0483,3.0293,2.9981,3.0076,2.9995,2.9913,3.4146,3.6781,3.657,3.6171,3.5876,3.5876,3.5718,3.7603,4.2249,4.6939,5.1622,5.63,5.6006,5.5765,5.5471,5.5418,5.5418,5.5471,5.5765,5.5418,5.4616,5.4589,5.4082,5.328,5.3253,5.3066,5.2933,5.3788,5.3948,5.3761,5.4349,5.4563,5.4563,0.0,0.0,0.0,0.0,0.0,0.0,0.0,0.0,0.0,0.0,0.0,0.0,0.0,-2.6766,-2.6834,-2.6943,-2.7173,0.0,0.0,0.0,0.0,0.0,0.0,0.0,0.0,0.0,-1.0711,-0.4422,-0.1432,0.0,0.0,0.0,0.0,0.0,0.0,0.0,0.0,0.0,0.0,0.0,0.0,0.0,0.0,0.0,0.0,0.0,0.0,0.0,0.0731,0.545,0.7027,0.6974,0.6948,0.7078,0.6143,0.1395,0.0,0.1042,0.6146,1.0966,1.6104,2.1558,2.6794,3.0755,3.1012,3.146,3.1718,3.1419,3.1406,3.1406,3.1311,3.1311,3.1284,3.108,3.0836,3.0592,3.0348,3.0253,3.0158,2.9941,2.9968,2.9832,2.9371,3.3628,3.6109,3.5671,3.5645,3.5493,3.5357,3.2584,3.4487,4.2048,4.3789,4.8188,5.5571,5.5258,5.5177,5.5418,5.4857,5.4883,5.5418,5.5364,5.5044,5.4509,5.4162,5.3681,5.32,5.2986,5.2986,5.3093,5.3628,5.3868,5.4002,5.4402,5.4563,5.4563,0.0,0.0,0.0,0.0,0.0,0.0,0.0,0.0,0.0,-2.6631,0.0,0.0,0.0,0.0,-2.6902,-2.716,-2.7404,0.0,0.0,0.0,0.0,0.0,0.0,0.0,0.0,-1.6125,-1.1509,-0.6871,-0.2312,0.0,0.0,0.0,0.0,0.0,0.0,0.0,0.0,0.0,0.0,0.0,0.0,0.0,0.0,0.0,0.0,0.0,0.0,0.0,0.0551,0.3664,0.4734,0.4701,0.467,0.479,0.403,0.0871,0.0,0.1037,0.593,1.0649,1.563,2.099,2.6155,2.9886,3.0348,3.0782,3.108,3.0999,3.1012,3.104,3.0985,3.0958,3.0917,3.0768,3.0578,3.0375,3.0185,3.0103,3.0009,2.9873,2.9805,2.9642,2.9289,3.205,3.3658,3.3296,3.3122,3.3108,3.2934,3.0019,3.2587,4.1826,4.5001,4.9255,5.4959,5.4723,5.467,5.4803,5.4242,5.4269,5.4803,5.475,5.4483,5.4082,5.3681,5.3387,5.3173,5.2879,5.296,5.3253,5.3654,5.3948,5.4162,5.4456,5.4563,5.4563,0.0,0.0,0.0,0.0,0.0,0.0,0.0,0.0,-2.6631,-2.678,0.0,0.0,0.0,0.0,0.0,-2.7458,-2.7607,-2.7892,0.0,0.0,0.0,0.0,0.0,0.0,-2.1116,-1.6185,-1.1603,-0.7044,-0.2294,0.0,0.0,0.0,0.0,0.0,0.0,0.0,0.0,0.0,0.0,0.0,0.0,0.0,0.0,0.0,0.0,0.0,0.0,0.0,0.0,0.0,0.0,0.0,0.0,0.0,0.0,0.0,0.0,0.1035,0.0,0.0,0.0,2.0312,2.4955,2.8489,2.9791,3.0009,3.0076,3.0687,3.0687,3.0633,3.0782,3.0578,3.0415,3.0538,3.0334,3.0144,3.0144,3.0009,2.9873,2.9724,2.9574,2.9412,2.9276,2.9113,2.8896,2.8598,2.8448,2.8299,2.8136,2.831,3.2571,4.1415,5.0865,5.5391,5.4509,5.4509,5.4242,5.3654,5.3654,5.3654,5.3654,5.3975,5.3788,5.32,5.32,5.32,5.3173,5.2879,5.296,5.328,5.3895,5.4109,5.4162,5.4456,5.4563,5.4563,0.0,0.0,0.0,0.0,0.0,0.0,-2.6536,-2.6658,-2.6753,0.0,0.0,0.0,-2.6956,-2.7255,-2.7539,-2.777,-2.7824,-2.7906,0.0,0.0,0.0,0.0,-2.7743,-2.7016,-2.579,-1.7971,-1.3178,-1.1898,-0.386,0.0,0.0,0.0,0.0,0.0,0.0,0.0,0.0,0.0,0.0,0.0,0.0,0.0,0.0,0.0,0.0,0.0,0.0,0.0,0.0,0.0,0.0,0.0,0.0,0.0,0.0,0.0,0.0,0.1034,0.548,0.0,0.0,0.0,0.0,0.0,2.8774,2.9412,2.9995,3.028,3.0402,3.0456,3.0483,3.0253,3.0022,2.9954,3.0063,3.0117,2.9995,2.9954,2.99,2.9873,2.9642,2.9371,2.9127,2.8964,2.8706,2.8299,2.8231,2.8082,2.7838,3.4202,3.8877,4.09,5.0033,5.4589,5.3895,5.3681,5.3601,5.3654,5.3441,5.3441,5.3654,5.3734,5.3681,5.3521,5.3066,5.304,5.3173,5.2879,5.3066,5.3574,5.3975,5.4269,5.4456,5.4509,5.4563,5.4563,0.0,0.0,0.0,0.0,0.0,-2.6481,-2.6549,-2.6753,-2.6875,0.0,0.0,0.0,-2.7187,-2.7662,-2.796,-2.7906,-2.8041,0.0,0.0,0.0,0.0,-2.7784,-2.7784,-2.7757,-2.7702,-1.8641,-1.3863,-1.3832,-0.4544,0.0,0.0,0.0,0.0,0.0,0.0,0.0,0.0,0.0,0.0,0.0,0.0,0.0,0.0,0.0,0.0,0.0,0.0,0.0,0.0,0.0,0.0,0.0,0.0,0.0,0.0,0.0,0.0,0.0,0.0,0.0,0.0,1.9361,0.0,0.0,2.8286,2.8747,2.9195,2.9602,2.971,2.9751,2.9819,2.9724,2.9629,2.9534,2.971,2.9873,2.9832,2.9832,2.9819,2.9751,2.9588,2.9344,2.8991,2.8869,2.8598,2.8082,2.7987,2.7865,2.7607,3.4648,3.8518,3.8086,4.6887,5.1393,5.0861,5.2373,5.3253,5.328,5.3093,5.312,5.328,5.328,5.328,5.3253,5.2666,5.2639,5.304,5.2853,5.312,5.3681,5.4135,5.4402,5.4563,5.4563,5.4563,5.4563,0.0,0.0,0.0,0.0,0.0,-2.6576,-2.6576,-2.6834,-2.6997,0.0,-2.7051,-2.7295,-2.7607,-2.8109,-2.8313,-2.8055,0.0,0.0,0.0,0.0,0.0,-2.7892,-2.7892,-2.7824,-2.7702,-1.8595,-1.385,-1.3885,-0.4539,0.0,0.0,0.0,0.0,0.0,0.0,0.0,0.0,0.0,0.0,0.0,0.0,0.0,0.0,0.0,0.0,0.0,0.0,0.0,0.0,0.0,0.0,0.0,0.0,0.0,0.0,0.0,0.0,0.0,0.0,0.0,0.0,1.9468,2.3962,0.0,2.8109,2.8096,2.8123,2.8869,2.8896,2.8842,2.8964,2.91,2.9167,2.9127,2.9289,2.9479,2.9669,2.9669,2.9629,2.9493,2.9452,2.9276,2.8842,2.8774,2.8516,2.7906,2.7716,2.7567,2.7431,3.1926,3.4529,3.4343,4.2549,4.7032,4.7009,5.0557,5.2563,5.2773,5.2773,5.2773,5.2773,5.2773,5.2773,5.2746,5.2238,5.2292,5.2826,5.2853,5.3173,5.3734,5.4296,5.4563,5.4563,5.4563,5.4563,5.4563,0.0,0.0,0.0,0.0,0.0,0.0,-2.6576,-2.6834,-2.7065,-2.7132,-2.7716,-2.8272,-2.8693,-2.872,-2.876,-2.8815,0.0,0.0,0.0,0.0,-2.7933,-2.7757,-2.7743,-2.7729,-2.7702,-1.8496,-1.3877,-1.3805,-0.4548,0.0,0.0,0.0,0.0,0.0,0.0,0.0,0.0,0.0,0.0,0.0,0.0,0.0,0.0,0.0,0.0,0.0,0.0,0.0,0.0,0.0,0.0,0.0,0.0,0.0,0.0,0.0,0.0,0.1046,0.5456,0.9979,1.4505,1.9019,2.3591,0.0,2.7702,2.7879,2.8082,2.872,2.8828,2.8774,2.8693,2.8693,2.8638,2.8394,2.8693,2.9127,2.9642,2.9493,2.9371,2.9466,2.9276,2.9045,2.8828,2.8598,2.8218,2.7594,2.7309,2.716,2.7119,3.1706,3.4055,3.3768,3.919,4.3613,4.6588,4.7325,4.9478,5.2773,5.2773,5.2773,5.2773,5.2773,5.2773,5.2773,5.2666,5.2799,5.3147,5.3387,5.3547,5.3734,5.4296,5.4563,5.4563,5.4563,5.4563,5.4563,0.0,0.0,0.0,0.0,0.0,0.0,-2.6576,-2.6834,-2.7132,-2.7431,-2.8313,-2.8923,-2.8937,-2.8991,-2.8937,-2.872,0.0,0.0,0.0,0.0,-2.796,-2.7811,-2.7811,-2.7811,-2.7811,-1.8542,-1.3731,-1.3838,-0.4555,0.0,0.0,0.0,0.0,0.0,0.0,0.0,0.0,0.0,0.0,0.0,0.0,0.0,0.0,0.0,0.0,0.0,0.0,0.0,0.0,0.0,0.0,0.0,0.0,0.0,0.0,0.0,0.0,0.0529,0.2753,0.8356,1.4106,1.6226,2.194,0.0,0.0,2.7472,2.758,2.7946,2.8041,2.8001,2.7933,2.8082,2.8191,2.8055,2.8286,2.8611,2.8991,2.9167,2.9249,2.9249,2.9059,2.8815,2.8516,2.834,2.8001,2.7404,2.7078,2.6943,2.7024,2.9385,3.065,3.0574,3.5043,3.9337,4.3603,4.5477,4.8725,5.2986,5.2853,5.2773,5.2773,5.2773,5.2773,5.2773,5.2639,5.2746,5.304,5.3334,5.3521,5.3734,5.4296,5.4563,5.4563,5.4563,5.4563,5.4563,0.0,0.0,0.0,0.0,0.0,0.0,0.0,0.0,-2.7255,-2.7811,-2.8815,-2.9371,-2.91,-2.9235,-2.9195,-2.8828,0.0,0.0,-2.8177,-2.8109,-2.8001,-2.7879,-2.7892,-2.7892,-2.7879,-1.8578,-1.3764,-1.3717,-0.4568,0.0,0.0,0.0,0.0,0.0,0.0,0.0,0.0,0.0,0.0,0.0,0.0,0.0,0.0,0.0,0.0,0.0,0.0,0.0,0.0,0.0,0.0,0.0,0.0,0.0,0.0,0.0,0.0,0.0,0.0,0.6702,1.3707,1.3604,2.0344,2.7132,0.0,0.0,0.0,2.7227,2.7241,2.7241,2.72,2.7526,2.7757,2.7662,2.7879,2.8069,2.8136,2.8625,2.8937,2.8883,2.872,2.8489,2.8123,2.8014,2.777,2.7282,2.6956,2.6834,2.6943,2.7132,2.7295,2.739,3.0941,3.5315,4.0638,4.3843,4.8018,5.32,5.296,5.2826,5.2773,5.2773,5.2773,5.2773,5.2532,5.2585,5.2879,5.3173,5.3467,5.3788,5.4349,5.4563,5.4563,5.4563,5.4563,5.4563,-2.6142,-2.602,0.0,0.0,0.0,0.0,0.0,0.0,-2.7526,-2.8367,-2.9059,-2.9602,-2.9954,-2.9805,-2.9832,-3.0293,-2.8991,-2.8408,-2.9059,-2.8245,-2.7743,-2.7716,-2.7838,-2.7865,-2.7729,-1.8769,-1.3979,-1.3717,-0.4584,0.0,0.0,0.0,0.0,0.0,0.0,0.0,0.0,0.0,0.0,0.0,0.0,0.0,0.0,0.0,0.0,0.0,0.0,0.0,0.0,0.0,0.0,0.0,0.0,0.0,0.0,0.0,0.0,0.0,0.0,0.6659,1.3686,1.3482,2.0512,2.7363,2.7119,0.0,2.7227,2.7241,0.0,2.72,2.7078,0.0,0.0,2.678,2.7295,2.7662,2.7404,2.7662,2.796,2.8218,2.8109,2.8001,2.7946,2.758,2.7309,2.7241,2.6956,2.6753,2.6631,2.701,2.7187,2.7078,2.7829,3.2306,4.0598,4.1036,4.5266,5.32,5.3173,5.304,5.2773,5.2773,5.2773,5.2773,5.2746,5.2879,5.3173,5.3467,5.3788,5.4082,5.4402,5.4563,5.4563,5.4563,5.4563,5.4563,-2.6129,-2.6006,0.0,0.0,0.0,0.0,0.0,0.0,-2.7933,-2.8408,-2.9059,-2.9629,-2.9981,-2.9669,-2.9629,-3.0049,-2.9222,-2.872,-2.8842,-2.8367,-2.8096,-2.8096,-2.5249,-2.3869,-2.3961,-1.4747,-0.9849,-0.9725,-0.3181,0.0,0.0,0.0,0.0,0.0,0.0,0.0,0.0,0.0,0.0,0.0,0.0,0.0,0.0,0.0,0.0,0.0,0.0,0.0,0.0,0.0,0.0,0.0,0.0,0.0,0.0,0.0,0.0,0.0,0.0,0.486,1.0459,1.3036,1.8613,2.4108,2.6686,2.7255,2.7227,2.7132,0.0,0.0,0.0,0.0,0.0,0.0,2.7173,2.7377,2.7255,2.7132,2.7282,2.7933,2.7648,2.7404,2.7404,2.7377,2.7309,2.7132,2.7078,2.6902,2.659,2.6929,2.7051,2.6902,2.7282,3.048,3.6804,3.9357,4.3734,4.989,5.2053,5.3147,5.304,5.2853,5.2773,5.2773,5.2773,5.2853,5.2986,5.3467,5.3734,5.3895,5.4376,5.4563,5.4563,5.4563,5.4563,5.4563,-2.6196,0.0,0.0,-2.6061,0.0,0.0,0.0,-2.735,-2.7892,-2.8272,-2.8815,-2.9371,-2.9873,-2.9669,-2.9724,-3.028,-2.9724,-2.9289,-2.914,-2.872,-2.8448,-2.8313,-2.4907,-2.2472,-2.1363,-1.3292,-0.8328,-0.6944,-0.2305,0.0,0.0,0.0,0.0,0.0,0.0,0.0,0.0,0.0,0.0,0.0,0.0,0.0,0.0,0.0,0.0,0.0,0.0,0.0,0.0,0.0,0.0,0.0,0.0,0.0,0.0,0.0,0.0,0.0,0.0,0.334,0.8131,1.264,1.722,2.1834,2.6294,2.735,2.7255,2.7119,2.7065,0.0,0.0,0.0,2.7132,2.6997,0.0,2.716,2.7065,2.6753,2.6807,2.758,2.7255,2.6983,2.7024,2.7227,2.7241,2.6997,2.7065,2.6983,2.6658,2.6848,2.6956,2.6929,2.7241,2.962,3.4224,3.8641,4.2938,4.7432,5.143,5.328,5.32,5.2933,5.2773,5.2773,5.2773,5.2773,5.2826,5.3414,5.3654,5.3734,5.4296,5.4563,5.4563,5.4563,5.4589,5.467,-2.6359,-2.6237,-2.6074,-2.5939,-2.602,-2.6291,-2.6725,-2.682,-2.716,-2.8041,-2.8299,-2.8801,-2.9819,-3.0049,-3.0592,-3.1759,-3.0782,-3.0239,-3.051,-2.9452,-2.8598,-2.8163,-2.8245,-2.6006,-2.1085,-1.656,-1.179,-0.6981,-0.2319,0.0,0.0,0.0,0.0,0.0,0.0,0.0,0.0,0.0,0.0,0.0,0.0,0.0,0.0,0.0,0.0,0.0,0.0,0.0,0.0,0.0,0.0,0.0,0.0,0.0,0.0,0.0,0.0,0.0,0.0,0.3516,0.8115,1.2522,1.7412,2.2062,2.6321,2.7363,2.7417,2.7255,2.7119,2.7024,2.7024,2.7024,2.6997,0.0,0.0,0.0,0.0,2.6468,2.6536,2.6997,2.6902,2.6875,2.701,2.7024,2.6983,2.682,2.682,2.6807,2.6807,2.6807,2.6943,2.7227,2.7241,2.9561,3.4427,3.8737,4.3104,4.7455,5.1636,5.3494,5.32,5.2933,5.2773,5.2773,5.2773,5.2773,5.2826,5.3414,5.3654,5.3734,5.4296,5.4563,5.4563,5.4563,5.475,5.499,-2.6508,-2.6468,-2.6346,-2.6101,-2.6101,-2.6183,-2.6346,-2.6698,-2.7377,-2.8584,-2.9045,-2.9846,-3.1392,-3.1514,-3.1718,-3.2315,-3.1826,-3.1311,-3.0931,-3.0144,-2.9629,-2.9479,-2.5998,-2.3361,-2.2106,-1.7157,-1.2037,-0.7201,-0.5531,-0.3016,0.0,0.0,0.0,0.0,0.0,0.0,0.0,0.0,0.0,0.0,0.0,0.0,0.0,0.0,0.0,0.0,0.0,0.0,0.0,0.0,0.0,0.0,0.0,0.0,0.0,0.0,0.0,0.0,0.0,0.1092,0.4208,1.1877,1.494,1.8208,2.5828,2.7729,2.7824,2.7472,2.7431,2.7377,2.7078,2.7024,0.0,0.0,0.0,0.0,0.0,2.6807,2.6644,2.659,2.6712,2.6753,2.6603,2.6943,2.6997,2.6536,2.678,2.682,2.6522,2.6603,2.6658,2.6658,2.6943,2.7818,2.9414,3.7046,4.1614,4.3104,5.0314,5.3494,5.32,5.2933,5.2773,5.2773,5.2773,5.2879,5.3093,5.3494,5.3761,5.4002,5.4402,5.4563,5.4563,5.4563,5.475,5.499,-2.6658,-2.6658,-2.6549,-2.6278,-2.6115,-2.6074,-2.6196,-2.6712,-2.7594,-2.8937,-2.9493,-3.0456,-3.2193,-3.2355,-3.2478,-3.2885,-3.2749,-3.222,-3.1189,-3.0904,-3.0551,-3.0009,-2.6802,-2.4159,-2.2816,-1.9313,-1.4201,-0.744,-0.7363,-0.4808,0.0,0.0,0.0,0.0,0.0,0.0,0.0,0.0,0.0,0.0,0.0,0.0,0.0,0.0,0.0,0.0,0.0,0.0,0.0,0.0,0.0,0.0,0.0,0.0,0.0,0.0,0.0,0.0,0.0,0.0,0.1863,0.9438,1.273,1.6002,2.3611,2.6743,2.8191,2.7865,2.7702,2.7634,2.7662,2.7309,0.0,0.0,0.0,0.0,0.0,2.6807,2.6549,2.6305,2.6508,2.6576,2.6386,2.6658,2.6712,2.6386,2.6576,2.6658,2.6522,2.6508,2.6536,2.659,2.6875,2.7051,2.7105,3.4639,3.9268,4.0643,4.7941,5.2023,5.32,5.2933,5.2773,5.2773,5.2879,5.3093,5.3387,5.3681,5.4002,5.4296,5.4483,5.4563,5.4563,5.467,5.4964,5.5284,-2.6807,-2.678,-2.6698,-2.6413,-2.6115,-2.6006,-2.6305,-2.6875,-2.7757,-2.9113,-2.9724,-3.066,-3.2288,-3.26,-3.2939,-3.3509,-3.3549,-3.2939,-3.1474,-3.1759,-3.1352,-2.9927,-3.051,-2.8609,-2.3588,-2.3325,-1.8197,-0.807,-0.7795,-0.5027,0.0,0.0,0.0,0.0,0.0,0.0,0.0,0.0,0.0,0.0,0.0,0.0,0.0,0.0,0.0,0.0,0.0,0.0,0.0,0.0,0.0,0.0,0.0,0.0,0.0,0.0,0.0,0.0,0.0,0.0,0.1118,0.5708,1.0853,1.5778,1.9939,2.4863,2.8598,2.8448,2.7946,2.7784,2.8611,2.7824,2.7282,0.0,0.0,0.0,0.0,2.6468,2.6332,2.6169,2.6278,2.6359,2.6346,2.6237,2.6196,2.6346,2.6224,2.6318,2.6766,2.6508,2.6549,2.6997,2.7024,2.7078,2.7227,3.1874,3.6361,4.0625,4.489,4.9181,5.32,5.2933,5.2773,5.2826,5.3093,5.3387,5.3681,5.4002,5.4296,5.4563,5.4563,5.4563,5.4616,5.491,5.5391,5.5845,-2.6807,-2.6631,-2.6454,-2.6373,-2.6115,-2.5966,-2.6169,-2.7065,-2.8231,-2.9574,-3.0822,-3.2098,-3.34,-3.3875,-3.4119,-3.4173,-3.4173,-3.3875,-3.3142,-3.2776,-3.2423,-3.2057,-3.1691,-3.0903,-2.955,-2.8774,-2.3501,-1.3579,-1.2881,-0.8384,0.0,0.0,0.0,0.0,0.0,0.0,0.0,0.0,0.0,0.0,0.0,0.0,0.0,0.0,0.0,0.0,0.0,0.0,0.0,0.0,0.0,0.0,0.0,0.0,0.0,0.0,0.0,0.0,0.0,0.0,0.1141,0.5824,1.0867,1.5834,2.026,2.5406,2.9317,2.895,2.8652,2.8408,2.8177,2.7607,2.7227,0.0,0.0,0.0,2.6766,2.6712,2.659,2.6332,2.6427,2.6427,2.6224,2.6359,2.6373,2.6196,2.6142,2.6278,2.6603,2.6346,2.6346,2.6685,2.6902,2.6997,2.6902,3.1636,3.6216,4.0625,4.4733,4.9034,5.32,5.2933,5.2879,5.3093,5.3173,5.3494,5.4002,5.4082,5.4296,5.4563,5.4563,5.4803,5.5204,5.5284,5.5551,5.5872,-2.6807,-2.6576,-2.6359,-2.6359,-2.6427,-2.6549,-2.678,-2.7336,-2.8286,-2.9819,-3.1107,-3.2247,-3.3251,-3.4051,-3.4485,-3.4404,-3.435,-3.4038,-3.3373,-3.3319,-3.3142,-3.2749,-3.2586,-3.245,-3.2315,-3.1433,-2.6017,-1.5713,-1.5123,-0.9654,0.0,0.0,0.0,0.0,0.0,0.0,0.0,0.0,0.0,0.0,0.0,0.0,0.0,0.0,0.0,0.0,0.0,0.0,0.0,0.0,0.0,0.0,0.0,0.0,0.0,0.0,0.0,0.0,0.0,0.0,0.0576,0.3241,0.78,1.2876,1.7433,2.2619,2.6912,2.8759,2.895,2.8693,2.8611,2.7906,2.7295,2.716,2.7065,2.6997,2.6902,2.6725,2.6522,2.6291,2.6224,2.6115,2.5952,2.6196,2.6251,2.5952,2.5884,2.5925,2.6074,2.6047,2.6169,2.6468,2.6834,2.6997,2.6902,2.9602,3.312,3.7371,4.1874,4.6218,5.0227,5.2165,5.2986,5.304,5.328,5.3681,5.4109,5.4269,5.4483,5.4723,5.4589,5.491,5.5418,5.5418,5.5605,5.5845,-2.6807,-2.6576,-2.6359,-2.6386,-2.6902,-2.7472,-2.7879,-2.7919,-2.8476,-3.0076,-3.1135,-3.1962,-3.2627,-3.3671,-3.4336,-3.4309,-3.4228,-3.3834,-3.302,-3.359,-3.359,-3.2817,-3.3278,-3.3359,-3.2939,-3.2166,-2.6502,-1.5921,-1.5391,-1.0049,0.0,0.0,0.0,0.0,0.0,0.0,0.0,0.0,0.0,0.0,0.0,0.0,0.0,0.0,0.0,0.0,0.0,0.0,0.0,0.0,0.0,0.0,0.0,0.0,0.0,0.0,0.0,0.0,0.0,0.0,0.0,0.0,0.3848,0.9016,1.3571,1.855,2.3735,2.8515,2.91,2.8815,2.9303,2.834,2.7417,2.7255,2.716,2.7078,2.7078,2.6753,2.6427,2.6237,2.5979,0.0,2.5722,2.5939,2.5952,2.5667,2.5518,2.5464,2.5518,2.5722,2.6006,2.6373,2.678,2.701,2.7024,2.7173,2.9253,3.3362,3.7649,4.2058,4.6558,5.0488,5.2616,5.2986,5.3441,5.3868,5.4189,5.4456,5.4696,5.491,5.467,5.491,5.5418,5.5391,5.5578,5.5792,-2.6807,-2.6576,-2.64,-2.6522,-2.7241,-2.8109,-2.9018,-2.9778,-3.0429,-3.0999,-3.2179,-3.3007,-3.3156,-3.3671,-3.3983,-3.3848,-3.4051,-3.4051,-3.3766,-3.3875,-3.3875,-3.3712,-3.3807,-3.3712,-3.34,-3.2532,-2.6951,-1.6464,-1.5574,-0.9959,0.0,0.0,0.0,0.0,0.0,0.0,0.0,0.0,0.0,0.0,0.0,0.0,0.0,0.0,0.0,0.0,0.0,0.0,0.0,0.0,0.0,0.0,0.0,0.0,0.0,0.0,0.0,0.0,0.0,0.0,0.0,0.0,0.384,0.9004,1.3927,1.8984,2.4181,2.8933,2.9547,2.91,2.895,2.8123,2.7417,2.7255,2.7336,2.7404,2.7404,2.7336,2.7132,2.6725,2.6522,2.6278,2.5898,2.5817,2.5694,2.5518,2.5355,2.5423,2.5803,2.564,2.5844,2.6522,2.6725,2.6902,2.7024,2.7173,2.9523,3.3934,3.4484,3.9102,4.7101,4.7534,4.9988,5.3868,5.3734,5.3975,5.4483,5.4509,5.4589,5.4616,5.4589,5.491,5.5391,5.5177,5.5258,5.5578,-2.659,-2.6468,-2.6536,-2.7065,-2.7892,-2.8896,-3.0117,-3.0999,-3.146,-3.1284,-3.1894,-3.2355,-3.2355,-3.3102,-3.3576,-3.3509,-3.3631,-3.3712,-3.3712,-3.3848,-3.3943,-3.3943,-3.3943,-3.3834,-3.3631,-3.0062,-2.4484,-1.645,-1.3038,-0.7453,0.0,0.0,0.0,0.0,0.0,0.0,0.0,0.0,0.0,0.0,0.0,0.0,0.0,0.0,0.0,0.0,0.0,0.0,0.0,0.0,0.0,0.0,0.0,0.0,0.0,0.0,0.0,0.0,0.0,0.0,0.0,0.0,0.1913,0.5158,1.0107,1.5177,2.0188,2.4984,2.7756,2.91,2.857,2.7987,2.7567,2.7485,2.7404,2.7377,2.7458,2.735,2.7132,2.6834,2.6468,2.6115,2.5817,2.5518,2.5342,2.5342,2.522,2.522,2.5423,2.5369,2.5654,2.6332,2.6712,2.6997,2.7132,2.7295,2.8322,3.0544,3.2881,3.6212,4.0296,4.489,4.8127,5.0551,5.2557,5.3761,5.4349,5.4483,5.4563,5.4563,5.4563,5.491,5.5391,5.5097,5.5177,5.5471,-2.6658,-2.6658,-2.6943,-2.7879,-2.8788,-2.9778,-3.089,-3.1691,-3.2016,-3.1596,-3.165,-3.1718,-3.1718,-3.26,-3.3183,-3.3183,-3.3197,-3.3292,-3.3454,-3.3699,-3.3848,-3.3848,-3.3875,-3.3807,-3.359,-2.7684,-2.1959,-1.639,-1.0679,-0.5154,0.0,0.0,0.0,0.0,0.0,0.0,0.0,0.0,0.0,0.0,0.0,0.0,0.0,0.0,0.0,0.0,0.0,0.0,0.0,0.0,0.0,0.0,0.0,0.0,0.0,0.0,0.0,0.0,0.0,0.0,0.0,0.0,0.0,0.1333,0.6469,1.1333,1.6324,2.1328,2.6032,2.8991,2.8258,2.7987,2.7811,2.7716,2.7539,2.7458,2.7512,2.7363,2.7173,2.6888,2.6427,2.6047,2.5762,2.541,2.5233,2.5287,2.5125,2.5043,2.5057,2.5138,2.5477,2.6115,2.659,2.6956,2.7187,2.739,2.7417,2.7295,3.1094,3.3279,3.4155,4.1221,4.4875,4.5957,5.03,5.2981,5.4296,5.4483,5.4563,5.4563,5.4563,5.4883,5.5284,5.499,5.5097,5.5364,-2.758,-2.7662,-2.7892,-2.8937,-2.9954,-3.0755,-3.1012,-3.1691,-3.2233,-3.245,-3.2491,-3.2491,-3.2491,-3.2722,-3.2871,-3.2871,-3.3007,-3.3156,-3.3292,-3.3454,-3.3536,-3.3536,-3.3671,-3.3549,-3.3129,-2.7638,-2.1837,-1.639,-1.0534,-0.5174,0.0,0.0,0.0,0.0,0.0,0.0,0.0,0.0,0.0,0.0,0.0,0.0,0.0,0.0,0.0,0.0,0.0,0.0,0.0,0.0,0.0,0.0,0.0,0.0,0.0,0.0,0.0,0.0,0.0,0.0,0.0,0.0,0.0,0.1327,0.646,1.1272,1.6191,2.1289,2.5948,2.8869,2.8245,2.8231,2.8177,2.777,2.7892,2.796,2.7716,2.7892,2.7784,2.7078,2.6956,2.6644,2.5952,2.5844,2.5708,2.5464,2.5179,2.507,2.5192,2.5111,2.5369,2.6115,2.6183,2.6481,2.7051,2.7336,2.7472,2.7458,2.812,3.038,3.436,3.5049,3.7658,4.2023,4.6505,5.076,5.4883,5.467,5.4563,5.4563,5.4563,5.475,5.499,5.4696,5.4777,5.507,-2.8367,-2.8476,-2.8815,-2.9764,-3.0415,-3.1053,-3.1759,-3.2043,-3.2233,-3.245,-3.2478,-3.2478,-3.2478,-3.2532,-3.2573,-3.2573,-3.2708,-3.2844,-3.2993,-3.3237,-3.3332,-3.3237,-3.3373,-3.1823,-2.8184,-2.2619,-1.7088,-1.142,-0.5944,-0.1972,0.0,0.0,0.0,0.0,0.0,0.0,0.0,0.0,0.0,0.0,0.0,0.0,0.0,0.0,0.0,0.0,0.0,0.0,0.0,0.0,0.0,0.0,0.0,0.0,0.0,0.0,0.0,0.0,0.0,0.0,0.0,0.0,0.0,0.0568,0.2644,0.6742,1.1706,1.6755,2.369,2.8923,2.8476,2.8394,2.8286,2.8014,2.7987,2.7933,2.7729,2.7716,2.7567,2.7078,2.6807,2.6427,2.5952,2.583,2.5722,2.5599,2.541,2.5274,2.5233,2.5355,2.564,2.6115,2.6481,2.6875,2.7295,2.7512,2.7607,2.7607,2.7757,2.8685,3.0544,3.3152,3.8181,4.512,4.7187,5.0529,5.4723,5.4589,5.4563,5.4563,5.4563,5.4723,5.4964,5.467,5.4857,5.5284,-2.9154,-2.9289,-2.9656,-3.0551,-3.0945,-3.1392,-3.2098,-3.2138,-3.2125,-3.2179,-3.2193,-3.2233,-3.2315,-3.2247,-3.2233,-3.2315,-3.241,-3.2532,-3.2695,-3.302,-3.3129,-3.2939,-3.3115,-3.0566,-2.4717,-1.9282,-1.3741,-0.8275,-0.2628,-0.0726,-0.2088,-0.2055,-0.1367,0.0,0.0,0.0,0.0,0.0,0.0,0.0,0.0,0.0,0.0,0.0,0.0,0.0,0.0,0.0,0.0,0.0,0.0,0.0,0.0,0.0,0.0,0.0,0.0,0.0,0.0,0.0,0.0,0.0,0.0,0.0,0.0,0.3908,0.9242,1.5462,2.2065,2.726,2.8448,2.8489,2.8367,2.8177,2.8014,2.7865,2.7716,2.7567,2.735,2.6997,2.6685,2.6359,2.6006,2.5884,2.5803,2.5762,2.5694,2.5586,2.5437,2.5599,2.5871,2.6251,2.6671,2.7078,2.7472,2.7634,2.7702,2.7702,2.7811,2.7879,2.8092,3.1195,3.7424,4.5967,4.5989,4.9349,5.4803,5.4616,5.4563,5.4563,5.467,5.4777,5.4857,5.4803,5.5017,5.5311,-2.9954,-3.0131,-3.0415,-3.1311,-3.1718,-3.1881,-3.1759,-3.184,-3.1881,-3.1745,-3.1718,-3.184,-3.2125,-3.1894,-3.184,-3.2138,-3.2166,-3.2233,-3.2396,-3.2817,-3.2925,-3.2627,-3.2898,-3.0378,-2.4491,-1.9024,-1.3583,-0.7971,-0.2672,-0.2408,-0.6744,-0.6738,-0.4307,0.0,0.0,0.0,0.0,0.0,0.0,0.0,0.0,0.0,0.0,0.0,0.0,0.0,0.0,0.0,0.0,0.0,0.0,0.0,0.0,0.0,0.0,0.0,0.0,0.0,0.0,0.0,0.0,0.0,0.0,0.0,0.0,0.3867,1.0039,1.9665,2.1777,2.3175,2.7713,2.8584,2.8476,2.8191,2.8014,2.7865,2.7716,2.7567,2.7309,2.6861,2.6807,2.6631,2.6169,2.6129,2.6061,2.5925,2.6047,2.6061,2.5898,2.5762,2.5952,2.6549,2.6576,2.6875,2.7472,2.7634,2.7702,2.7702,2.7702,2.777,2.7906,2.8069,3.3342,4.2229,4.1633,4.665,5.5364,5.4803,5.4563,5.4589,5.4883,5.4803,5.4616,5.5204,5.5258,5.507,-3.0863,-3.0999,-3.1162,-3.1433,-3.165,-3.1772,-3.1718,-3.1759,-3.1772,-3.1718,-3.1636,-3.1636,-3.184,-3.1772,-3.1759,-3.184,-3.2043,-3.2179,-3.2233,-3.2545,-3.2708,-3.26,-3.2695,-3.0127,-2.4358,-1.8992,-1.3606,-0.7814,-0.2505,-0.0751,-0.2169,-0.2136,-0.1424,0.0,0.0,0.0,0.0,0.0,0.0,0.0,0.0,0.0,0.0,0.0,0.0,0.0,0.0,0.0,0.0,0.0,0.0,0.0,0.0,0.0,0.0,0.0,0.0,0.0,0.0,0.0,0.0,0.0,0.0,0.0,0.0,0.3835,0.908,1.5442,1.9384,2.3175,2.7713,2.8584,2.8489,2.8191,2.8109,2.7906,2.7458,2.735,2.716,2.6698,2.6644,2.6549,2.6305,2.6373,2.6291,2.5939,2.5952,2.5871,2.5627,2.6047,2.6373,2.6576,2.6983,2.7336,2.7634,2.7689,2.7702,2.7702,2.7702,2.777,2.7906,2.8177,3.1589,3.7453,3.7048,4.2244,5.0595,5.0057,5.1672,5.4262,5.1315,5.0204,5.0155,5.0498,5.0693,5.132,-3.1338,-3.1392,-3.1406,-3.1406,-3.1528,-3.1609,-3.1569,-3.1596,-3.1609,-3.1569,-3.146,-3.1433,-3.1541,-3.1541,-3.1582,-3.1636,-3.1813,-3.1935,-3.1989,-3.2274,-3.245,-3.245,-3.2491,-2.9951,-2.4245,-1.892,-1.3412,-0.7872,-0.4257,-0.1704,0.0,-0.1824,-0.1641,0.0,0.0,0.0,0.0,0.0,0.0,0.0,0.0,0.0,0.0,0.0,0.0,0.0,0.0,0.0,0.0,0.0,0.0,0.0,0.0,0.0,0.0,0.0,0.0,0.0,0.0,0.0,0.0,0.0,0.0,0.0,0.0,0.2357,0.6493,1.2884,1.6833,2.0971,2.7345,2.8543,2.8421,2.8177,2.8001,2.7729,2.7295,2.7105,2.6888,2.6603,2.6468,2.6413,2.6427,2.6413,2.6346,2.6169,2.6047,2.5952,2.5884,2.6169,2.6508,2.6888,2.7227,2.7512,2.777,2.7729,2.7702,2.7702,2.7702,2.777,2.7906,2.8109,3.0803,3.5138,3.4952,3.8953,4.5855,4.5476,4.7049,4.9346,4.6726,4.562,4.5832,4.8072,4.8888,4.9683,-3.146,-3.1365,-3.127,-3.127,-3.1392,-3.1433,-3.1297,-3.1392,-3.1419,-3.1297,-3.127,-3.127,-3.127,-3.127,-3.1311,-3.146,-3.1487,-3.1569,-3.1704,-3.1989,-3.2166,-3.2179,-3.2301,-2.98,-2.4538,-1.9248,-1.3817,-0.7748,-0.6796,-0.4386,-0.0565,-0.4657,-0.4274,-0.0561,-0.0187,0.0,0.0,0.0,0.0,0.0,0.0,0.0,0.0,0.0,0.0,0.0,0.0,0.0,0.0,0.0,0.0,0.0,0.0,0.0,0.0,0.0,0.0,0.0,0.0,0.0,0.0,0.0,0.0,0.0,0.0,0.0,0.2691,1.2331,1.4285,1.7141,2.6776,2.8462,2.8299,2.8163,2.777,2.7417,2.7241,2.6861,2.6576,2.6549,2.6332,2.6291,2.6576,2.6346,2.6278,2.6522,2.6291,2.6251,2.6522,2.6156,2.64,2.7417,2.7336,2.7472,2.7892,2.777,2.7702,2.7702,2.7702,2.777,2.7892,2.7906,3.0378,3.4608,3.4269,3.6708,4.1114,4.0725,4.0913,4.1303,4.1354,4.1284,4.1706,4.6612,4.8171,4.869,-3.1311,-3.1284,-3.127,-3.127,-3.1297,-3.1352,-3.1419,-3.1365,-3.1352,-3.1419,-3.1338,-3.127,-3.127,-3.127,-3.1284,-3.1311,-3.1419,-3.1569,-3.1704,-3.1881,-3.2098,-3.2315,-3.2274,-3.1528,-3.013,-2.4853,-1.7427,-0.7984,-0.3737,-0.3117,-0.5818,-0.3064,-0.3236,-0.571,-0.171,0.0,0.0,0.0,0.0,0.0,0.0,0.0,0.0,0.0,0.0,0.0,0.0,0.0,0.0,0.0,0.0,0.0,0.0,0.0,0.0,0.0,0.0,0.0,0.0,0.0,0.0,0.0,0.0,0.0,0.0,0.0,0.2687,1.2272,1.421,1.7059,2.6763,2.8367,2.8177,2.8136,2.777,2.7336,2.6956,2.682,2.6658,2.6427,2.6549,2.6712,2.6902,2.6753,2.6536,2.6251,2.6169,2.6169,2.6237,2.6129,2.6454,2.7282,2.7485,2.7648,2.7757,2.7716,2.7702,2.7702,2.7702,2.7716,2.7757,2.7865,2.861,2.9659,2.9458,3.1992,3.6197,3.6003,3.8069,4.0965,3.7796,3.6604,3.678,3.8227,3.8784,3.9788,-3.1365,-3.1365,-3.1352,-3.1284,-3.127,-3.1297,-3.1365,-3.1311,-3.1297,-3.1365,-3.1311,-3.127,-3.127,-3.127,-3.127,-3.127,-3.1338,-3.1474,-3.1704,-3.1786,-3.1962,-3.2274,-3.222,-3.2098,-3.1935,-2.6854,-2.0021,-1.1549,-0.6334,-0.629,-1.1112,-0.349,-0.2702,-0.7496,-0.23,0.0,0.0,0.0,0.0,0.0,0.0,0.0,0.0,0.0,0.0,0.0,0.0,0.0,0.0,0.0,0.0,0.0,0.0,0.0,0.0,0.0,0.0,0.0,0.0,0.0,0.0,0.0,0.0,0.0,0.0,0.0,0.215,0.9417,1.2585,1.6312,2.3839,2.682,2.8041,2.8041,2.7485,2.6983,2.6725,2.6522,2.6373,2.6359,2.6631,2.6861,2.701,2.6956,2.6807,2.6549,2.6413,2.6359,2.6427,2.6427,2.6671,2.7227,2.7404,2.7526,2.7594,2.7662,2.7702,2.7702,2.7702,2.7702,2.7702,2.7784,2.7824,2.7824,2.7824,2.9215,3.1462,3.1309,3.2956,3.5123,3.2744,3.1891,3.2471,3.4619,3.5543,3.6906,-3.1487,-3.1487,-3.1433,-3.1297,-3.127,-3.127,-3.1297,-3.1284,-3.127,-3.1297,-3.1284,-3.127,-3.127,-3.127,-3.1284,-3.1297,-3.1297,-3.1419,-3.1704,-3.1745,-3.1881,-3.2152,-3.2166,-3.2098,-3.1935,-2.682,-2.1778,-1.7059,-1.1697,-1.1819,-1.6521,-0.6035,-0.3884,-0.8683,-0.2693,0.0,0.0,0.0,0.0,0.0,0.0,0.0,0.0,0.0,0.0,0.0,0.0,0.0,0.0,0.0,0.0,0.0,0.0,0.0,0.0,0.0,0.0,0.0,0.0,0.0,0.0,0.0,0.0,0.0,0.0,0.0,0.1433,0.6049,1.0815,1.5582,2.0527,2.4926,2.7879,2.7838,2.716,2.6603,2.6576,2.6224,2.6074,2.6359,2.6658,2.6888,2.7051,2.7065,2.7065,2.7065,2.682,2.6712,2.6834,2.6834,2.6943,2.72,2.7255,2.735,2.7512,2.7634,2.7702,2.7702,2.7702,2.7702,2.7702,2.7702,2.7702,2.7702,2.7716,2.7811,2.7906,2.7811,2.8001,2.8353,2.8231,2.834,2.9114,3.3091,3.4493,3.5701,-3.1487,-3.1487,-3.1433,-3.1297,-3.127,-3.1297,-3.1433,-3.1352,-3.1311,-3.1433,-3.1352,-3.127,-3.127,-3.127,-3.1311,-3.1433,-3.146,-3.1528,-3.1704,-3.1826,-3.1989,-3.2166,-3.2166,-3.2098,-3.1935,-2.665,-2.3456,-2.2714,-1.7212,-1.7123,-2.1984,-1.1506,-0.9302,-1.4057,-0.4229,0.0,0.0,0.0,0.0,0.0,0.0,0.0,0.0,0.0,0.0,0.0,0.0,0.0,0.0,0.0,0.0,0.0,0.0,0.0,0.0,0.0,0.0,0.0,0.0,0.0,0.0,0.0,0.0,0.0,0.0,0.0,0.1433,0.6049,1.0784,1.5317,2.0243,2.4781,2.7689,2.7567,2.7105,2.6712,2.659,2.6413,2.6346,2.6522,2.6807,2.7051,2.7187,2.72,2.72,2.72,2.7173,2.7105,2.6997,2.6997,2.701,2.7065,2.7309,2.7512,2.7662,2.7689,2.7702,2.7702,2.7702,2.7702,2.7702,2.7702,2.7702,2.7702,2.7824,2.7892,2.7906,2.8041,2.8191,2.8367,2.8353,2.8448,2.8761,2.9454,2.963,3.0498,-3.1636,-3.1609,-3.1596,-3.1528,-3.1365,-3.1311,-3.1474,-3.1365,-3.1284,-3.1352,-3.1297,-3.127,-3.127,-3.1338,-3.1419,-3.1487,-3.1636,-3.1759,-3.1826,-3.1894,-3.2003,-3.2166,-3.2166,-3.2098,-3.1935,-2.9461,-2.7995,-2.7923,-2.2677,-2.256,-2.7335,-1.4043,-1.0486,-1.5018,-0.4628,0.0,0.0,0.0,0.0,0.0,0.0,0.0,0.0,0.0,0.0,0.0,0.0,0.0,0.0,0.0,0.0,0.0,0.0,0.0,0.0,0.0,0.0,0.0,0.0,0.0,0.0,0.0,0.0,0.0,0.0,0.0,0.0537,0.2839,0.8799,1.4537,1.6981,2.2959,2.7702,2.7702,2.7065,2.6631,2.6807,2.6413,2.6251,2.6644,2.6956,2.72,2.735,2.7363,2.7363,2.7363,2.7295,2.72,2.716,2.7065,2.7024,2.7024,2.7241,2.7458,2.7702,2.7702,2.7702,2.7702,2.7702,2.7702,2.7702,2.7702,2.7702,2.7702,2.7865,2.796,2.8041,2.8109,2.8286,2.8476,2.8408,2.8462,2.8584,2.8584,2.8584,2.9277,-3.1786,-3.1772,-3.1759,-3.1718,-3.1528,-3.1406,-3.1528,-3.1433,-3.1352,-3.1311,-3.1311,-3.1311,-3.1311,-3.1419,-3.1528,-3.1582,-3.1813,-3.1948,-3.1989,-3.1989,-3.2016,-3.2111,-3.2071,-3.2003,-3.1881,-3.184,-3.1704,-3.1433,-2.7501,-2.6765,-2.8862,-1.5766,-1.1083,-1.3294,-0.4057,0.0,0.0,0.0,0.0,0.0,0.0,0.0,0.0,0.0,0.0,0.0,0.0,0.0,0.0,0.0,0.0,0.0,0.0,0.0,0.0,0.0,0.0,0.0,0.0,0.0,0.0,0.0,0.0,0.0,0.0,0.0,0.0,0.0,0.7378,1.3798,1.3938,2.1534,2.7729,2.7716,2.7065,2.6644,2.6888,2.6454,2.6291,2.6807,2.7119,2.735,2.7458,2.7512,2.7526,2.7526,2.7417,2.735,2.735,2.72,2.7132,2.7132,2.72,2.7377,2.7702,2.7702,2.7702,2.7702,2.7702,2.7702,2.7702,2.7702,2.7716,2.7757,2.7892,2.8055,2.8191,2.8231,2.8367,2.857,2.8462,2.8489,2.8584,2.8584,2.8584,2.9114,-3.1908,-3.1908,-3.1881,-3.1745,-3.1704,-3.1691,-3.1704,-3.1691,-3.1636,-3.1487,-3.1474,-3.1474,-3.1474,-3.1487,-3.1596,-3.1881,-3.1908,-3.1989,-3.2138,-3.2152,-3.2098,-3.1948,-3.1826,-3.1759,-3.1745,-3.1596,-3.1433,-3.1284,-3.0883,-2.8397,-2.3702,-1.7815,-1.2591,-0.8104,-0.2515,0.0,0.0,0.0,0.0,0.0,0.0,0.0,0.0,0.0,0.0,0.0,0.0,0.0,0.0,0.0,0.0,0.0,0.0,0.0,0.0,0.0,0.0,0.0,0.0,0.0,0.0,0.0,0.0,0.0,0.0,0.0,0.0,0.0,0.7399,1.3838,1.3884,2.1544,2.7716,2.7187,2.7132,2.7051,2.6658,2.6685,2.6807,2.6997,2.7282,2.7458,2.7472,2.7594,2.7689,2.7689,2.7662,2.7662,2.7662,2.7526,2.7431,2.7431,2.7309,2.7377,2.7702,2.7702,2.7702,2.7702,2.7702,2.7702,2.7702,2.7702,2.777,2.7906,2.8055,2.8218,2.8367,2.8489,2.857,2.8584,2.857,2.857,2.8584,2.8584,2.8584,2.8584,-3.2071,-3.2003,-3.1948,-3.1989,-3.184,-3.1759,-3.184,-3.1772,-3.1704,-3.1636,-3.1636,-3.1636,-3.1636,-3.1718,-3.1813,-3.1908,-3.2016,-3.2098,-3.2166,-3.2166,-3.2098,-3.1935,-3.1881,-3.1772,-3.1582,-3.1528,-3.1419,-3.127,-2.7928,-2.5296,-2.3017,-1.4731,-0.9689,-0.7526,-0.2321,0.0,0.0,0.0,0.0,0.0,0.0,0.0,0.0,0.0,0.0,0.0,0.0,0.0,0.0,0.0,0.0,0.0,0.0,0.0,0.0,0.0,0.0,0.0,0.0,0.0,0.0,0.0,0.0,0.0,0.0,0.0,0.0,0.0,0.7399,1.3811,1.3751,2.1597,2.7838,2.7607,2.7472,2.7336,2.716,2.7024,2.6997,2.7132,2.735,2.7512,2.7607,2.7662,2.7702,2.7702,2.7702,2.7702,2.7702,2.7567,2.7472,2.7472,2.7417,2.7485,2.7702,2.7702,2.7702,2.7702,2.7702,2.7702,2.7702,2.7784,2.7865,2.7933,2.8177,2.8313,2.8394,2.853,2.8584,2.8584,2.8584,2.8584,2.8584,2.8584,2.8584,2.8584,-3.2166,-3.2071,-3.2043,-3.2152,-3.1989,-3.1894,-3.1989,-3.1921,-3.184,-3.1786,-3.1786,-3.1786,-3.1786,-3.1881,-3.1948,-3.2003,-3.2057,-3.2098,-3.2098,-3.2057,-3.1962,-3.1867,-3.1772,-3.1636,-3.1419,-3.1419,-3.1311,-3.1121,-2.7698,-2.4115,-2.0469,-1.3564,-0.8531,-0.5022,-0.1548,0.0,0.0,0.0,0.0,0.0,0.0,0.0,0.0,0.0,0.0,0.0,0.0,0.0,0.0,0.0,0.0,0.0,0.0,0.0,0.0,0.0,0.0,0.0,0.0,0.0,0.0,0.0,0.0,0.0,0.0,0.0,0.0,0.0,0.7414,1.3852,1.3825,2.1703,2.8014,2.7933,2.7784,2.7648,2.7567,2.7363,2.7282,2.7377,2.7472,2.758,2.7689,2.7702,2.7702,2.7702,2.7702,2.7702,2.7702,2.7594,2.7539,2.7539,2.7539,2.7594,2.7702,2.7702,2.7702,2.7702,2.7702,2.7702,2.7702,2.7838,2.7933,2.8001,2.8272,2.8394,2.8448,2.8543,2.8584,2.8584,2.8584,2.8584,2.8584,2.8584,2.8584,2.8584,-3.2166,-3.2166,-3.2166,-3.2166,-3.2166,-3.2166,-3.2166,-3.2166,-3.2111,-3.1948,-3.1935,-3.1935,-3.1935,-3.1935,-3.2003,-3.2152,-3.2016,-3.1935,-3.1935,-3.1813,-3.1718,-3.1718,-3.1419,-3.127,-3.127,-3.127,-3.1121,-3.0822,-3.1121,-2.5786,-1.53,-1.545,-1.0072,0.0,0.0,0.0,0.0,0.0,0.0,0.0,0.0,0.0,0.0,0.0,0.0,0.0,0.0,0.0,0.0,0.0,0.0,0.0,0.0,0.0,0.0,0.0,0.0,0.0,0.0,0.0,0.0,0.0,0.0,0.0,0.0,0.0,0.0,0.0,0.746,1.4156,1.4088,2.1903,2.8272,2.796,2.8041,2.8041,2.7743,2.7702,2.7702,2.7702,2.7702,2.7702,2.7702,2.7702,2.7702,2.7702,2.7702,2.7702,2.7702,2.7702,2.7702,2.7702,2.7702,2.7702,2.7702,2.7702,2.7702,2.7702,2.7702,2.7702,2.7702,2.7865,2.8001,2.8163,2.8299,2.8462,2.8584,2.8584,2.8584,2.8584,2.8584,2.8584,2.8584,2.8584,2.8584,2.8584,-3.2166,-3.2166,-3.2166,-3.2166,-3.2166,-3.2166,-3.2166,-3.2166,-3.2152,-3.2098,-3.2098,-3.2098,-3.2098,-3.2098,-3.2111,-3.2166,-3.2125,-3.2098,-3.2098,-3.1867,-3.1718,-3.1718,-3.1528,-3.1365,-3.127,-3.127,-3.1175,-3.0985,-2.7457,-2.2142,-1.519,-1.1766,-0.6576,0.0,0.0,0.0,0.0,0.0,0.0,0.0,0.0,0.0,0.0,0.0,0.0,0.0,0.0,0.0,0.0,0.0,0.0,0.0,0.0,0.0,0.0,0.0,0.0,0.0,0.0,0.0,0.0,0.0,0.0,0.0,0.0,0.0,0.0,0.0,0.7517,1.4053,1.4163,2.1955,2.8299,2.8109,2.8191,2.8163,2.7757,2.7784,2.777,2.7567,2.7634,2.7743,2.7838,2.7757,2.7743,2.7838,2.7757,2.7702,2.7702,2.7702,2.7702,2.7702,2.7702,2.7757,2.7838,2.7838,2.7811,2.7702,2.7906,2.7946,2.7865,2.8123,2.8272,2.8313,2.8462,2.8543,2.8584,2.8584,2.8584,2.8584,2.8584,2.8584,2.8584,2.8584,2.8584,2.8584,-3.2166,-3.2166,-3.2166,-3.2166,-3.2166,-3.2166,-3.2166,-3.2166,-3.2166,-3.2166,-3.2166,-3.2166,-3.2166,-3.2166,-3.2166,-3.2166,-3.2111,-3.2071,-3.2071,-3.1786,-3.165,-3.1718,-3.1514,-3.1352,-3.127,-3.1216,-3.1135,-3.1053,-2.795,-2.2652,-1.5409,-1.2333,-0.6944,0.0,0.0,0.0,0.0,0.0,0.0,0.0,0.0,0.0,0.0,0.0,0.0,0.0,0.0,0.0,0.0,0.0,0.0,0.0,0.0,0.0,0.0,0.0,0.0,0.0,0.0,0.0,0.0,0.0,0.0,0.0,0.0,0.0,0.0,0.0,0.7525,1.41,1.4231,2.2029,2.8421,2.834,2.8353,2.8286,2.8001,2.7933,2.7838,2.7662,2.7689,2.7729,2.7824,2.7757,2.7729,2.7824,2.7757,2.7702,2.7702,2.7702,2.7702,2.7702,2.7702,2.777,2.7906,2.796,2.796,2.7879,2.8055,2.8082,2.8014,2.8272,2.8367,2.8367,2.853,2.8584,2.8584,2.8584,2.8584,2.8584,2.8584,2.8584,2.8584,2.8584,2.8584,2.8584,-3.2166,-3.2166,-3.2166,-3.2166,-3.2166,-3.2166,-3.2166,-3.2166,-3.2166,-3.2166,-3.2166,-3.2166,-3.2166,-3.2166,-3.2166,-3.2166,-3.2043,-3.1948,-3.1948,-3.1664,-3.1582,-3.1718,-3.1419,-3.127,-3.127,-3.1135,-3.1067,-3.1053,-3.0931,-2.5628,-1.5395,-1.5409,-0.9809,0.0,0.0,0.0,0.0,0.0,0.0,0.0,0.0,0.0,0.0,0.0,0.0,0.0,0.0,0.0,0.0,0.0,0.0,0.0,0.0,0.0,0.0,0.0,0.0,0.0,0.0,0.0,0.0,0.0,0.0,0.0,0.0,0.0,0.0,0.0,0.7321,1.3777,1.4292,2.178,2.804,2.8584,2.8462,2.8367,2.8353,2.8109,2.7906,2.7892,2.777,2.7702,2.7716,2.7716,2.7716,2.7702,2.7702,2.7702,2.7702,2.7702,2.7702,2.7702,2.7716,2.7784,2.7933,2.8082,2.8163,2.8136,2.8177,2.8177,2.8163,2.8313,2.8394,2.8394,2.853,2.8584,2.857,2.857,2.8543,2.8543,2.8543,2.8543,2.857,2.857,2.857,2.8584,-3.2166,-3.2166,-3.2166,-3.2166,-3.2166,-3.2166,-3.2166,-3.2166,-3.2166,-3.2166,-3.2166,-3.2166,-3.2166,-3.2166,-3.2166,-3.2166,-3.2125,-3.2111,-3.2111,-3.1826,-3.1691,-3.1718,-3.1419,-3.127,-3.127,-3.1229,-3.1162,-3.1053,-3.1121,-2.5741,-1.532,-1.5573,-0.9983,0.0,0.0,0.0,0.0,0.0,0.0,0.0,0.0,0.0,0.0,0.0,0.0,0.0,0.0,0.0,0.0,0.0,0.0,0.0,0.0,0.0,0.0,0.0,0.0,0.0,0.0,0.0,0.0,0.0,0.0,0.0,0.0,0.0,0.0,0.0,0.4699,0.9755,1.3605,1.9097,2.4285,2.8053,2.8462,2.834,2.8218,2.8041,2.7879,2.7757,2.7716,2.7743,2.7865,2.7865,2.7824,2.7702,2.7702,2.7702,2.7702,2.7702,2.7702,2.7702,2.7811,2.7946,2.8082,2.8245,2.8258,2.8136,2.8367,2.8421,2.8313,2.8476,2.853,2.853,2.857,2.8516,2.8421,2.8421,2.8353,2.8231,2.8231,2.8313,2.8421,2.8421,2.8489,2.8584,-3.2057,-3.2111,-3.2166,-3.2166,-3.2166,-3.2166,-3.2166,-3.2166,-3.2166,-3.2166,-3.2166,-3.2166,-3.2166,-3.2166,-3.2166,-3.2166,-3.2166,-3.2166,-3.2166,-3.1881,-3.1718,-3.1718,-3.1487,-3.1338,-3.127,-3.1338,-3.1297,-3.1162,-3.108,-2.5695,-1.5539,-1.5546,-0.9952,0.0,0.0,0.0,0.0,0.0,0.0,0.0,0.0,0.0,0.0,0.0,0.0,0.0,0.0,0.0,0.0,0.0,0.0,0.0,0.0,0.0,0.0,0.0,0.0,0.0,0.0,0.0,0.0,0.0,0.0,0.0,0.0,0.0,0.0,0.0,0.3797,0.8492,1.342,1.8251,2.292,2.7863,2.8408,2.8231,2.8163,2.7946,2.7784,2.7716,2.7702,2.7729,2.7811,2.7811,2.7784,2.7702,2.7702,2.7702,2.7702,2.7702,2.7729,2.7811,2.7879,2.8014,2.8245,2.834,2.8367,2.8353,2.8516,2.8543,2.8476,2.8543,2.8584,2.8584,2.8584,2.8543,2.8476,2.8476,2.8394,2.8245,2.8245,2.8245,2.8272,2.834,2.8462,2.8584,-3.1962,-3.2071,-3.2166,-3.2166,-3.2166,-3.2166,-3.2166,-3.2166,-3.2152,-3.2125,-3.2125,-3.2125,-3.2125,-3.2152,-3.2166,-3.2166,-3.2166,-3.2166,-3.2166,-3.1921,-3.1745,-3.1718,-3.1596,-3.146,-3.1297,-3.1419,-3.1419,-3.127,-3.0053,-2.4692,-1.5615,-1.4582,-0.8984,0.0,0.0,0.0,0.0,0.0,0.0,0.0,0.0,0.0,0.0,0.0,0.0,0.0,0.0,0.0,0.0,0.0,0.0,0.0,0.0,0.0,0.0,0.0,0.0,0.0,0.0,0.0,0.0,0.0,0.0,0.0,0.0,0.0,0.0,0.0,0.3062,0.7564,1.3254,1.758,2.2072,2.7699,2.834,2.8123,2.8109,2.7879,2.7702,2.7702,2.7702,2.7702,2.7702,2.7702,2.7702,2.7702,2.7702,2.7702,2.7702,2.7702,2.777,2.7906,2.7933,2.8082,2.8367,2.8394,2.8462,2.8584,2.8584,2.8584,2.8584,2.8584,2.8584,2.8584,2.8584,2.857,2.8543,2.8543,2.8448,2.8299,2.8299,2.8231,2.8163,2.834,2.8476,2.8584,-3.2111,-3.2152,-3.2166,-3.2166,-3.2166,-3.2166,-3.2166,-3.2166,-3.2111,-3.1989,-3.1962,-3.1962,-3.1962,-3.2071,-3.2166,-3.2166,-3.2166,-3.2166,-3.2166,-3.2003,-3.184,-3.1718,-3.1704,-3.1609,-3.146,-3.1474,-3.1419,-3.127,-2.673,-2.1388,-1.5504,-1.1,-0.558,0.0,0.0,0.0,0.0,0.0,0.0,0.0,0.0,0.0,0.0,0.0,0.0,0.0,0.0,0.0,0.0,0.0,0.0,0.0,0.0,0.0,0.0,0.0,0.0,0.0,0.0,0.0,0.0,0.0,0.0,0.0,0.0,0.0,0.0,0.0,0.0543,0.3792,1.2772,1.4883,1.8234,2.7155,2.834,2.8082,2.796,2.7811,2.7702,2.7702,2.7702,2.7702,2.7702,2.7702,2.7702,2.7702,2.7702,2.7702,2.7702,2.7702,2.777,2.7906,2.8041,2.8191,2.8367,2.8489,2.857,2.8584,2.8584,2.8584,2.8584,2.8584,2.8584,2.8584,2.8584,2.8516,2.8408,2.8408,2.8231,2.7987,2.7987,2.8041,2.8177,2.8462,2.857,2.8584,-3.2003,-3.2111,-3.2166,-3.2166,-3.2166,-3.2166,-3.2166,-3.2098,-3.2003,-3.1948,-3.1935,-3.1935,-3.1935,-3.2071,-3.2166,-3.2166,-3.2166,-3.2166,-3.2166,-3.1948,-3.1786,-3.1718,-3.1718,-3.165,-3.1487,-3.1582,-3.1514,-3.127,-2.591,-2.0762,-1.5456,-1.0202,-0.4996,0.0,0.0,0.0,0.0,0.0,0.0,0.0,0.0,0.0,0.0,0.0,0.0,0.0,0.0,0.0,0.0,0.0,0.0,0.0,0.0,0.0,0.0,0.0,0.0,0.0,0.0,0.0,0.0,0.0,0.0,0.0,0.0,0.0,0.0,0.0,0.0,0.2174,0.9166,1.2563,1.6492,2.3398,2.661,2.8218,2.8055,2.7906,2.7784,2.7716,2.7702,2.7702,2.7702,2.7702,2.7702,2.7702,2.7702,2.7702,2.7702,2.7702,2.7811,2.8041,2.8109,2.8245,2.8489,2.8543,2.8584,2.8584,2.8584,2.8584,2.8584,2.8489,2.8516,2.8584,2.8489,2.8476,2.8489,2.8489,2.8367,2.8163,2.8069,2.8082,2.8163,2.8394,2.8516,2.8584]}]]